Darstellungsparameter: Aktuell verwendete Einstellungen:
Skalierung der Graphiken ... ?
xyx+y,   Skalierungsfaktor:      Skalierung: Modus: x, Faktor: 1
Darstellungszeitraum ... ?
Vom - - bis: - -   Zeitraum: 23.01.2019 - 22.04.2019
Min/Max/Avg-Anzeige ... ?
Zeige MMA aktuell
Zeige MMA Monat
Zeige MMA alles
Zeige --A aktuell
Zeige --A Monat
Zeige --A alles
Keine MMA-Anzeige
MMA:
Keine MMA-Graphiken
MMA-Basis: 23.01.2019 - 22.04.2019
Quicknavigation für Darstellung... ?
Tage:      1T, 2T, 3T, 5T -1T -2T -3T -5T +1T +2T +3T +5T
Wochen: 1W, 2W, 3W -1W -2W -3W +1W +2W +3W
Monate: 1M, 3M, 6M -1M -3M -6M +1M +3M +6M
Jahre:    1J, 3J, 5J, 10J -1J -3J -5J -10J +1J +3J +5J +10J
Nutze für die Darstellung ... ?
Originaldaten oder ...
Mittelwerte Minima Maxima auf...
Stundenbasis Tagesbasis Wochenbasis
Monatsbasis Jahresbasis      Datenbasis: Mittelwerte auf Stundenbasis
Darstellen als:
Statistik (Auto) Statistik J:M      Darstellung:
Zur Graphik,    zurück zur Übersicht aller Sensoren.
 
Tabellarische Datenbersicht: ?
 
Sensor: Nr:Datum:Temp:Abs-Feuchte:Windchill:Wind:
Aussen-T/F 1 23-01-2019 00:00:00 -1.65833 C 3.84 g/m*3 -1.66 C 4.55 km/h
2 23-01-2019 01:00:00 -1.63333 C 3.88 g/m*3 -1.63 C 0 km/h
3 23-01-2019 02:00:00 -1.7 C 3.92 g/m*3 -1.7 C 0 km/h
4 23-01-2019 03:00:00 -1.775 C 3.95 g/m*3 -1.78 C 0 km/h
5 23-01-2019 04:00:00 -1.81667 C 3.97 g/m*3 -1.82 C 0 km/h
6 23-01-2019 05:00:00 -2.025 C 3.92 g/m*3 -2.03 C 0.13333 km/h
7 23-01-2019 06:00:00 -2.18333 C 3.91 g/m*3 -2.18 C 0.13333 km/h
8 23-01-2019 07:00:00 -2.3 C 3.88 g/m*3 -2.3 C 0 km/h
9 23-01-2019 08:00:00 -2.4 C 3.85 g/m*3 -2.4 C 0 km/h
10 23-01-2019 09:00:00 -2.275 C 3.91 g/m*3 -2.28 C 0.4 km/h
11 23-01-2019 10:00:00 -1.75833 C 4.03 g/m*3 -1.76 C 3.6 km/h
12 23-01-2019 11:00:00 -1.25 C 4.09 g/m*3 -3.42 C 5.9 km/h
13 23-01-2019 12:00:00 -0.75833 C 4.02 g/m*3 -0.76 C 3.875 km/h
14 23-01-2019 13:00:00 -0.7 C 3.92 g/m*3 -0.7 C 4.69167 km/h
15 23-01-2019 14:00:00 -0.71667 C 3.85 g/m*3 -0.72 C 4.425 km/h
16 23-01-2019 15:00:00 -0.8 C 3.8 g/m*3 -0.8 C 1.33333 km/h
17 23-01-2019 16:00:00 -0.83333 C 3.83 g/m*3 -0.83 C 1.86667 km/h
18 23-01-2019 17:00:00 -1.13333 C 3.82 g/m*3 -1.13 C 0.93333 km/h
19 23-01-2019 18:00:00 -1.375 C 3.83 g/m*3 -1.38 C 0.4 km/h
20 23-01-2019 19:00:00 -1.49167 C 3.77 g/m*3 -1.49 C 1.60833 km/h
21 23-01-2019 20:00:00 -1.7 C 3.78 g/m*3 -1.7 C 0.13333 km/h
22 23-01-2019 21:00:00 -1.81667 C 3.77 g/m*3 -1.82 C 0 km/h
23 23-01-2019 22:00:00 -1.875 C 3.76 g/m*3 -1.88 C 0 km/h
24 23-01-2019 23:00:00 -1.88333 C 3.78 g/m*3 -1.88 C 0 km/h
25 24-01-2019 00:00:00 -1.83333 C 3.75 g/m*3 -1.83 C 1.46667 km/h
Sensor: Nr:Datum:Temp:Abs-Feuchte:Windchill:Wind:
Aussen-T/F 26 24-01-2019 01:00:00 -1.64167 C 3.6 g/m*3 -3.62 C 5.35 km/h
27 24-01-2019 02:00:00 -1.65833 C 3.55 g/m*3 -1.66 C 4.81667 km/h
28 24-01-2019 03:00:00 -1.725 C 3.55 g/m*3 -1.73 C 4.13333 km/h
29 24-01-2019 04:00:00 -1.83333 C 3.53 g/m*3 -1.83 C 3.46667 km/h
30 24-01-2019 05:00:00 -1.9 C 3.51 g/m*3 -1.9 C 2.93333 km/h
31 24-01-2019 06:00:00 -2.01667 C 3.51 g/m*3 -2.02 C 3.2 km/h
32 24-01-2019 07:00:00 -2.1 C 3.48 g/m*3 -2.1 C 3.46667 km/h
33 24-01-2019 08:00:00 -2.16667 C 3.49 g/m*3 -2.17 C 2.26667 km/h
34 24-01-2019 09:00:00 -2.14167 C 3.48 g/m*3 -2.14 C 0.53333 km/h
35 24-01-2019 10:00:00 -1.90833 C 3.55 g/m*3 -1.91 C 3.6 km/h
36 24-01-2019 11:00:00 -2.05833 C 3.71 g/m*3 -2.06 C 1.33333 km/h
37 24-01-2019 12:00:00 -1.86667 C 3.77 g/m*3 -1.87 C 1.2 km/h
38 24-01-2019 13:00:00 -1.34167 C 3.76 g/m*3 -1.34 C 4.15833 km/h
39 24-01-2019 14:00:00 -1.21667 C 3.67 g/m*3 -1.22 C 4.01667 km/h
40 24-01-2019 15:00:00 -1.325 C 3.53 g/m*3 -1.33 C 3.6 km/h
41 24-01-2019 16:00:00 -1.475 C 3.52 g/m*3 -1.48 C 2.4 km/h
42 24-01-2019 17:00:00 -1.75833 C 3.49 g/m*3 -1.76 C 3.46667 km/h
43 24-01-2019 18:00:00 -1.91667 C 3.44 g/m*3 -1.92 C 1.86667 km/h
44 24-01-2019 19:00:00 -2.08333 C 3.47 g/m*3 -2.08 C 0 km/h
45 24-01-2019 20:00:00 -2.48333 C 3.44 g/m*3 -2.48 C 0.26667 km/h
46 24-01-2019 21:00:00 -2.63333 C 3.48 g/m*3 -2.63 C 0 km/h
47 24-01-2019 22:00:00 -2.53333 C 3.51 g/m*3 -2.53 C 0 km/h
48 24-01-2019 23:00:00 -2.4 C 3.57 g/m*3 -2.4 C 0 km/h
49 25-01-2019 00:00:00 -2.375 C 3.55 g/m*3 -2.38 C 0.13333 km/h
50 25-01-2019 01:00:00 -2.13333 C 3.59 g/m*3 -2.13 C 2 km/h
Sensor: Nr:Datum:Temp:Abs-Feuchte:Windchill:Wind:
Aussen-T/F 51 25-01-2019 02:00:00 -1.80833 C 3.7 g/m*3 -1.81 C 2.4 km/h
52 25-01-2019 03:00:00 -1.7 C 3.77 g/m*3 -1.7 C 0.8 km/h
53 25-01-2019 04:00:00 -1.56667 C 3.84 g/m*3 -1.57 C 1.46667 km/h
54 25-01-2019 05:00:00 -1.4 C 3.92 g/m*3 -1.4 C 1.86667 km/h
55 25-01-2019 06:00:00 -1.3 C 3.98 g/m*3 -1.3 C 0.8 km/h
56 25-01-2019 07:00:00 -1.24167 C 4.01 g/m*3 -1.24 C 0.26667 km/h
57 25-01-2019 08:00:00 -1.1 C 4.09 g/m*3 -1.1 C 0.66667 km/h
58 25-01-2019 09:00:00 -0.75 C 4.19 g/m*3 -0.75 C 1.33333 km/h
59 25-01-2019 10:00:00 -0.2 C 4.35 g/m*3 -2.72 C 7.24167 km/h
60 25-01-2019 11:00:00 0.63333 C 4.56 g/m*3 -1.89 C 7.675 km/h
61 25-01-2019 12:00:00 1.63333 C 4.69 g/m*3 -0.8 C 7.94167 km/h
62 25-01-2019 13:00:00 2.45833 C 4.66 g/m*3 -1 C 12.89167 km/h
63 25-01-2019 14:00:00 2.24167 C 4.58 g/m*3 -1.02 C 11.7 km/h
64 25-01-2019 15:00:00 1.96667 C 4.58 g/m*3 -1.76 C 13.7 km/h
65 25-01-2019 16:00:00 1.725 C 4.64 g/m*3 -1.9 C 12.9 km/h
66 25-01-2019 17:00:00 1.7 C 4.73 g/m*3 -1.76 C 12.08333 km/h
67 25-01-2019 18:00:00 1.76667 C 4.76 g/m*3 -1.47 C 11.14167 km/h
68 25-01-2019 19:00:00 1.51667 C 4.83 g/m*3 -1.9 C 11.69167 km/h
69 25-01-2019 20:00:00 1.5 C 4.9 g/m*3 -2.09 C 12.5 km/h
70 25-01-2019 21:00:00 1.66667 C 4.94 g/m*3 -2.66 C 16.76667 km/h
71 25-01-2019 22:00:00 1.78333 C 5.01 g/m*3 -2.38 C 15.96667 km/h
72 25-01-2019 23:00:00 1.8 C 5.12 g/m*3 -2.16 C 14.76667 km/h
73 26-01-2019 00:00:00 1.85 C 5.18 g/m*3 -2.7 C 18.50833 km/h
74 26-01-2019 01:00:00 2.04167 C 5.28 g/m*3 -2.11 C 16.23333 km/h
75 26-01-2019 02:00:00 2.325 C 5.34 g/m*3 -2 C 17.83333 km/h
Sensor: Nr:Datum:Temp:Abs-Feuchte:Windchill:Wind:
Aussen-T/F 76 26-01-2019 03:00:00 2.625 C 5.42 g/m*3 -1.53 C 17.16667 km/h
77 26-01-2019 04:00:00 2.975 C 5.51 g/m*3 -1.13 C 17.43333 km/h
78 26-01-2019 05:00:00 3.35833 C 5.6 g/m*3 -0.43 C 15.96667 km/h
79 26-01-2019 06:00:00 3.24167 C 5.59 g/m*3 -0.33 C 14.5 km/h
80 26-01-2019 07:00:00 3.25833 C 5.66 g/m*3 -0.27 C 14.23333 km/h
81 26-01-2019 08:00:00 3.75833 C 5.88 g/m*3 0.02 C 16.23333 km/h
82 26-01-2019 09:00:00 4.325 C 6.04 g/m*3 0.41 C 18.50833 km/h
83 26-01-2019 10:00:00 4.83333 C 6.18 g/m*3 1.67 C 14.23333 km/h
84 26-01-2019 11:00:00 5.16667 C 6.32 g/m*3 1.87 C 15.56667 km/h
85 26-01-2019 12:00:00 5.80833 C 6.5 g/m*3 2.7 C 15.3 km/h
86 26-01-2019 13:00:00 5.95 C 6.51 g/m*3 2.96 C 14.76667 km/h
87 26-01-2019 14:00:00 5.95833 C 6.56 g/m*3 3.4 C 12.09167 km/h
88 26-01-2019 15:00:00 6.21667 C 6.57 g/m*3 3.99 C 10.625 km/h
89 26-01-2019 16:00:00 5.95833 C 6.51 g/m*3 4.61 C 6.7 km/h
90 26-01-2019 17:00:00 5.56667 C 6.34 g/m*3 5.57 C 4.15 km/h
91 26-01-2019 18:00:00 4.89167 C 6.23 g/m*3 4.89 C 1.46667 km/h
92 26-01-2019 19:00:00 5.00833 C 6.37 g/m*3 5.01 C 1.2 km/h
93 26-01-2019 20:00:00 5.31667 C 6.53 g/m*3 5.32 C 4.95833 km/h
94 26-01-2019 21:00:00 5.63333 C 6.58 g/m*3 5.63 C 4.825 km/h
95 26-01-2019 22:00:00 5.975 C 6.61 g/m*3 5.98 C 2.675 km/h
96 26-01-2019 23:00:00 5.53333 C 6.54 g/m*3 5.53 C 2 km/h
97 27-01-2019 00:00:00 5.8 C 6.64 g/m*3 4.68 C 5.9 km/h
98 27-01-2019 01:00:00 5.7 C 6.62 g/m*3 5.7 C 3.88333 km/h
99 27-01-2019 02:00:00 5.975 C 6.68 g/m*3 4.88 C 5.88333 km/h
100 27-01-2019 03:00:00 6.41667 C 6.76 g/m*3 5.43 C 5.75833 km/h
Sensor: Nr:Datum:Temp:Abs-Feuchte:Windchill:Wind:
Aussen-T/F 101 27-01-2019 04:00:00 6.18333 C 6.7 g/m*3 6.18 C 4.425 km/h
102 27-01-2019 05:00:00 5.9 C 6.6 g/m*3 5.02 C 5.21667 km/h
103 27-01-2019 06:00:00 6.13333 C 6.62 g/m*3 4.81 C 6.70833 km/h
104 27-01-2019 07:00:00 6.51667 C 6.82 g/m*3 6.52 C 4.95 km/h
105 27-01-2019 08:00:00 6.5 C 6.81 g/m*3 5.44 C 6.03333 km/h
106 27-01-2019 09:00:00 5.99167 C 6.75 g/m*3 5.03 C 5.48333 km/h
107 27-01-2019 10:00:00 5.74167 C 6.76 g/m*3 5.74 C 4.28333 km/h
108 27-01-2019 11:00:00 7.025 C 7.12 g/m*3 5.03 C 10.21667 km/h
109 27-01-2019 12:00:00 7.69167 C 7.08 g/m*3 6.19 C 8.46667 km/h
110 27-01-2019 13:00:00 7.75833 C 7.05 g/m*3 5.88 C 10.36667 km/h
111 27-01-2019 14:00:00 8.175 C 7.09 g/m*3 6.49 C 9.80833 km/h
112 27-01-2019 15:00:00 7.73333 C 7.13 g/m*3 7.11 C 5.225 km/h
113 27-01-2019 16:00:00 7.06667 C 6.93 g/m*3 5.22 C 9.54167 km/h
114 27-01-2019 17:00:00 6.6 C 6.62 g/m*3 3.74 C 14.89167 km/h
115 27-01-2019 18:00:00 5.5 C 6.29 g/m*3 3.07 C 10.89167 km/h
116 27-01-2019 19:00:00 4.53333 C 5.96 g/m*3 3.04 C 6.43333 km/h
117 27-01-2019 20:00:00 3.89167 C 5.62 g/m*3 1.74 C 8.33333 km/h
118 27-01-2019 21:00:00 3.45833 C 5.45 g/m*3 3.46 C 4.7 km/h
119 27-01-2019 22:00:00 3.25833 C 5.43 g/m*3 1.36 C 7.09167 km/h
120 27-01-2019 23:00:00 3.15 C 5.31 g/m*3 0.79 C 8.60833 km/h
121 28-01-2019 00:00:00 3.06667 C 5.36 g/m*3 -0.05 C 11.83333 km/h
122 28-01-2019 01:00:00 3.40833 C 5.4 g/m*3 0.26 C 12.35833 km/h
123 28-01-2019 02:00:00 3.21667 C 5.39 g/m*3 0.57 C 9.80833 km/h
124 28-01-2019 03:00:00 3.24167 C 5.43 g/m*3 -0.05 C 12.9 km/h
125 28-01-2019 04:00:00 3.23333 C 5.47 g/m*3 0.04 C 12.36667 km/h
Sensor: Nr:Datum:Temp:Abs-Feuchte:Windchill:Wind:
Aussen-T/F 126 28-01-2019 05:00:00 3.26667 C 5.42 g/m*3 -0.54 C 15.96667 km/h
127 28-01-2019 06:00:00 3.16667 C 5.4 g/m*3 -1.14 C 19.16667 km/h
128 28-01-2019 07:00:00 2.71667 C 5.41 g/m*3 -1.41 C 17.175 km/h
129 28-01-2019 08:00:00 2.5 C 5.38 g/m*3 -1.49 C 15.96667 km/h
130 28-01-2019 09:00:00 2.24167 C 5.33 g/m*3 -0.99 C 11.56667 km/h
131 28-01-2019 10:00:00 2.40833 C 5.43 g/m*3 -1.17 C 13.43333 km/h
132 28-01-2019 11:00:00 2.925 C 5.62 g/m*3 -0.56 C 13.56667 km/h
133 28-01-2019 12:00:00 3.3 C 5.74 g/m*3 0.26 C 11.7 km/h
134 28-01-2019 13:00:00 3.55 C 5.82 g/m*3 0.73 C 10.88333 km/h
135 28-01-2019 14:00:00 4.03333 C 5.87 g/m*3 0.99 C 12.5 km/h
136 28-01-2019 15:00:00 4.01667 C 5.77 g/m*3 0.66 C 14.23333 km/h
137 28-01-2019 16:00:00 3.44167 C 5.61 g/m*3 0.03 C 13.81667 km/h
138 28-01-2019 17:00:00 2.975 C 5.5 g/m*3 0.77 C 7.93333 km/h
139 28-01-2019 18:00:00 2.80833 C 5.44 g/m*3 1.19 C 6.05 km/h
140 28-01-2019 19:00:00 3 C 5.28 g/m*3 0.41 C 9.4 km/h
141 28-01-2019 20:00:00 3.46667 C 5.27 g/m*3 0.66 C 10.75 km/h
142 28-01-2019 21:00:00 3.35833 C 5.28 g/m*3 1.35 C 7.50833 km/h
143 28-01-2019 22:00:00 3.48333 C 5.29 g/m*3 0.95 C 9.54167 km/h
144 28-01-2019 23:00:00 3.28333 C 5.28 g/m*3 1.56 C 6.55833 km/h
145 29-01-2019 00:00:00 2.75 C 5.19 g/m*3 1.39 C 5.34167 km/h
146 29-01-2019 01:00:00 2.38333 C 5.18 g/m*3 1.03 C 5.20833 km/h
147 29-01-2019 02:00:00 1.91667 C 5.12 g/m*3 -0.08 C 6.70833 km/h
148 29-01-2019 03:00:00 1.59167 C 5.07 g/m*3 1.59 C 4.54167 km/h
149 29-01-2019 04:00:00 1.04167 C 4.89 g/m*3 -1.09 C 6.71667 km/h
150 29-01-2019 05:00:00 0.69167 C 4.79 g/m*3 0.69 C 4.55 km/h
Sensor: Nr:Datum:Temp:Abs-Feuchte:Windchill:Wind:
Aussen-T/F 151 29-01-2019 06:00:00 0.95 C 4.91 g/m*3 0.95 C 4.68333 km/h
152 29-01-2019 07:00:00 1.15 C 4.93 g/m*3 1.15 C 4.275 km/h
153 29-01-2019 08:00:00 1.18333 C 4.94 g/m*3 1.18 C 3.6 km/h
154 29-01-2019 09:00:00 1.00833 C 4.88 g/m*3 1.01 C 4.53333 km/h
155 29-01-2019 10:00:00 2.06667 C 5.08 g/m*3 0.55 C 5.48333 km/h
156 29-01-2019 11:00:00 2.91667 C 5.19 g/m*3 1.47 C 5.61667 km/h
157 29-01-2019 12:00:00 3.63333 C 5.29 g/m*3 3.63 C 4.95833 km/h
158 29-01-2019 13:00:00 3.96667 C 5.32 g/m*3 2.58 C 5.875 km/h
159 29-01-2019 14:00:00 3.85 C 5.21 g/m*3 3.85 C 4.275 km/h
160 29-01-2019 15:00:00 3.8 C 5.11 g/m*3 3.8 C 2.4 km/h
161 29-01-2019 16:00:00 3.76667 C 5.11 g/m*3 3.77 C 0.13333 km/h
162 29-01-2019 17:00:00 2.78333 C 4.96 g/m*3 2.78 C 0.13333 km/h
163 29-01-2019 18:00:00 1.3 C 4.62 g/m*3 1.3 C 0.4 km/h
164 29-01-2019 19:00:00 0.25833 C 4.43 g/m*3 0.26 C 0 km/h
165 29-01-2019 20:00:00 -0.25833 C 4.33 g/m*3 -0.26 C 0 km/h
166 29-01-2019 21:00:00 -0.3 C 4.32 g/m*3 -0.3 C 0 km/h
167 29-01-2019 22:00:00 -0.375 C 4.31 g/m*3 -0.38 C 0 km/h
168 29-01-2019 23:00:00 -0.55 C 4.31 g/m*3 -0.55 C 0 km/h
169 30-01-2019 00:00:00 -0.55 C 4.34 g/m*3 -0.55 C 1.73333 km/h
170 30-01-2019 01:00:00 -0.675 C 4.3 g/m*3 -0.68 C 0.8 km/h
171 30-01-2019 02:00:00 -0.68333 C 4.3 g/m*3 -0.68 C 0.8 km/h
172 30-01-2019 03:00:00 -0.8 C 4.24 g/m*3 -0.8 C 0.4 km/h
173 30-01-2019 04:00:00 -0.875 C 4.23 g/m*3 -0.88 C 1.06667 km/h
174 30-01-2019 05:00:00 -0.51667 C 4.3 g/m*3 -0.52 C 0.4 km/h
175 30-01-2019 06:00:00 -0.10833 C 4.36 g/m*3 -0.11 C 0.26667 km/h
Sensor: Nr:Datum:Temp:Abs-Feuchte:Windchill:Wind:
Aussen-T/F 176 30-01-2019 07:00:00 0.30833 C 4.38 g/m*3 0.31 C 3.06667 km/h
177 30-01-2019 08:00:00 0.16667 C 4.49 g/m*3 0.17 C 1.2 km/h
178 30-01-2019 09:00:00 0.025 C 4.55 g/m*3 0.03 C 0.4 km/h
179 30-01-2019 10:00:00 0.3 C 4.65 g/m*3 0.3 C 0.26667 km/h
180 30-01-2019 11:00:00 0.825 C 4.82 g/m*3 0.83 C 0.13333 km/h
181 30-01-2019 12:00:00 1.40833 C 5.02 g/m*3 1.41 C 0.26667 km/h
182 30-01-2019 13:00:00 1.66667 C 5.11 g/m*3 1.67 C 0.26667 km/h
183 30-01-2019 14:00:00 1.70833 C 5.11 g/m*3 1.71 C 0 km/h
184 30-01-2019 15:00:00 1.475 C 5.04 g/m*3 1.48 C 3.61667 km/h
185 30-01-2019 16:00:00 1.15833 C 4.97 g/m*3 1.16 C 4.53333 km/h
186 30-01-2019 17:00:00 1.1 C 4.96 g/m*3 1.1 C 4.68333 km/h
187 30-01-2019 18:00:00 1.075 C 4.96 g/m*3 1.08 C 4.00833 km/h
188 30-01-2019 19:00:00 1.08333 C 5 g/m*3 1.08 C 1.73333 km/h
189 30-01-2019 20:00:00 1.03333 C 4.98 g/m*3 -1.78 C 8.86667 km/h
190 30-01-2019 21:00:00 0.95833 C 4.86 g/m*3 -1.79 C 8.6 km/h
191 30-01-2019 22:00:00 0.71667 C 4.73 g/m*3 -1.96 C 8.19167 km/h
192 30-01-2019 23:00:00 0.23333 C 4.55 g/m*3 -1.82 C 6.15 km/h
193 31-01-2019 00:00:00 -0.4 C 4.38 g/m*3 -0.4 C 4.00833 km/h
194 31-01-2019 01:00:00 -1.24167 C 4.17 g/m*3 -1.24 C 0 km/h
195 31-01-2019 02:00:00 -1.29167 C 4.19 g/m*3 -1.29 C 0 km/h
196 31-01-2019 03:00:00 -1.30833 C 4.2 g/m*3 -1.31 C 0 km/h
197 31-01-2019 04:00:00 -0.8 C 4.38 g/m*3 -0.8 C 0 km/h
198 31-01-2019 05:00:00 -0.61667 C 4.46 g/m*3 -0.62 C 0 km/h
199 31-01-2019 06:00:00 -0.41667 C 4.52 g/m*3 -0.42 C 0 km/h
200 31-01-2019 07:00:00 -0.35833 C 4.54 g/m*3 -0.36 C 0 km/h
Sensor: Nr:Datum:Temp:Abs-Feuchte:Windchill:Wind:
Aussen-T/F 201 31-01-2019 08:00:00 -0.29167 C 4.56 g/m*3 -0.29 C 0 km/h
202 31-01-2019 09:00:00 0.15833 C 4.7 g/m*3 0.16 C 0.53333 km/h
203 31-01-2019 10:00:00 0.725 C 4.85 g/m*3 0.73 C 2.275 km/h
204 31-01-2019 11:00:00 1.39167 C 5.02 g/m*3 1.39 C 0.53333 km/h
205 31-01-2019 12:00:00 1.81667 C 5.15 g/m*3 1.82 C 0.66667 km/h
206 31-01-2019 13:00:00 1.53333 C 5.05 g/m*3 1.53 C 0.26667 km/h
207 31-01-2019 14:00:00 1.83333 C 5.2 g/m*3 1.83 C 0 km/h
208 31-01-2019 15:00:00 2.25 C 5.28 g/m*3 2.25 C 0 km/h
209 31-01-2019 16:00:00 1.56667 C 5.03 g/m*3 1.57 C 0 km/h
210 31-01-2019 17:00:00 0.93333 C 4.86 g/m*3 0.93 C 0 km/h
211 31-01-2019 18:00:00 0.06667 C 4.58 g/m*3 0.07 C 3.33333 km/h
212 31-01-2019 19:00:00 -1.11667 C 4.21 g/m*3 -1.12 C 2.13333 km/h
213 31-01-2019 20:00:00 -1.95833 C 3.98 g/m*3 -1.96 C 0.93333 km/h
214 31-01-2019 21:00:00 -2.00833 C 4 g/m*3 -2.01 C 0 km/h
215 31-01-2019 22:00:00 -1.6 C 4.16 g/m*3 -1.6 C 0 km/h
216 31-01-2019 23:00:00 -1.225 C 4.27 g/m*3 -1.23 C 0 km/h
217 01-02-2019 00:00:00 -0.775 C 4.41 g/m*3 -0.78 C 0 km/h
218 01-02-2019 01:00:00 -0.44167 C 4.51 g/m*3 -0.44 C 0 km/h
219 01-02-2019 02:00:00 -0.125 C 4.61 g/m*3 -0.13 C 0 km/h
220 01-02-2019 03:00:00 0.575 C 4.88 g/m*3 0.57 C 2.53333 km/h
221 01-02-2019 04:00:00 1.08333 C 5.02 g/m*3 -0.52 C 5.35833 km/h
222 01-02-2019 05:00:00 1.18333 C 5.04 g/m*3 1.18 C 2.54167 km/h
223 01-02-2019 06:00:00 1.13333 C 5.02 g/m*3 1.13 C 1.2 km/h
224 01-02-2019 07:00:00 1.2 C 5.05 g/m*3 1.2 C 1.73333 km/h
225 01-02-2019 08:00:00 1.31667 C 5.1 g/m*3 1.32 C 2.66667 km/h
Sensor: Nr:Datum:Temp:Abs-Feuchte:Windchill:Wind:
Aussen-T/F 226 01-02-2019 09:00:00 1.54167 C 5.17 g/m*3 1.54 C 1.60833 km/h
227 01-02-2019 10:00:00 2.21667 C 5.41 g/m*3 2.22 C 3.06667 km/h
228 01-02-2019 11:00:00 3.15833 C 5.71 g/m*3 3.16 C 1.46667 km/h
229 01-02-2019 12:00:00 3.225 C 5.63 g/m*3 3.23 C 1.6 km/h
230 01-02-2019 13:00:00 2.73333 C 5.51 g/m*3 2.73 C 3.06667 km/h
231 01-02-2019 14:00:00 3.49167 C 5.83 g/m*3 3.49 C 3.06667 km/h
232 01-02-2019 15:00:00 3.23333 C 5.67 g/m*3 3.23 C 3.6 km/h
233 01-02-2019 16:00:00 2.86667 C 5.59 g/m*3 2.87 C 4.8 km/h
234 01-02-2019 17:00:00 2.54167 C 5.5 g/m*3 2.54 C 4.66667 km/h
235 01-02-2019 18:00:00 2.46667 C 5.51 g/m*3 2.47 C 4.26667 km/h
236 01-02-2019 19:00:00 2.24167 C 5.42 g/m*3 2.24 C 3.86667 km/h
237 01-02-2019 20:00:00 2.01667 C 5.34 g/m*3 2.02 C 2.93333 km/h
238 01-02-2019 21:00:00 1.80833 C 5.27 g/m*3 1.81 C 0 km/h
239 01-02-2019 22:00:00 1.675 C 5.22 g/m*3 1.68 C 0.13333 km/h
240 01-02-2019 23:00:00 1.59167 C 5.23 g/m*3 1.59 C 0 km/h
241 02-02-2019 00:00:00 1.74167 C 5.3 g/m*3 1.74 C 0 km/h
242 02-02-2019 01:00:00 1.825 C 5.33 g/m*3 1.83 C 0 km/h
243 02-02-2019 02:00:00 1.825 C 5.33 g/m*3 1.83 C 0 km/h
244 02-02-2019 03:00:00 1.75833 C 5.3 g/m*3 1.76 C 0 km/h
245 02-02-2019 04:00:00 1.81667 C 5.32 g/m*3 1.82 C 0 km/h
246 02-02-2019 05:00:00 1.70833 C 5.28 g/m*3 1.71 C 0 km/h
247 02-02-2019 06:00:00 1.725 C 5.29 g/m*3 1.73 C 0 km/h
248 02-02-2019 07:00:00 1.73333 C 5.29 g/m*3 1.73 C 0 km/h
249 02-02-2019 08:00:00 1.8 C 5.32 g/m*3 1.8 C 0 km/h
250 02-02-2019 09:00:00 2.09167 C 5.42 g/m*3 2.09 C 0 km/h
Sensor: Nr:Datum:Temp:Abs-Feuchte:Windchill:Wind:
Aussen-T/F 251 02-02-2019 10:00:00 2.71667 C 5.69 g/m*3 2.72 C 0.26667 km/h
252 02-02-2019 11:00:00 3.05 C 5.79 g/m*3 3.05 C 0.26667 km/h
253 02-02-2019 12:00:00 3.31667 C 5.89 g/m*3 3.32 C 0 km/h
254 02-02-2019 13:00:00 3.675 C 6.03 g/m*3 3.68 C 0.53333 km/h
255 02-02-2019 14:00:00 3.725 C 6.05 g/m*3 3.73 C 0 km/h
256 02-02-2019 15:00:00 3.90833 C 6.13 g/m*3 3.91 C 0 km/h
257 02-02-2019 16:00:00 3.675 C 6.03 g/m*3 3.68 C 0 km/h
258 02-02-2019 17:00:00 3.25 C 5.86 g/m*3 3.25 C 0.53333 km/h
259 02-02-2019 18:00:00 3.15833 C 5.83 g/m*3 1.96 C 5.075 km/h
260 02-02-2019 19:00:00 2.625 C 5.6 g/m*3 2.63 C 3.60833 km/h
261 02-02-2019 20:00:00 2.30833 C 5.46 g/m*3 2.31 C 4.81667 km/h
262 02-02-2019 21:00:00 2.1 C 5.37 g/m*3 2.1 C 0.53333 km/h
263 02-02-2019 22:00:00 1.875 C 5.29 g/m*3 0.07 C 6.15833 km/h
264 02-02-2019 23:00:00 1.8 C 5.28 g/m*3 1.8 C 4.95 km/h
265 03-02-2019 00:00:00 1.875 C 5.32 g/m*3 0.44 C 5.225 km/h
266 03-02-2019 01:00:00 2.06667 C 5.36 g/m*3 -0.24 C 7.76667 km/h
267 03-02-2019 02:00:00 2.15833 C 5.3 g/m*3 -1.21 C 12.09167 km/h
268 03-02-2019 03:00:00 2.18333 C 5.23 g/m*3 -0.89 C 10.76667 km/h
269 03-02-2019 04:00:00 2.1 C 5.23 g/m*3 -0.52 C 8.86667 km/h
270 03-02-2019 05:00:00 2.18333 C 5.24 g/m*3 2.18 C 4 km/h
271 03-02-2019 06:00:00 2.19167 C 5.21 g/m*3 -0.02 C 7.50833 km/h
272 03-02-2019 07:00:00 1.9 C 5.13 g/m*3 -0.28 C 7.25833 km/h
273 03-02-2019 08:00:00 1.875 C 5.12 g/m*3 1.88 C 4.96667 km/h
274 03-02-2019 09:00:00 2.00833 C 5.18 g/m*3 2.01 C 2.54167 km/h
275 03-02-2019 10:00:00 2.46667 C 5.24 g/m*3 -0.01 C 8.59167 km/h
Sensor: Nr:Datum:Temp:Abs-Feuchte:Windchill:Wind:
Aussen-T/F 276 03-02-2019 11:00:00 3.10833 C 5.32 g/m*3 1.21 C 6.99167 km/h
277 03-02-2019 12:00:00 3.58333 C 5.3 g/m*3 0.8 C 10.75 km/h
278 03-02-2019 13:00:00 3.96667 C 5.29 g/m*3 0.91 C 12.5 km/h
279 03-02-2019 14:00:00 4.1 C 5.32 g/m*3 1.12 C 12.23333 km/h
280 03-02-2019 15:00:00 4.50833 C 5.05 g/m*3 1.82 C 11.16667 km/h
281 03-02-2019 16:00:00 4.43333 C 4.98 g/m*3 3.3 C 5.35 km/h
282 03-02-2019 17:00:00 4.26667 C 5.05 g/m*3 4.27 C 4.13333 km/h
283 03-02-2019 18:00:00 3.875 C 5.19 g/m*3 3.88 C 3.34167 km/h
284 03-02-2019 19:00:00 3.58333 C 5.25 g/m*3 3.58 C 2.13333 km/h
285 03-02-2019 20:00:00 3.19167 C 5.25 g/m*3 3.19 C 2.4 km/h
286 03-02-2019 21:00:00 1.925 C 4.92 g/m*3 1.93 C 1.46667 km/h
287 03-02-2019 22:00:00 0.99167 C 4.73 g/m*3 0.99 C 0 km/h
288 03-02-2019 23:00:00 0.25833 C 4.58 g/m*3 0.26 C 0.4 km/h
289 04-02-2019 00:00:00 -0.31667 C 4.44 g/m*3 -0.32 C 1.06667 km/h
290 04-02-2019 01:00:00 -0.05833 C 4.58 g/m*3 -0.06 C 1.73333 km/h
291 04-02-2019 02:00:00 0 C 4.57 g/m*3 0 C 1.73333 km/h
292 04-02-2019 03:00:00 -0.2 C 4.49 g/m*3 -2.81 C 7.50833 km/h
293 04-02-2019 04:00:00 -0.475 C 4.41 g/m*3 -0.48 C 0.4 km/h
294 04-02-2019 05:00:00 -0.03333 C 4.59 g/m*3 -0.03 C 0.4 km/h
295 04-02-2019 06:00:00 0.36667 C 4.72 g/m*3 0.37 C 0 km/h
296 04-02-2019 07:00:00 0.51667 C 4.77 g/m*3 0.52 C 0.26667 km/h
297 04-02-2019 08:00:00 0.7 C 4.8 g/m*3 0.7 C 0.26667 km/h
298 04-02-2019 09:00:00 0.60833 C 4.75 g/m*3 0.61 C 0.13333 km/h
299 04-02-2019 10:00:00 0.9 C 4.85 g/m*3 0.9 C 0 km/h
300 04-02-2019 11:00:00 2.04167 C 5.08 g/m*3 2.04 C 0 km/h
Sensor: Nr:Datum:Temp:Abs-Feuchte:Windchill:Wind:
Aussen-T/F 301 04-02-2019 12:00:00 3.75 C 5.12 g/m*3 3.75 C 4.425 km/h
302 04-02-2019 13:00:00 4.78333 C 4.86 g/m*3 2.8 C 8.325 km/h
303 04-02-2019 14:00:00 5.30833 C 4.75 g/m*3 3.94 C 6.43333 km/h
304 04-02-2019 15:00:00 5.325 C 4.63 g/m*3 5.33 C 4.55833 km/h
305 04-02-2019 16:00:00 5 C 4.88 g/m*3 5 C 1.6 km/h
306 04-02-2019 17:00:00 2.75 C 4.88 g/m*3 2.75 C 0.8 km/h
307 04-02-2019 18:00:00 1.4 C 4.67 g/m*3 1.4 C 3.6 km/h
308 04-02-2019 19:00:00 1.40833 C 4.78 g/m*3 1.41 C 1.6 km/h
309 04-02-2019 20:00:00 2.00833 C 4.87 g/m*3 2.01 C 1.475 km/h
310 04-02-2019 21:00:00 2.625 C 4.79 g/m*3 2.63 C 1.6 km/h
311 04-02-2019 22:00:00 2.85 C 4.88 g/m*3 2.85 C 0.66667 km/h
312 04-02-2019 23:00:00 2.71667 C 4.95 g/m*3 2.72 C 0.26667 km/h
313 05-02-2019 00:00:00 2.99167 C 4.91 g/m*3 2.99 C 1.33333 km/h
314 05-02-2019 01:00:00 3.31667 C 4.91 g/m*3 3.32 C 2.14167 km/h
315 05-02-2019 02:00:00 3.41667 C 4.85 g/m*3 3.42 C 3.46667 km/h
316 05-02-2019 03:00:00 3.6 C 4.82 g/m*3 3.6 C 1.06667 km/h
317 05-02-2019 04:00:00 3.44167 C 4.83 g/m*3 3.44 C 3.75 km/h
318 05-02-2019 05:00:00 3.65 C 4.76 g/m*3 2.36 C 5.49167 km/h
319 05-02-2019 06:00:00 3.39167 C 4.97 g/m*3 3.39 C 0.93333 km/h
320 05-02-2019 07:00:00 2.98333 C 5.04 g/m*3 2.98 C 0.13333 km/h
321 05-02-2019 08:00:00 2.98333 C 5.05 g/m*3 2.98 C 0.53333 km/h
322 05-02-2019 09:00:00 3.58333 C 4.97 g/m*3 2.23 C 5.61667 km/h
323 05-02-2019 10:00:00 4.175 C 5.02 g/m*3 2.68 C 6.28333 km/h
324 05-02-2019 11:00:00 5.00833 C 5.15 g/m*3 3.47 C 6.83333 km/h
325 05-02-2019 12:00:00 5.85833 C 5.37 g/m*3 4.49 C 6.70833 km/h
Sensor: Nr:Datum:Temp:Abs-Feuchte:Windchill:Wind:
Aussen-T/F 326 05-02-2019 13:00:00 6.30833 C 5.44 g/m*3 4.94 C 6.975 km/h
327 05-02-2019 14:00:00 6.73333 C 5.55 g/m*3 5.47 C 6.85833 km/h
328 05-02-2019 15:00:00 7.03333 C 5.71 g/m*3 7.03 C 4.8 km/h
329 05-02-2019 16:00:00 6.83333 C 5.86 g/m*3 6.83 C 2 km/h
330 05-02-2019 17:00:00 6.15833 C 6.08 g/m*3 6.16 C 0.4 km/h
331 05-02-2019 18:00:00 5.15833 C 5.92 g/m*3 5.16 C 0.26667 km/h
332 05-02-2019 19:00:00 4.75 C 5.85 g/m*3 4.75 C 0.53333 km/h
333 05-02-2019 20:00:00 4.35 C 5.74 g/m*3 4.35 C 0.93333 km/h
334 05-02-2019 21:00:00 4.10833 C 5.72 g/m*3 4.11 C 1.46667 km/h
335 05-02-2019 22:00:00 2.69167 C 5.22 g/m*3 2.69 C 4.66667 km/h
336 05-02-2019 23:00:00 1.725 C 5 g/m*3 1.73 C 2.66667 km/h
337 06-02-2019 00:00:00 0.43333 C 4.62 g/m*3 0.43 C 0 km/h
338 06-02-2019 01:00:00 -0.225 C 4.48 g/m*3 -0.23 C 0 km/h
339 06-02-2019 02:00:00 -0.675 C 4.37 g/m*3 -0.68 C 0 km/h
340 06-02-2019 03:00:00 -1.16667 C 4.24 g/m*3 -1.17 C 0 km/h
341 06-02-2019 04:00:00 -1.425 C 4.17 g/m*3 -1.43 C 0 km/h
342 06-02-2019 05:00:00 -1.59167 C 4.12 g/m*3 -1.59 C 0 km/h
343 06-02-2019 06:00:00 -1.76667 C 4.07 g/m*3 -1.77 C 0 km/h
344 06-02-2019 07:00:00 -1.975 C 4.01 g/m*3 -1.98 C 0.13333 km/h
345 06-02-2019 08:00:00 -2.21667 C 3.97 g/m*3 -2.22 C 0.13333 km/h
346 06-02-2019 09:00:00 -1.36667 C 4.23 g/m*3 -1.37 C 0 km/h
347 06-02-2019 10:00:00 0.10833 C 4.69 g/m*3 0.11 C 0.66667 km/h
348 06-02-2019 11:00:00 1.675 C 5.13 g/m*3 1.68 C 1.06667 km/h
349 06-02-2019 12:00:00 2.98333 C 5.41 g/m*3 2.98 C 0.4 km/h
350 06-02-2019 13:00:00 4.15 C 5.6 g/m*3 4.15 C 2.94167 km/h
Sensor: Nr:Datum:Temp:Abs-Feuchte:Windchill:Wind:
Aussen-T/F 351 06-02-2019 14:00:00 5.675 C 5.05 g/m*3 3.45 C 10.08333 km/h
352 06-02-2019 15:00:00 5.975 C 5.24 g/m*3 5.98 C 2.26667 km/h
353 06-02-2019 16:00:00 5.13333 C 5.35 g/m*3 5.13 C 1.86667 km/h
354 06-02-2019 17:00:00 3.79167 C 5.14 g/m*3 2.58 C 5.33333 km/h
355 06-02-2019 18:00:00 2.64167 C 4.99 g/m*3 2.64 C 2.66667 km/h
356 06-02-2019 19:00:00 2.14167 C 5.01 g/m*3 2.14 C 0 km/h
357 06-02-2019 20:00:00 1.91667 C 4.95 g/m*3 1.92 C 0 km/h
358 06-02-2019 21:00:00 1.53333 C 4.9 g/m*3 1.53 C 0 km/h
359 06-02-2019 22:00:00 1.21667 C 4.83 g/m*3 1.22 C 0 km/h
360 06-02-2019 23:00:00 1.26667 C 4.86 g/m*3 1.27 C 0 km/h
361 07-02-2019 00:00:00 0.90833 C 4.73 g/m*3 0.91 C 0 km/h
362 07-02-2019 01:00:00 1.20833 C 4.84 g/m*3 1.21 C 0 km/h
363 07-02-2019 02:00:00 1.44167 C 4.89 g/m*3 1.44 C 0 km/h
364 07-02-2019 03:00:00 1.73333 C 5 g/m*3 1.73 C 0.26667 km/h
365 07-02-2019 04:00:00 2.33333 C 5.14 g/m*3 2.33 C 0.4 km/h
366 07-02-2019 05:00:00 2.65833 C 5.29 g/m*3 2.66 C 4.01667 km/h
367 07-02-2019 06:00:00 3.00833 C 5.26 g/m*3 3.01 C 3.06667 km/h
368 07-02-2019 07:00:00 3.5 C 5.5 g/m*3 3.5 C 0.13333 km/h
369 07-02-2019 08:00:00 3.99167 C 5.87 g/m*3 3.99 C 0.93333 km/h
370 07-02-2019 09:00:00 4.53333 C 6.24 g/m*3 4.53 C 0.66667 km/h
371 07-02-2019 10:00:00 5.175 C 6.54 g/m*3 5.18 C 0 km/h
372 07-02-2019 11:00:00 5.675 C 6.8 g/m*3 5.68 C 3.475 km/h
373 07-02-2019 12:00:00 6.775 C 7.26 g/m*3 4.34 C 12.36667 km/h
374 07-02-2019 13:00:00 7.54167 C 7.3 g/m*3 4.77 C 15.83333 km/h
375 07-02-2019 14:00:00 8.09167 C 7.08 g/m*3 5.49 C 15.56667 km/h
Sensor: Nr:Datum:Temp:Abs-Feuchte:Windchill:Wind:
Aussen-T/F 376 07-02-2019 15:00:00 8.53333 C 6.92 g/m*3 5.95 C 16.23333 km/h
377 07-02-2019 16:00:00 8.59167 C 6.81 g/m*3 6.68 C 11.56667 km/h
378 07-02-2019 17:00:00 7.51667 C 6.58 g/m*3 7.52 C 4.41667 km/h
379 07-02-2019 18:00:00 6.6 C 6.33 g/m*3 5.87 C 5.075 km/h
380 07-02-2019 19:00:00 6.65 C 6.14 g/m*3 5.41 C 6.7 km/h
381 07-02-2019 20:00:00 6.28333 C 6.14 g/m*3 6.28 C 4.275 km/h
382 07-02-2019 21:00:00 6.9 C 6.33 g/m*3 4.86 C 10.35 km/h
383 07-02-2019 22:00:00 6.44167 C 6.14 g/m*3 4.82 C 8.05 km/h
384 07-02-2019 23:00:00 6.2 C 6.21 g/m*3 4.31 C 8.98333 km/h
385 08-02-2019 00:00:00 5.525 C 6.14 g/m*3 3.91 C 7.39167 km/h
386 08-02-2019 01:00:00 5.89167 C 6.23 g/m*3 4.58 C 6.55833 km/h
387 08-02-2019 02:00:00 5.8 C 6.22 g/m*3 3.71 C 9.53333 km/h
388 08-02-2019 03:00:00 5.75 C 6.25 g/m*3 4.62 C 5.9 km/h
389 08-02-2019 04:00:00 6.28333 C 6.38 g/m*3 4.26 C 9.69167 km/h
390 08-02-2019 05:00:00 6.4 C 6.41 g/m*3 5.2 C 6.44167 km/h
391 08-02-2019 06:00:00 6.325 C 6.43 g/m*3 6.33 C 2.95 km/h
392 08-02-2019 07:00:00 6.38333 C 6.46 g/m*3 5.39 C 5.75833 km/h
393 08-02-2019 08:00:00 6.675 C 6.52 g/m*3 5.48 C 6.56667 km/h
394 08-02-2019 09:00:00 7.05 C 6.65 g/m*3 7.05 C 4.41667 km/h
395 08-02-2019 10:00:00 7.425 C 6.78 g/m*3 6 C 7.925 km/h
396 08-02-2019 11:00:00 8.45 C 7.01 g/m*3 7.57 C 6.425 km/h
397 08-02-2019 12:00:00 9.44167 C 7.21 g/m*3 8.07 C 9.425 km/h
398 08-02-2019 13:00:00 9.21667 C 7.11 g/m*3 7.78 C 9.54167 km/h
399 08-02-2019 14:00:00 8.40833 C 6.94 g/m*3 6.98 C 8.75 km/h
400 08-02-2019 15:00:00 8.25 C 6.95 g/m*3 7.16 C 7.10833 km/h
Sensor: Nr:Datum:Temp:Abs-Feuchte:Windchill:Wind:
Aussen-T/F 401 08-02-2019 16:00:00 8.28333 C 6.97 g/m*3 7.73 C 5.225 km/h
402 08-02-2019 17:00:00 8.21667 C 6.87 g/m*3 7.66 C 5.225 km/h
403 08-02-2019 18:00:00 8.06667 C 6.84 g/m*3 8.07 C 4.675 km/h
404 08-02-2019 19:00:00 8.21667 C 6.79 g/m*3 7.7 C 5.1 km/h
405 08-02-2019 20:00:00 8.23333 C 6.74 g/m*3 7.64 C 5.35 km/h
406 08-02-2019 21:00:00 8.075 C 6.65 g/m*3 7.17 C 6.30833 km/h
407 08-02-2019 22:00:00 7.75833 C 6.57 g/m*3 7.76 C 3.34167 km/h
408 08-02-2019 23:00:00 8.1 C 6.59 g/m*3 7.24 C 6.16667 km/h
409 09-02-2019 00:00:00 8.29167 C 6.56 g/m*3 7.62 C 5.61667 km/h
410 09-02-2019 01:00:00 7.79167 C 6.64 g/m*3 7.79 C 3.2 km/h
411 09-02-2019 02:00:00 7.475 C 6.83 g/m*3 5.43 C 10.98333 km/h
412 09-02-2019 03:00:00 8.075 C 7 g/m*3 5.76 C 13.43333 km/h
413 09-02-2019 04:00:00 8.90833 C 7.19 g/m*3 5.58 C 24.525 km/h
414 09-02-2019 05:00:00 8.25833 C 7.03 g/m*3 5.89 C 14.09167 km/h
415 09-02-2019 06:00:00 7.8 C 6.76 g/m*3 5.57 C 12.5 km/h
416 09-02-2019 07:00:00 7.49167 C 6.85 g/m*3 4.8 C 15.16667 km/h
417 09-02-2019 08:00:00 7.225 C 6.79 g/m*3 4.7 C 13.56667 km/h
418 09-02-2019 09:00:00 7.73333 C 6.69 g/m*3 4.71 C 18.23333 km/h
419 09-02-2019 10:00:00 8.85 C 6.93 g/m*3 6.14 C 17.96667 km/h
420 09-02-2019 11:00:00 9.30833 C 6.98 g/m*3 6.89 C 16.36667 km/h
421 09-02-2019 12:00:00 9.975 C 6.93 g/m*3 7.69 C 16.63333 km/h
422 09-02-2019 13:00:00 10.73333 C 6.9 g/m*3 8.34 C 19.56667 km/h
423 09-02-2019 14:00:00 11.125 C 6.83 g/m*3 11.13 C 20.51667 km/h
424 09-02-2019 15:00:00 10.60833 C 6.68 g/m*3 8.6 C 15.56667 km/h
425 09-02-2019 16:00:00 10.06667 C 6.79 g/m*3 7.94 C 15.43333 km/h
Sensor: Nr:Datum:Temp:Abs-Feuchte:Windchill:Wind:
Aussen-T/F 426 09-02-2019 17:00:00 9.375 C 6.68 g/m*3 7.06 C 15.7 km/h
427 09-02-2019 18:00:00 8.54167 C 6.69 g/m*3 6.24 C 14.1 km/h
428 09-02-2019 19:00:00 7.86667 C 6.95 g/m*3 5.47 C 13.7 km/h
429 09-02-2019 20:00:00 7.25 C 6.75 g/m*3 5.47 C 9.4 km/h
430 09-02-2019 21:00:00 7.60833 C 6.93 g/m*3 5.07 C 14.23333 km/h
431 09-02-2019 22:00:00 8.15833 C 6.99 g/m*3 5.84 C 13.56667 km/h
432 09-02-2019 23:00:00 8.625 C 7.06 g/m*3 5.78 C 18.64167 km/h
433 10-02-2019 00:00:00 8.61667 C 7.05 g/m*3 6.89 C 10.48333 km/h
434 10-02-2019 01:00:00 7.85 C 6.87 g/m*3 7.85 C 2 km/h
435 10-02-2019 02:00:00 7.41667 C 6.74 g/m*3 7.42 C 2.26667 km/h
436 10-02-2019 03:00:00 7.60833 C 6.78 g/m*3 7.61 C 3.46667 km/h
437 10-02-2019 04:00:00 6.98333 C 7 g/m*3 6.98 C 3.86667 km/h
438 10-02-2019 05:00:00 6.95833 C 7.24 g/m*3 6.1 C 5.61667 km/h
439 10-02-2019 06:00:00 7.625 C 7.59 g/m*3 6.33 C 7.50833 km/h
440 10-02-2019 07:00:00 8.38333 C 7.91 g/m*3 6.84 C 9.26667 km/h
441 10-02-2019 08:00:00 8.79167 C 7.98 g/m*3 7.13 C 10.34167 km/h
442 10-02-2019 09:00:00 9.49167 C 8.1 g/m*3 7.61 C 12.625 km/h
443 10-02-2019 10:00:00 10.05833 C 8.36 g/m*3 7.74 C 17.175 km/h
444 10-02-2019 11:00:00 9.725 C 8.38 g/m*3 7.34 C 17.03333 km/h
445 10-02-2019 12:00:00 9.65833 C 8.43 g/m*3 7.31 C 16.5 km/h
446 10-02-2019 13:00:00 9.775 C 8.5 g/m*3 7.37 C 17.3 km/h
447 10-02-2019 14:00:00 9.45833 C 8.22 g/m*3 7.05 C 16.63333 km/h
448 10-02-2019 15:00:00 8.78333 C 7.53 g/m*3 5.67 C 21.7 km/h
449 10-02-2019 16:00:00 8.48333 C 7.41 g/m*3 5.54 C 19.3 km/h
450 10-02-2019 17:00:00 7.95 C 7.11 g/m*3 4.48 C 23.05833 km/h
Sensor: Nr:Datum:Temp:Abs-Feuchte:Windchill:Wind:
Aussen-T/F 451 10-02-2019 18:00:00 6.475 C 6.75 g/m*3 3.66 C 14.36667 km/h
452 10-02-2019 19:00:00 6.41667 C 6.58 g/m*3 3.32 C 16.23333 km/h
453 10-02-2019 20:00:00 6.68333 C 6.65 g/m*3 3.4 C 18.24167 km/h
454 10-02-2019 21:00:00 6.14167 C 6.49 g/m*3 2.93 C 16.63333 km/h
455 10-02-2019 22:00:00 6.14167 C 6.14 g/m*3 2.08 C 23.99167 km/h
456 10-02-2019 23:00:00 5.58333 C 6.03 g/m*3 1.58 C 21.975 km/h
457 11-02-2019 00:00:00 4.96667 C 6.03 g/m*3 1.3 C 17.83333 km/h
458 11-02-2019 01:00:00 4.3 C 5.99 g/m*3 1.31 C 12.5 km/h
459 11-02-2019 02:00:00 3.93333 C 5.9 g/m*3 1.31 C 10.34167 km/h
460 11-02-2019 03:00:00 3.8 C 5.86 g/m*3 1.5 C 8.85833 km/h
461 11-02-2019 04:00:00 3.60833 C 5.81 g/m*3 2.02 C 6.29167 km/h
462 11-02-2019 05:00:00 3.85 C 5.92 g/m*3 2.3 C 6.29167 km/h
463 11-02-2019 06:00:00 3.825 C 5.91 g/m*3 2.14 C 6.69167 km/h
464 11-02-2019 07:00:00 4.06667 C 5.92 g/m*3 2.06 C 7.93333 km/h
465 11-02-2019 08:00:00 4.09167 C 5.82 g/m*3 3.02 C 5.075 km/h
466 11-02-2019 09:00:00 4.20833 C 5.8 g/m*3 2.67 C 6.43333 km/h
467 11-02-2019 10:00:00 4.98333 C 5.86 g/m*3 2.71 C 9.675 km/h
468 11-02-2019 11:00:00 5.94167 C 5.93 g/m*3 3.41 C 11.95833 km/h
469 11-02-2019 12:00:00 6.61667 C 5.93 g/m*3 4.15 C 12.36667 km/h
470 11-02-2019 13:00:00 7.29167 C 5.88 g/m*3 4.57 C 15.03333 km/h
471 11-02-2019 14:00:00 7.35833 C 5.78 g/m*3 5.23 C 11.3 km/h
472 11-02-2019 15:00:00 7.35833 C 5.85 g/m*3 5.33 C 10.75833 km/h
473 11-02-2019 16:00:00 6.90833 C 6.08 g/m*3 4.79 C 10.74167 km/h
474 11-02-2019 17:00:00 6.2 C 6.16 g/m*3 4.85 C 6.83333 km/h
475 11-02-2019 18:00:00 5.73333 C 5.66 g/m*3 3.76 C 8.99167 km/h
Sensor: Nr:Datum:Temp:Abs-Feuchte:Windchill:Wind:
Aussen-T/F 476 11-02-2019 19:00:00 4.83333 C 5.69 g/m*3 3.61 C 5.75833 km/h
477 11-02-2019 20:00:00 4.15833 C 5.62 g/m*3 4.16 C 3.875 km/h
478 11-02-2019 21:00:00 3.45 C 5.43 g/m*3 3.45 C 3.6 km/h
479 11-02-2019 22:00:00 2.76667 C 5.27 g/m*3 2.77 C 2.26667 km/h
480 11-02-2019 23:00:00 2.56667 C 5.29 g/m*3 2.57 C 1.46667 km/h
481 12-02-2019 00:00:00 3.125 C 5.39 g/m*3 3.13 C 2.66667 km/h
482 12-02-2019 01:00:00 3.05833 C 5.36 g/m*3 3.06 C 0.66667 km/h
483 12-02-2019 02:00:00 2.8 C 5.33 g/m*3 2.8 C 2.4 km/h
484 12-02-2019 03:00:00 2.63333 C 5.26 g/m*3 2.63 C 3.33333 km/h
485 12-02-2019 04:00:00 2.48333 C 5.24 g/m*3 2.48 C 3.06667 km/h
486 12-02-2019 05:00:00 2.63333 C 5.25 g/m*3 2.63 C 3.20833 km/h
487 12-02-2019 06:00:00 2.4 C 5.14 g/m*3 0.88 C 5.61667 km/h
488 12-02-2019 07:00:00 2.41667 C 5.14 g/m*3 0.8 C 5.875 km/h
489 12-02-2019 08:00:00 2.275 C 5.1 g/m*3 0.84 C 5.35 km/h
490 12-02-2019 09:00:00 2.98333 C 5.27 g/m*3 1.55 C 5.60833 km/h
491 12-02-2019 10:00:00 3.95833 C 5.47 g/m*3 1.89 C 8.08333 km/h
492 12-02-2019 11:00:00 4.65833 C 5.59 g/m*3 2.9 C 7.39167 km/h
493 12-02-2019 12:00:00 5.44167 C 5.75 g/m*3 3.74 C 7.65 km/h
494 12-02-2019 13:00:00 6.30833 C 5.88 g/m*3 4.56 C 8.45833 km/h
495 12-02-2019 14:00:00 6.875 C 5.9 g/m*3 4.68 C 11.16667 km/h
496 12-02-2019 15:00:00 7.05 C 5.89 g/m*3 5.23 C 9.40833 km/h
497 12-02-2019 16:00:00 7.425 C 5.96 g/m*3 5.56 C 9.95833 km/h
498 12-02-2019 17:00:00 6.55833 C 5.82 g/m*3 5.68 C 5.49167 km/h
499 12-02-2019 18:00:00 4.35833 C 5.51 g/m*3 4.36 C 4.13333 km/h
500 12-02-2019 19:00:00 3.025 C 5.27 g/m*3 3.03 C 3.2 km/h
Sensor: Nr:Datum:Temp:Abs-Feuchte:Windchill:Wind:
Aussen-T/F 501 12-02-2019 20:00:00 2.33333 C 5.13 g/m*3 2.33 C 3.33333 km/h
502 12-02-2019 21:00:00 1.59167 C 4.95 g/m*3 1.59 C 3.2 km/h
503 12-02-2019 22:00:00 1.41667 C 4.96 g/m*3 -0.3 C 5.75833 km/h
504 12-02-2019 23:00:00 1.375 C 4.97 g/m*3 1.38 C 4.26667 km/h
505 13-02-2019 00:00:00 1.25 C 4.91 g/m*3 1.25 C 4.13333 km/h
506 13-02-2019 01:00:00 0.85833 C 4.79 g/m*3 0.86 C 2.4 km/h
507 13-02-2019 02:00:00 0.125 C 4.57 g/m*3 0.13 C 2.26667 km/h
508 13-02-2019 03:00:00 -0.31667 C 4.46 g/m*3 -0.32 C 2 km/h
509 13-02-2019 04:00:00 -0.33333 C 4.48 g/m*3 -0.33 C 1.6 km/h
510 13-02-2019 05:00:00 -0.46667 C 4.46 g/m*3 -0.47 C 2 km/h
511 13-02-2019 06:00:00 -0.45 C 4.47 g/m*3 -0.45 C 1.33333 km/h
512 13-02-2019 07:00:00 0.26667 C 4.74 g/m*3 0.27 C 0.53333 km/h
513 13-02-2019 08:00:00 0.66667 C 4.85 g/m*3 0.67 C 0.8 km/h
514 13-02-2019 09:00:00 1.00833 C 4.94 g/m*3 1.01 C 2 km/h
515 13-02-2019 10:00:00 1.60833 C 5.07 g/m*3 1.61 C 2.8 km/h
516 13-02-2019 11:00:00 2.325 C 5.19 g/m*3 2.33 C 0.8 km/h
517 13-02-2019 12:00:00 3.58333 C 5.52 g/m*3 3.58 C 1.6 km/h
518 13-02-2019 13:00:00 4.89167 C 5.71 g/m*3 4.89 C 4.13333 km/h
519 13-02-2019 14:00:00 5.41667 C 5.8 g/m*3 5.42 C 4.4 km/h
520 13-02-2019 15:00:00 5.6 C 5.88 g/m*3 5.6 C 2.66667 km/h
521 13-02-2019 16:00:00 5.54167 C 6.04 g/m*3 5.54 C 0 km/h
522 13-02-2019 17:00:00 4.69167 C 5.89 g/m*3 4.69 C 0.93333 km/h
523 13-02-2019 18:00:00 3.20833 C 5.46 g/m*3 3.21 C 0.66667 km/h
524 13-02-2019 19:00:00 1.85 C 5.04 g/m*3 1.85 C 0 km/h
525 13-02-2019 20:00:00 1.15 C 4.87 g/m*3 1.15 C 0 km/h
Sensor: Nr:Datum:Temp:Abs-Feuchte:Windchill:Wind:
Aussen-T/F 526 13-02-2019 21:00:00 0.55833 C 4.65 g/m*3 0.56 C 0.13333 km/h
527 13-02-2019 22:00:00 0.125 C 4.55 g/m*3 0.13 C 0.13333 km/h
528 13-02-2019 23:00:00 -0.45 C 4.37 g/m*3 -0.45 C 0 km/h
529 14-02-2019 00:00:00 -0.71667 C 4.3 g/m*3 -0.72 C 0 km/h
530 14-02-2019 01:00:00 -1.05833 C 4.23 g/m*3 -1.06 C 0 km/h
531 14-02-2019 02:00:00 -1.1 C 4.23 g/m*3 -1.1 C 0 km/h
532 14-02-2019 03:00:00 -1.53333 C 4.1 g/m*3 -1.53 C 0.13333 km/h
533 14-02-2019 04:00:00 -1.775 C 4.06 g/m*3 -1.78 C 0 km/h
534 14-02-2019 05:00:00 -1.96667 C 4.01 g/m*3 -1.97 C 0 km/h
535 14-02-2019 06:00:00 -2.45 C 3.88 g/m*3 -2.45 C 0 km/h
536 14-02-2019 07:00:00 -2.65 C 3.83 g/m*3 -2.65 C 0 km/h
537 14-02-2019 08:00:00 -2.43333 C 3.91 g/m*3 -2.43 C 0.4 km/h
538 14-02-2019 09:00:00 -2.08333 C 4.02 g/m*3 -2.08 C 0.53333 km/h
539 14-02-2019 10:00:00 -1.69167 C 4.14 g/m*3 -1.69 C 0.4 km/h
540 14-02-2019 11:00:00 -0.9 C 4.39 g/m*3 -0.9 C 0.26667 km/h
541 14-02-2019 12:00:00 0.675 C 4.92 g/m*3 0.68 C 0.66667 km/h
542 14-02-2019 13:00:00 2.75833 C 5.67 g/m*3 2.76 C 0.4 km/h
543 14-02-2019 14:00:00 4.65833 C 6.28 g/m*3 4.66 C 0.53333 km/h
544 14-02-2019 15:00:00 6.48333 C 6.77 g/m*3 6.48 C 1.2 km/h
545 14-02-2019 16:00:00 6.08333 C 6.43 g/m*3 6.08 C 0 km/h
546 14-02-2019 17:00:00 5.625 C 6.22 g/m*3 5.63 C 0 km/h
547 14-02-2019 18:00:00 4.58333 C 5.72 g/m*3 4.58 C 0 km/h
548 14-02-2019 19:00:00 3.30833 C 5.17 g/m*3 3.31 C 0 km/h
549 14-02-2019 20:00:00 2.78333 C 5.09 g/m*3 2.78 C 0 km/h
550 14-02-2019 21:00:00 1.55 C 4.82 g/m*3 1.55 C 0 km/h
Sensor: Nr:Datum:Temp:Abs-Feuchte:Windchill:Wind:
Aussen-T/F 551 14-02-2019 22:00:00 0.49167 C 4.57 g/m*3 0.49 C 0 km/h
552 14-02-2019 23:00:00 -0.05833 C 4.48 g/m*3 -0.06 C 0 km/h
553 15-02-2019 00:00:00 -0.55 C 4.37 g/m*3 -0.55 C 0 km/h
554 15-02-2019 01:00:00 -0.93333 C 4.28 g/m*3 -0.93 C 0 km/h
555 15-02-2019 02:00:00 -1.15 C 4.24 g/m*3 -1.15 C 0 km/h
556 15-02-2019 03:00:00 -1.40833 C 4.17 g/m*3 -1.41 C 0 km/h
557 15-02-2019 04:00:00 -1.50833 C 4.14 g/m*3 -1.51 C 0 km/h
558 15-02-2019 05:00:00 -1.88333 C 4.04 g/m*3 -1.88 C 0 km/h
559 15-02-2019 06:00:00 -2.075 C 3.99 g/m*3 -2.08 C 0 km/h
560 15-02-2019 07:00:00 -2.4 C 3.89 g/m*3 -2.4 C 0 km/h
561 15-02-2019 08:00:00 -2.2 C 3.99 g/m*3 -2.2 C 0 km/h
562 15-02-2019 09:00:00 -1.69167 C 4.14 g/m*3 -1.69 C 0 km/h
563 15-02-2019 10:00:00 -0.7 C 4.44 g/m*3 -0.7 C 0 km/h
564 15-02-2019 11:00:00 1.26667 C 5.13 g/m*3 1.27 C 0 km/h
565 15-02-2019 12:00:00 3.41667 C 5.91 g/m*3 3.42 C 0 km/h
566 15-02-2019 13:00:00 5.93333 C 6.62 g/m*3 5.93 C 2.4 km/h
567 15-02-2019 14:00:00 8.25833 C 6.95 g/m*3 7.71 C 5.2 km/h
568 15-02-2019 15:00:00 9.58333 C 7.08 g/m*3 9.14 C 5.46667 km/h
569 15-02-2019 16:00:00 10.65833 C 6.75 g/m*3 10.19 C 6.13333 km/h
570 15-02-2019 17:00:00 9.35833 C 6.46 g/m*3 8.56 C 6.68333 km/h
571 15-02-2019 18:00:00 7.275 C 6 g/m*3 6.38 C 5.86667 km/h
572 15-02-2019 19:00:00 6.16667 C 5.85 g/m*3 6.17 C 4.26667 km/h
573 15-02-2019 20:00:00 4.46667 C 5.54 g/m*3 4.47 C 0.53333 km/h
574 15-02-2019 21:00:00 3.15833 C 5.3 g/m*3 3.16 C 0 km/h
575 15-02-2019 22:00:00 1.85 C 4.97 g/m*3 1.85 C 0 km/h
Sensor: Nr:Datum:Temp:Abs-Feuchte:Windchill:Wind:
Aussen-T/F 576 15-02-2019 23:00:00 1.23333 C 4.86 g/m*3 1.23 C 0 km/h
577 16-02-2019 00:00:00 0.41667 C 4.63 g/m*3 0.42 C 0 km/h
578 16-02-2019 01:00:00 -0.15 C 4.5 g/m*3 -0.15 C 0 km/h
579 16-02-2019 02:00:00 -0.48333 C 4.42 g/m*3 -0.48 C 0.53333 km/h
580 16-02-2019 03:00:00 -0.75833 C 4.36 g/m*3 -0.76 C 0.13333 km/h
581 16-02-2019 04:00:00 -0.925 C 4.32 g/m*3 -0.93 C 0.13333 km/h
582 16-02-2019 05:00:00 -1.11667 C 4.27 g/m*3 -1.12 C 1.06667 km/h
583 16-02-2019 06:00:00 -1.20833 C 4.25 g/m*3 -1.21 C 0.8 km/h
584 16-02-2019 07:00:00 -1.64167 C 4.11 g/m*3 -1.64 C 0.13333 km/h
585 16-02-2019 08:00:00 -1.78333 C 4.09 g/m*3 -1.78 C 0.13333 km/h
586 16-02-2019 09:00:00 -1.09167 C 4.31 g/m*3 -1.09 C 0 km/h
587 16-02-2019 10:00:00 -0.225 C 4.6 g/m*3 -0.23 C 0 km/h
588 16-02-2019 11:00:00 2.175 C 5.45 g/m*3 2.17 C 0.53333 km/h
589 16-02-2019 12:00:00 4.96667 C 6.57 g/m*3 4.97 C 1.06667 km/h
590 16-02-2019 13:00:00 7.85833 C 7.37 g/m*3 7.86 C 2.26667 km/h
591 16-02-2019 14:00:00 10.66667 C 7.56 g/m*3 10.67 C 0 km/h
592 16-02-2019 15:00:00 11.75833 C 7.33 g/m*3 11.76 C 4 km/h
593 16-02-2019 16:00:00 11.88333 C 7.11 g/m*3 11.88 C 2.4 km/h
594 16-02-2019 17:00:00 10.69167 C 6.87 g/m*3 10.69 C 4 km/h
595 16-02-2019 18:00:00 8.74167 C 6.63 g/m*3 8.02 C 6 km/h
596 16-02-2019 19:00:00 7.29167 C 6.4 g/m*3 7.29 C 2 km/h
597 16-02-2019 20:00:00 5.41667 C 5.88 g/m*3 5.42 C 0 km/h
598 16-02-2019 21:00:00 3.75833 C 5.54 g/m*3 3.76 C 0 km/h
599 16-02-2019 22:00:00 2.8 C 5.35 g/m*3 2.8 C 0 km/h
600 16-02-2019 23:00:00 1.95833 C 5.15 g/m*3 1.96 C 0 km/h
Sensor: Nr:Datum:Temp:Abs-Feuchte:Windchill:Wind:
Aussen-T/F 601 17-02-2019 00:00:00 1.55 C 5.07 g/m*3 1.55 C 0 km/h
602 17-02-2019 01:00:00 0.86667 C 4.85 g/m*3 0.87 C 0 km/h
603 17-02-2019 02:00:00 0.34167 C 4.71 g/m*3 0.34 C 0 km/h
604 17-02-2019 03:00:00 0.09167 C 4.65 g/m*3 0.09 C 0 km/h
605 17-02-2019 04:00:00 -0.36667 C 4.5 g/m*3 -0.37 C 0 km/h
606 17-02-2019 05:00:00 -0.85833 C 4.36 g/m*3 -0.86 C 0 km/h
607 17-02-2019 06:00:00 -0.975 C 4.35 g/m*3 -0.98 C 0.13333 km/h
608 17-02-2019 07:00:00 -1.25 C 4.26 g/m*3 -1.25 C 0 km/h
609 17-02-2019 08:00:00 -1.33333 C 4.24 g/m*3 -1.33 C 0 km/h
610 17-02-2019 09:00:00 -0.81667 C 4.4 g/m*3 -0.82 C 0 km/h
611 17-02-2019 10:00:00 -0.16667 C 4.63 g/m*3 -0.17 C 0 km/h
612 17-02-2019 11:00:00 1.93333 C 5.37 g/m*3 1.93 C 0.13333 km/h
613 17-02-2019 12:00:00 4.73333 C 6.5 g/m*3 4.73 C 0.13333 km/h
614 17-02-2019 13:00:00 7.51667 C 7.74 g/m*3 7.52 C 0.53333 km/h
615 17-02-2019 14:00:00 9.76667 C 7.99 g/m*3 9.77 C 1.33333 km/h
616 17-02-2019 15:00:00 11.19167 C 7.83 g/m*3 11.19 C 3.06667 km/h
617 17-02-2019 16:00:00 11.94167 C 7.56 g/m*3 11.94 C 2.26667 km/h
618 17-02-2019 17:00:00 11 C 7.26 g/m*3 10.59 C 6.13333 km/h
619 17-02-2019 18:00:00 8.59167 C 6.56 g/m*3 8.59 C 4.8 km/h
620 17-02-2019 19:00:00 6.73333 C 6.1 g/m*3 6.73 C 1.86667 km/h
621 17-02-2019 20:00:00 4.69167 C 5.63 g/m*3 4.69 C 0 km/h
622 17-02-2019 21:00:00 3.65 C 5.43 g/m*3 3.65 C 0.13333 km/h
623 17-02-2019 22:00:00 2.375 C 5.11 g/m*3 2.38 C 0 km/h
624 17-02-2019 23:00:00 1.7 C 4.99 g/m*3 1.7 C 0 km/h
625 18-02-2019 00:00:00 1.46667 C 4.91 g/m*3 1.47 C 0 km/h
Sensor: Nr:Datum:Temp:Abs-Feuchte:Windchill:Wind:
Aussen-T/F 626 18-02-2019 01:00:00 0.49167 C 4.64 g/m*3 0.49 C 0 km/h
627 18-02-2019 02:00:00 0.08333 C 4.57 g/m*3 0.08 C 0.13333 km/h
628 18-02-2019 03:00:00 -0.41667 C 4.43 g/m*3 -0.42 C 0 km/h
629 18-02-2019 04:00:00 -0.775 C 4.34 g/m*3 -0.78 C 0 km/h
630 18-02-2019 05:00:00 -1.21667 C 4.23 g/m*3 -1.22 C 0 km/h
631 18-02-2019 06:00:00 -1.475 C 4.15 g/m*3 -1.48 C 0 km/h
632 18-02-2019 07:00:00 -1.65 C 4.11 g/m*3 -1.65 C 0 km/h
633 18-02-2019 08:00:00 -1.63333 C 4.13 g/m*3 -1.63 C 0.13333 km/h
634 18-02-2019 09:00:00 -0.56667 C 4.47 g/m*3 -0.57 C 0.66667 km/h
635 18-02-2019 10:00:00 0.19167 C 4.72 g/m*3 0.19 C 0.8 km/h
636 18-02-2019 11:00:00 2.84167 C 5.69 g/m*3 2.84 C 0 km/h
637 18-02-2019 12:00:00 6.04167 C 6.76 g/m*3 6.04 C 0 km/h
638 18-02-2019 13:00:00 9.59167 C 7.36 g/m*3 9.59 C 0 km/h
639 18-02-2019 14:00:00 11.34167 C 7.36 g/m*3 11.34 C 0 km/h
640 18-02-2019 15:00:00 12.05833 C 7.16 g/m*3 12.06 C 0 km/h
641 18-02-2019 16:00:00 11.84167 C 6.81 g/m*3 11.84 C 0 km/h
642 18-02-2019 17:00:00 10.425 C 6.72 g/m*3 10.43 C 0 km/h
643 18-02-2019 18:00:00 8.41667 C 6.35 g/m*3 8.42 C 0 km/h
644 18-02-2019 19:00:00 7 C 6.2 g/m*3 7 C 0 km/h
645 18-02-2019 20:00:00 5.65833 C 5.77 g/m*3 5.66 C 0.4 km/h
646 18-02-2019 21:00:00 4.1 C 5.5 g/m*3 4.1 C 0 km/h
647 18-02-2019 22:00:00 2.76667 C 5.19 g/m*3 2.77 C 0 km/h
648 18-02-2019 23:00:00 2.13333 C 5.09 g/m*3 2.13 C 0 km/h
649 19-02-2019 00:00:00 1.725 C 5.02 g/m*3 1.73 C 0 km/h
650 19-02-2019 01:00:00 1.83333 C 5.1 g/m*3 1.83 C 0 km/h
Sensor: Nr:Datum:Temp:Abs-Feuchte:Windchill:Wind:
Aussen-T/F 651 19-02-2019 02:00:00 1.85 C 5.13 g/m*3 1.85 C 0 km/h
652 19-02-2019 03:00:00 2.34167 C 5.37 g/m*3 2.34 C 0.93333 km/h
653 19-02-2019 04:00:00 3.7 C 5.86 g/m*3 3.7 C 4.41667 km/h
654 19-02-2019 05:00:00 4.04167 C 5.79 g/m*3 4.04 C 2.93333 km/h
655 19-02-2019 06:00:00 4.99167 C 5.96 g/m*3 4.99 C 4.41667 km/h
656 19-02-2019 07:00:00 5.2 C 6.21 g/m*3 5.2 C 2.93333 km/h
657 19-02-2019 08:00:00 4.89167 C 6.27 g/m*3 4.89 C 1.06667 km/h
658 19-02-2019 09:00:00 5.25 C 6.55 g/m*3 4.28 C 5.225 km/h
659 19-02-2019 10:00:00 6.34167 C 7 g/m*3 4.59 C 8.48333 km/h
660 19-02-2019 11:00:00 7.28333 C 7.31 g/m*3 5.93 C 7.53333 km/h
661 19-02-2019 12:00:00 8.71667 C 7.61 g/m*3 8.07 C 5.75833 km/h
662 19-02-2019 13:00:00 9.94167 C 7.5 g/m*3 8.69 C 9.29167 km/h
663 19-02-2019 14:00:00 10.65 C 7.29 g/m*3 9.26 C 10.9 km/h
664 19-02-2019 15:00:00 10.94167 C 7.23 g/m*3 10.05 C 8.34167 km/h
665 19-02-2019 16:00:00 10.9 C 7.18 g/m*3 10.28 C 6.98333 km/h
666 19-02-2019 17:00:00 9.69167 C 6.87 g/m*3 9.69 C 4.15833 km/h
667 19-02-2019 18:00:00 7.28333 C 6.56 g/m*3 7.28 C 4.54167 km/h
668 19-02-2019 19:00:00 6.225 C 6.41 g/m*3 6.23 C 4.13333 km/h
669 19-02-2019 20:00:00 5.44167 C 6.24 g/m*3 5.44 C 3.33333 km/h
670 19-02-2019 21:00:00 4.85 C 6.03 g/m*3 4.85 C 0.53333 km/h
671 19-02-2019 22:00:00 3.46667 C 5.6 g/m*3 3.47 C 0.66667 km/h
672 19-02-2019 23:00:00 3.05 C 5.53 g/m*3 3.05 C 0.66667 km/h
673 20-02-2019 00:00:00 2.6 C 5.4 g/m*3 2.6 C 0.8 km/h
674 20-02-2019 01:00:00 1.78333 C 5.11 g/m*3 1.78 C 0 km/h
675 20-02-2019 02:00:00 1.19167 C 4.96 g/m*3 1.19 C 0.13333 km/h
Sensor: Nr:Datum:Temp:Abs-Feuchte:Windchill:Wind:
Aussen-T/F 676 20-02-2019 03:00:00 1.1 C 4.96 g/m*3 1.1 C 1.2 km/h
677 20-02-2019 04:00:00 0.875 C 4.89 g/m*3 0.88 C 0.66667 km/h
678 20-02-2019 05:00:00 1 C 4.96 g/m*3 1 C 1.06667 km/h
679 20-02-2019 06:00:00 0.86667 C 4.92 g/m*3 0.87 C 0.4 km/h
680 20-02-2019 07:00:00 0.73333 C 4.89 g/m*3 0.73 C 1.2 km/h
681 20-02-2019 08:00:00 1.30833 C 5.11 g/m*3 1.31 C 2.41667 km/h
682 20-02-2019 09:00:00 3.09167 C 5.78 g/m*3 0.06 C 11.43333 km/h
683 20-02-2019 10:00:00 4.40833 C 6.25 g/m*3 1.7 C 11.16667 km/h
684 20-02-2019 11:00:00 6.075 C 6.72 g/m*3 3.9 C 10.225 km/h
685 20-02-2019 12:00:00 7.49167 C 7.04 g/m*3 6.21 C 7.36667 km/h
686 20-02-2019 13:00:00 9.86667 C 7.29 g/m*3 8.2 C 11.7 km/h
687 20-02-2019 14:00:00 10.85833 C 7.37 g/m*3 9.95 C 8.325 km/h
688 20-02-2019 15:00:00 11.08333 C 7.35 g/m*3 11.08 C 6.15833 km/h
689 20-02-2019 16:00:00 11.375 C 7.3 g/m*3 11.38 C 6.84167 km/h
690 20-02-2019 17:00:00 10.35 C 7.12 g/m*3 10.35 C 3.875 km/h
691 20-02-2019 18:00:00 7.29167 C 6.63 g/m*3 7.29 C 3.86667 km/h
692 20-02-2019 19:00:00 6.16667 C 6.43 g/m*3 6.17 C 2.53333 km/h
693 20-02-2019 20:00:00 4.86667 C 6.04 g/m*3 4.87 C 0.26667 km/h
694 20-02-2019 21:00:00 3.775 C 5.73 g/m*3 3.78 C 0 km/h
695 20-02-2019 22:00:00 2.7 C 5.41 g/m*3 2.7 C 0 km/h
696 20-02-2019 23:00:00 2.10833 C 5.28 g/m*3 2.11 C 0.13333 km/h
697 21-02-2019 00:00:00 1.575 C 5.1 g/m*3 1.58 C 0 km/h
698 21-02-2019 01:00:00 1.58333 C 5.14 g/m*3 1.58 C 0.26667 km/h
699 21-02-2019 02:00:00 1.06667 C 4.96 g/m*3 1.07 C 0 km/h
700 21-02-2019 03:00:00 0.74167 C 4.89 g/m*3 0.74 C 0.26667 km/h
Sensor: Nr:Datum:Temp:Abs-Feuchte:Windchill:Wind:
Aussen-T/F 701 21-02-2019 04:00:00 0.91667 C 4.95 g/m*3 0.92 C 1.33333 km/h
702 21-02-2019 05:00:00 1.06667 C 5.02 g/m*3 1.07 C 1.2 km/h
703 21-02-2019 06:00:00 1.25 C 5.08 g/m*3 1.25 C 0.93333 km/h
704 21-02-2019 07:00:00 1.21667 C 5.08 g/m*3 1.22 C 0.4 km/h
705 21-02-2019 08:00:00 2.10833 C 5.43 g/m*3 2.11 C 0.4 km/h
706 21-02-2019 09:00:00 2.84167 C 5.71 g/m*3 2.84 C 0.66667 km/h
707 21-02-2019 10:00:00 3.91667 C 6.13 g/m*3 3.92 C 1.2 km/h
708 21-02-2019 11:00:00 5.725 C 6.76 g/m*3 5.73 C 0.93333 km/h
709 21-02-2019 12:00:00 8.33333 C 7.59 g/m*3 8.33 C 2.94167 km/h
710 21-02-2019 13:00:00 11.3 C 8.35 g/m*3 11.3 C 6.29167 km/h
711 21-02-2019 14:00:00 12.6 C 8.52 g/m*3 12.6 C 6.30833 km/h
712 21-02-2019 15:00:00 13.325 C 8.59 g/m*3 13.33 C 6.44167 km/h
713 21-02-2019 16:00:00 13.34167 C 8.58 g/m*3 13.34 C 5.49167 km/h
714 21-02-2019 17:00:00 12.48333 C 8.77 g/m*3 12.48 C 2.13333 km/h
715 21-02-2019 18:00:00 10.56667 C 8.39 g/m*3 10.57 C 2.4 km/h
716 21-02-2019 19:00:00 9.74167 C 8.06 g/m*3 9.74 C 3.46667 km/h
717 21-02-2019 20:00:00 9.18333 C 7.98 g/m*3 9.18 C 0.53333 km/h
718 21-02-2019 21:00:00 9.325 C 8.15 g/m*3 9.32 C 0.66667 km/h
719 21-02-2019 22:00:00 9.275 C 8.01 g/m*3 9.28 C 0.13333 km/h
720 21-02-2019 23:00:00 9.21667 C 7.99 g/m*3 9.22 C 1.6 km/h
721 22-02-2019 00:00:00 9.575 C 8.12 g/m*3 9.57 C 2.675 km/h
722 22-02-2019 01:00:00 9.76667 C 8.17 g/m*3 9.77 C 0.4 km/h
723 22-02-2019 02:00:00 9.325 C 8.12 g/m*3 9.32 C 0.53333 km/h
724 22-02-2019 03:00:00 9.55 C 8.41 g/m*3 9.55 C 0.53333 km/h
725 22-02-2019 04:00:00 9.66667 C 8.55 g/m*3 9.67 C 0.53333 km/h
Sensor: Nr:Datum:Temp:Abs-Feuchte:Windchill:Wind:
Aussen-T/F 726 22-02-2019 05:00:00 9.34167 C 8.49 g/m*3 9.34 C 0.53333 km/h
727 22-02-2019 06:00:00 9.34167 C 8.56 g/m*3 9.34 C 2.13333 km/h
728 22-02-2019 07:00:00 9.225 C 8.53 g/m*3 9.23 C 0.53333 km/h
729 22-02-2019 08:00:00 9.16667 C 8.55 g/m*3 9.17 C 0.66667 km/h
730 22-02-2019 09:00:00 9.50833 C 8.74 g/m*3 9.51 C 0.13333 km/h
731 22-02-2019 10:00:00 9.93333 C 8.98 g/m*3 9.93 C 0 km/h
732 22-02-2019 11:00:00 10.64167 C 9.28 g/m*3 10.64 C 1.86667 km/h
733 22-02-2019 12:00:00 11.6 C 9.14 g/m*3 11.6 C 5.1 km/h
734 22-02-2019 13:00:00 12.46667 C 9.01 g/m*3 12.47 C 4.26667 km/h
735 22-02-2019 14:00:00 12.83333 C 8.75 g/m*3 12.83 C 2.8 km/h
736 22-02-2019 15:00:00 13.275 C 8.57 g/m*3 13.28 C 1.33333 km/h
737 22-02-2019 16:00:00 12.84167 C 8.24 g/m*3 12.84 C 1.86667 km/h
738 22-02-2019 17:00:00 11.825 C 8.03 g/m*3 11.83 C 0.26667 km/h
739 22-02-2019 18:00:00 9.075 C 7.36 g/m*3 9.07 C 1.73333 km/h
740 22-02-2019 19:00:00 8.55 C 7.38 g/m*3 8.55 C 4.13333 km/h
741 22-02-2019 20:00:00 8.99167 C 7.52 g/m*3 8.99 C 1.46667 km/h
742 22-02-2019 21:00:00 8.475 C 7.35 g/m*3 8.48 C 2.53333 km/h
743 22-02-2019 22:00:00 6.94167 C 6.86 g/m*3 6.94 C 3.06667 km/h
744 22-02-2019 23:00:00 5.95 C 6.63 g/m*3 5.95 C 2.66667 km/h
745 23-02-2019 00:00:00 5.31667 C 6.41 g/m*3 5.32 C 0.8 km/h
746 23-02-2019 01:00:00 4.55 C 6.15 g/m*3 4.55 C 0 km/h
747 23-02-2019 02:00:00 4.18333 C 6.05 g/m*3 4.18 C 0 km/h
748 23-02-2019 03:00:00 3.81667 C 5.96 g/m*3 3.82 C 0.93333 km/h
749 23-02-2019 04:00:00 4.26667 C 6.15 g/m*3 4.27 C 1.33333 km/h
750 23-02-2019 05:00:00 4.525 C 6.16 g/m*3 4.53 C 4.025 km/h
Sensor: Nr:Datum:Temp:Abs-Feuchte:Windchill:Wind:
Aussen-T/F 751 23-02-2019 06:00:00 4.83333 C 6.04 g/m*3 4.83 C 0.93333 km/h
752 23-02-2019 07:00:00 4.79167 C 5.83 g/m*3 4.79 C 1.6 km/h
753 23-02-2019 08:00:00 4.85 C 5.72 g/m*3 4.85 C 3.74167 km/h
754 23-02-2019 09:00:00 4.775 C 5.58 g/m*3 2.75 C 8.48333 km/h
755 23-02-2019 10:00:00 4.95 C 5.54 g/m*3 3.9 C 5.34167 km/h
756 23-02-2019 11:00:00 6.125 C 5.78 g/m*3 5.05 C 5.89167 km/h
757 23-02-2019 12:00:00 7.625 C 5.84 g/m*3 6.17 C 8.20833 km/h
758 23-02-2019 13:00:00 9.05833 C 5.91 g/m*3 7.61 C 9.41667 km/h
759 23-02-2019 14:00:00 10.01667 C 5.59 g/m*3 9.38 C 6.43333 km/h
760 23-02-2019 15:00:00 10.78333 C 4.42 g/m*3 10.58 C 5.21667 km/h
761 23-02-2019 16:00:00 10.71667 C 4.63 g/m*3 10.72 C 3.2 km/h
762 23-02-2019 17:00:00 7.99167 C 5.22 g/m*3 7.99 C 2.13333 km/h
763 23-02-2019 18:00:00 5.45833 C 4.97 g/m*3 5.46 C 0 km/h
764 23-02-2019 19:00:00 4.36667 C 4.82 g/m*3 4.37 C 0 km/h
765 23-02-2019 20:00:00 3.38333 C 4.64 g/m*3 3.38 C 0 km/h
766 23-02-2019 21:00:00 2.03333 C 4.42 g/m*3 2.03 C 0 km/h
767 23-02-2019 22:00:00 0.98333 C 4.29 g/m*3 0.98 C 0 km/h
768 23-02-2019 23:00:00 0.45833 C 4.18 g/m*3 0.46 C 0 km/h
769 24-02-2019 00:00:00 -0.25833 C 4.07 g/m*3 -0.26 C 0 km/h
770 24-02-2019 01:00:00 -0.66667 C 4.03 g/m*3 -0.67 C 0 km/h
771 24-02-2019 02:00:00 -1.16667 C 3.93 g/m*3 -1.17 C 0 km/h
772 24-02-2019 03:00:00 -1.5 C 3.89 g/m*3 -1.5 C 0 km/h
773 24-02-2019 04:00:00 -1.73333 C 3.87 g/m*3 -1.73 C 0 km/h
774 24-02-2019 05:00:00 -1.875 C 3.83 g/m*3 -1.88 C 0 km/h
775 24-02-2019 06:00:00 -2.06667 C 3.8 g/m*3 -2.07 C 0 km/h
Sensor: Nr:Datum:Temp:Abs-Feuchte:Windchill:Wind:
Aussen-T/F 776 24-02-2019 07:00:00 -2.35833 C 3.75 g/m*3 -2.36 C 0 km/h
777 24-02-2019 08:00:00 -2.10833 C 3.85 g/m*3 -2.11 C 0 km/h
778 24-02-2019 09:00:00 -1.49167 C 4.01 g/m*3 -1.49 C 0 km/h
779 24-02-2019 10:00:00 0.36667 C 4.41 g/m*3 0.37 C 0 km/h
780 24-02-2019 11:00:00 4.09167 C 4.98 g/m*3 4.09 C 0 km/h
781 24-02-2019 12:00:00 7.35 C 5.24 g/m*3 7.35 C 0 km/h
782 24-02-2019 13:00:00 10.45833 C 4.27 g/m*3 10.46 C 4.40833 km/h
783 24-02-2019 14:00:00 11.89167 C 3.86 g/m*3 11.89 C 6.7 km/h
784 24-02-2019 15:00:00 12.41667 C 4.27 g/m*3 12.42 C 2.8 km/h
785 24-02-2019 16:00:00 11.80833 C 4.9 g/m*3 11.81 C 3.2 km/h
786 24-02-2019 17:00:00 10.3 C 5.02 g/m*3 10.3 C 0.4 km/h
787 24-02-2019 18:00:00 8.44167 C 4.82 g/m*3 8.44 C 4 km/h
788 24-02-2019 19:00:00 6.86667 C 4.69 g/m*3 6.87 C 3.73333 km/h
789 24-02-2019 20:00:00 4.93333 C 4.49 g/m*3 4.93 C 0.26667 km/h
790 24-02-2019 21:00:00 3.36667 C 4.36 g/m*3 3.37 C 0 km/h
791 24-02-2019 22:00:00 2.54167 C 4.29 g/m*3 2.54 C 0 km/h
792 24-02-2019 23:00:00 1.81667 C 4.23 g/m*3 1.82 C 0 km/h
793 25-02-2019 00:00:00 1.175 C 4.15 g/m*3 1.18 C 0 km/h
794 25-02-2019 01:00:00 0.925 C 4.18 g/m*3 0.93 C 0 km/h
795 25-02-2019 02:00:00 0.13333 C 4.09 g/m*3 0.13 C 0 km/h
796 25-02-2019 03:00:00 -0.00833 C 4.07 g/m*3 -0.01 C 0 km/h
797 25-02-2019 04:00:00 -0.58333 C 4.01 g/m*3 -0.58 C 0 km/h
798 25-02-2019 05:00:00 -0.70833 C 4.02 g/m*3 -0.71 C 0.66667 km/h
799 25-02-2019 06:00:00 -0.86667 C 4.01 g/m*3 -0.87 C 0.13333 km/h
800 25-02-2019 07:00:00 -1.21667 C 3.93 g/m*3 -1.22 C 0 km/h
Sensor: Nr:Datum:Temp:Abs-Feuchte:Windchill:Wind:
Aussen-T/F 801 25-02-2019 08:00:00 -1.2 C 4 g/m*3 -1.2 C 0 km/h
802 25-02-2019 09:00:00 -0.69167 C 4.1 g/m*3 -0.69 C 0 km/h
803 25-02-2019 10:00:00 0.81667 C 4.46 g/m*3 0.82 C 0 km/h
804 25-02-2019 11:00:00 4.675 C 5.17 g/m*3 4.68 C 1.06667 km/h
805 25-02-2019 12:00:00 8.70833 C 5.81 g/m*3 8.71 C 1.06667 km/h
806 25-02-2019 13:00:00 12.55 C 5.88 g/m*3 12.55 C 0.26667 km/h
807 25-02-2019 14:00:00 14.74167 C 5.89 g/m*3 14.74 C 1.86667 km/h
808 25-02-2019 15:00:00 14.175 C 6.05 g/m*3 14.18 C 1.73333 km/h
809 25-02-2019 16:00:00 14.375 C 6.12 g/m*3 14.38 C 2.13333 km/h
810 25-02-2019 17:00:00 13.64167 C 6.24 g/m*3 13.64 C 5.6 km/h
811 25-02-2019 18:00:00 11.1 C 6.03 g/m*3 11.1 C 5.6 km/h
812 25-02-2019 19:00:00 9.075 C 5.92 g/m*3 9.07 C 0.4 km/h
813 25-02-2019 20:00:00 7.04167 C 5.67 g/m*3 7.04 C 0 km/h
814 25-02-2019 21:00:00 5.575 C 5.41 g/m*3 5.58 C 0 km/h
815 25-02-2019 22:00:00 4.55 C 5.24 g/m*3 4.55 C 0 km/h
816 25-02-2019 23:00:00 3.25 C 5.05 g/m*3 3.25 C 0 km/h
817 26-02-2019 00:00:00 2.425 C 4.92 g/m*3 2.42 C 0 km/h
818 26-02-2019 01:00:00 1.93333 C 4.91 g/m*3 1.93 C 0 km/h
819 26-02-2019 02:00:00 1.39167 C 4.78 g/m*3 1.39 C 0 km/h
820 26-02-2019 03:00:00 0.63333 C 4.61 g/m*3 0.63 C 0 km/h
821 26-02-2019 04:00:00 0.325 C 4.56 g/m*3 0.33 C 0 km/h
822 26-02-2019 05:00:00 0.21667 C 4.58 g/m*3 0.22 C 0.8 km/h
823 26-02-2019 06:00:00 -0.31667 C 4.4 g/m*3 -0.32 C 0.13333 km/h
824 26-02-2019 07:00:00 -0.48333 C 4.39 g/m*3 -0.48 C 0.13333 km/h
825 26-02-2019 08:00:00 -0.10833 C 4.54 g/m*3 -0.11 C 0.53333 km/h
Sensor: Nr:Datum:Temp:Abs-Feuchte:Windchill:Wind:
Aussen-T/F 826 26-02-2019 09:00:00 0.80833 C 4.85 g/m*3 0.81 C 0.13333 km/h
827 26-02-2019 10:00:00 2.60833 C 5.47 g/m*3 2.61 C 0.13333 km/h
828 26-02-2019 11:00:00 5.75 C 6.19 g/m*3 5.75 C 0 km/h
829 26-02-2019 12:00:00 9.50833 C 6.6 g/m*3 9.51 C 0 km/h
830 26-02-2019 13:00:00 13.85833 C 7.8 g/m*3 13.86 C 0 km/h
831 26-02-2019 14:00:00 16.15833 C 7.61 g/m*3 16.16 C 0 km/h
832 26-02-2019 15:00:00 15.49167 C 7.3 g/m*3 15.49 C 0 km/h
833 26-02-2019 16:00:00 15.44167 C 7.31 g/m*3 15.44 C 3.33333 km/h
834 26-02-2019 17:00:00 14.75833 C 7.39 g/m*3 14.76 C 6.13333 km/h
835 26-02-2019 18:00:00 12.56667 C 7.02 g/m*3 12.57 C 4.93333 km/h
836 26-02-2019 19:00:00 10.34167 C 6.85 g/m*3 10.34 C 0.53333 km/h
837 26-02-2019 20:00:00 8.18333 C 6.39 g/m*3 8.18 C 0 km/h
838 26-02-2019 21:00:00 6.8 C 6.19 g/m*3 6.8 C 0 km/h
839 26-02-2019 22:00:00 5.61667 C 5.93 g/m*3 5.62 C 0 km/h
840 26-02-2019 23:00:00 4.56667 C 5.74 g/m*3 4.57 C 0 km/h
841 27-02-2019 00:00:00 3.55833 C 5.51 g/m*3 3.56 C 0 km/h
842 27-02-2019 01:00:00 2.85 C 5.36 g/m*3 2.85 C 0 km/h
843 27-02-2019 02:00:00 2.25 C 5.22 g/m*3 2.25 C 0 km/h
844 27-02-2019 03:00:00 1.45833 C 4.98 g/m*3 1.46 C 0 km/h
845 27-02-2019 04:00:00 0.78333 C 4.8 g/m*3 0.78 C 0 km/h
846 27-02-2019 05:00:00 0.5 C 4.74 g/m*3 0.5 C 0 km/h
847 27-02-2019 06:00:00 0.125 C 4.64 g/m*3 0.13 C 0 km/h
848 27-02-2019 07:00:00 -0.375 C 4.49 g/m*3 -0.38 C 0 km/h
849 27-02-2019 08:00:00 -0.25833 C 4.55 g/m*3 -0.26 C 0 km/h
850 27-02-2019 09:00:00 0.41667 C 4.79 g/m*3 0.42 C 0 km/h
Sensor: Nr:Datum:Temp:Abs-Feuchte:Windchill:Wind:
Aussen-T/F 851 27-02-2019 10:00:00 2.4 C 5.52 g/m*3 2.4 C 0 km/h
852 27-02-2019 11:00:00 5.5 C 6.68 g/m*3 5.5 C 0 km/h
853 27-02-2019 12:00:00 9.75833 C 7.66 g/m*3 9.76 C 0 km/h
854 27-02-2019 13:00:00 14.69167 C 8.26 g/m*3 14.69 C 0 km/h
855 27-02-2019 14:00:00 17.19167 C 7.64 g/m*3 17.19 C 0 km/h
856 27-02-2019 15:00:00 16.10833 C 7.05 g/m*3 16.11 C 0.93333 km/h
857 27-02-2019 16:00:00 16.25 C 7 g/m*3 16.25 C 4.4 km/h
858 27-02-2019 17:00:00 15.71667 C 6.83 g/m*3 15.72 C 6.13333 km/h
859 27-02-2019 18:00:00 13.55833 C 6.44 g/m*3 13.56 C 4.55833 km/h
860 27-02-2019 19:00:00 10.89167 C 6.35 g/m*3 10.89 C 0 km/h
861 27-02-2019 20:00:00 8.7 C 6.09 g/m*3 8.7 C 0 km/h
862 27-02-2019 21:00:00 6.8 C 5.79 g/m*3 6.8 C 0 km/h
863 27-02-2019 22:00:00 5.55 C 5.67 g/m*3 5.55 C 0 km/h
864 27-02-2019 23:00:00 4.83333 C 5.55 g/m*3 4.83 C 0 km/h
865 28-02-2019 00:00:00 5.35 C 5.77 g/m*3 5.35 C 2.4 km/h
866 28-02-2019 01:00:00 4.93333 C 5.54 g/m*3 4.93 C 0.4 km/h
867 28-02-2019 02:00:00 3.675 C 5.4 g/m*3 3.68 C 3.20833 km/h
868 28-02-2019 03:00:00 2.94167 C 5.27 g/m*3 2.94 C 2.66667 km/h
869 28-02-2019 04:00:00 2.275 C 5.11 g/m*3 2.28 C 2.53333 km/h
870 28-02-2019 05:00:00 2.35833 C 5.18 g/m*3 2.36 C 3.35 km/h
871 28-02-2019 06:00:00 3.21667 C 5.45 g/m*3 1.38 C 6.85833 km/h
872 28-02-2019 07:00:00 3.75 C 5.43 g/m*3 2.47 C 5.5 km/h
873 28-02-2019 08:00:00 3.075 C 5.38 g/m*3 3.08 C 3.075 km/h
874 28-02-2019 09:00:00 4.68333 C 5.92 g/m*3 4.68 C 3.34167 km/h
875 28-02-2019 10:00:00 7.65833 C 6.83 g/m*3 6.03 C 9.01667 km/h
Sensor: Nr:Datum:Temp:Abs-Feuchte:Windchill:Wind:
Aussen-T/F 876 28-02-2019 11:00:00 11.56667 C 7.5 g/m*3 11.57 C 12.63333 km/h
877 28-02-2019 12:00:00 13.26667 C 7.75 g/m*3 13.27 C 11.16667 km/h
878 28-02-2019 13:00:00 14.95833 C 8.12 g/m*3 14.96 C 11.56667 km/h
879 28-02-2019 14:00:00 16.61667 C 8.6 g/m*3 16.62 C 12.89167 km/h
880 28-02-2019 15:00:00 16.76667 C 8.7 g/m*3 16.77 C 11.15 km/h
881 28-02-2019 16:00:00 15.20833 C 8.3 g/m*3 15.21 C 17.175 km/h
882 28-02-2019 17:00:00 12.73333 C 7.56 g/m*3 12.73 C 18.10833 km/h
883 28-02-2019 18:00:00 12.13333 C 7.68 g/m*3 12.13 C 9.425 km/h
884 28-02-2019 19:00:00 11.26667 C 7.7 g/m*3 11.27 C 8.86667 km/h
885 28-02-2019 20:00:00 11.09167 C 7.91 g/m*3 11.09 C 11.43333 km/h
886 28-02-2019 21:00:00 10.975 C 8.07 g/m*3 9.52 C 11.83333 km/h
887 28-02-2019 22:00:00 10.84167 C 8.1 g/m*3 9.6 C 10.20833 km/h
888 28-02-2019 23:00:00 10.26667 C 8.27 g/m*3 9.03 C 9.525 km/h
889 01-03-2019 00:00:00 9.075 C 8.14 g/m*3 9.07 C 4.68333 km/h
890 01-03-2019 01:00:00 8.68333 C 8.1 g/m*3 8.68 C 4.675 km/h
891 01-03-2019 02:00:00 8.69167 C 8.07 g/m*3 7.15 C 9.55 km/h
892 01-03-2019 03:00:00 8.8 C 7.96 g/m*3 7.33 C 9.275 km/h
893 01-03-2019 04:00:00 8.75833 C 7.9 g/m*3 8.12 C 5.75 km/h
894 01-03-2019 05:00:00 8.63333 C 7.9 g/m*3 8.63 C 3.60833 km/h
895 01-03-2019 06:00:00 8.20833 C 7.84 g/m*3 8.21 C 3.475 km/h
896 01-03-2019 07:00:00 8.21667 C 7.96 g/m*3 8.22 C 3.60833 km/h
897 01-03-2019 08:00:00 8.53333 C 8.13 g/m*3 8.53 C 2.8 km/h
898 01-03-2019 09:00:00 8.68333 C 8.21 g/m*3 8.68 C 0.8 km/h
899 01-03-2019 10:00:00 8.66667 C 8.28 g/m*3 8.67 C 0.26667 km/h
900 01-03-2019 11:00:00 8.75833 C 8.25 g/m*3 8.76 C 2.66667 km/h
Sensor: Nr:Datum:Temp:Abs-Feuchte:Windchill:Wind:
Aussen-T/F 901 01-03-2019 12:00:00 9.01667 C 8.07 g/m*3 7.09 C 12.21667 km/h
902 01-03-2019 13:00:00 8.49167 C 7.81 g/m*3 6.79 C 10.19167 km/h
903 01-03-2019 14:00:00 8.38333 C 7.66 g/m*3 7 C 8.475 km/h
904 01-03-2019 15:00:00 8.325 C 7.57 g/m*3 7.65 C 5.63333 km/h
905 01-03-2019 16:00:00 8.34167 C 7.65 g/m*3 8.34 C 4.68333 km/h
906 01-03-2019 17:00:00 8.28333 C 7.66 g/m*3 8.28 C 3.21667 km/h
907 01-03-2019 18:00:00 7.61667 C 7.21 g/m*3 5.35 C 12.5 km/h
908 01-03-2019 19:00:00 6.9 C 6.92 g/m*3 5.29 C 8.31667 km/h
909 01-03-2019 20:00:00 6.625 C 6.88 g/m*3 6.63 C 1.73333 km/h
910 01-03-2019 21:00:00 6.45 C 6.78 g/m*3 6.45 C 1.2 km/h
911 01-03-2019 22:00:00 6.375 C 6.71 g/m*3 6.38 C 1.73333 km/h
912 01-03-2019 23:00:00 6.53333 C 6.66 g/m*3 6.53 C 0.93333 km/h
913 02-03-2019 00:00:00 6.19167 C 6.55 g/m*3 6.19 C 4.30833 km/h
914 02-03-2019 01:00:00 5.85 C 6.4 g/m*3 5.85 C 1.6 km/h
915 02-03-2019 02:00:00 5.64167 C 6.43 g/m*3 5.64 C 0.93333 km/h
916 02-03-2019 03:00:00 5.65 C 6.43 g/m*3 5.65 C 1.46667 km/h
917 02-03-2019 04:00:00 5.7 C 6.47 g/m*3 5.7 C 0.26667 km/h
918 02-03-2019 05:00:00 6.10833 C 6.65 g/m*3 6.11 C 4.80833 km/h
919 02-03-2019 06:00:00 6.30833 C 6.74 g/m*3 6.31 C 3.73333 km/h
920 02-03-2019 07:00:00 6.65 C 6.89 g/m*3 6.65 C 4.68333 km/h
921 02-03-2019 08:00:00 7.01667 C 7.01 g/m*3 7.02 C 4.94167 km/h
922 02-03-2019 09:00:00 7.66667 C 7.19 g/m*3 5.96 C 9.41667 km/h
923 02-03-2019 10:00:00 8.05 C 7.28 g/m*3 6.73 C 7.925 km/h
924 02-03-2019 11:00:00 8.99167 C 7.53 g/m*3 7.61 C 9.025 km/h
925 02-03-2019 12:00:00 9.94167 C 7.75 g/m*3 8.71 C 9.16667 km/h
Sensor: Nr:Datum:Temp:Abs-Feuchte:Windchill:Wind:
Aussen-T/F 926 02-03-2019 13:00:00 10.63333 C 7.82 g/m*3 9.66 C 8.475 km/h
927 02-03-2019 14:00:00 11.40833 C 7.76 g/m*3 11.41 C 6.975 km/h
928 02-03-2019 15:00:00 11.925 C 7.67 g/m*3 11.93 C 8.75 km/h
929 02-03-2019 16:00:00 12.35 C 7.67 g/m*3 12.35 C 10.625 km/h
930 02-03-2019 17:00:00 11.35833 C 7.73 g/m*3 11.36 C 14.5 km/h
931 02-03-2019 18:00:00 10.55 C 7.84 g/m*3 9.09 C 11.28333 km/h
932 02-03-2019 19:00:00 9.84167 C 8 g/m*3 8.11 C 12.1 km/h
933 02-03-2019 20:00:00 9.53333 C 7.96 g/m*3 7.84 C 11.41667 km/h
934 02-03-2019 21:00:00 9.83333 C 8.13 g/m*3 7.98 C 12.9 km/h
935 02-03-2019 22:00:00 10.25 C 8.11 g/m*3 8.53 C 12.61667 km/h
936 02-03-2019 23:00:00 9.96667 C 7.8 g/m*3 8.58 C 10.08333 km/h
937 03-03-2019 00:00:00 9.05833 C 7.33 g/m*3 8.49 C 5.63333 km/h
938 03-03-2019 01:00:00 9.175 C 7.6 g/m*3 7.47 C 11.00833 km/h
939 03-03-2019 02:00:00 9.98333 C 7.63 g/m*3 8.19 C 12.74167 km/h
940 03-03-2019 03:00:00 10 C 7.61 g/m*3 8.3 C 12.09167 km/h
941 03-03-2019 04:00:00 10.225 C 7.71 g/m*3 8.5 C 12.63333 km/h
942 03-03-2019 05:00:00 10.20833 C 7.6 g/m*3 8.39 C 13.28333 km/h
943 03-03-2019 06:00:00 10.10833 C 7.65 g/m*3 8.51 C 11.55 km/h
944 03-03-2019 07:00:00 10.13333 C 7.68 g/m*3 8.28 C 13.425 km/h
945 03-03-2019 08:00:00 10.31667 C 7.81 g/m*3 7.58 C 22.11667 km/h
946 03-03-2019 09:00:00 10.875 C 8.06 g/m*3 8.13 C 24.125 km/h
947 03-03-2019 10:00:00 11.15833 C 8.19 g/m*3 11.16 C 26.01667 km/h
948 03-03-2019 11:00:00 11.00833 C 8.21 g/m*3 11.01 C 15.16667 km/h
949 03-03-2019 12:00:00 11.225 C 8.33 g/m*3 11.23 C 16.36667 km/h
950 03-03-2019 13:00:00 11.73333 C 8.44 g/m*3 11.73 C 11.15833 km/h
Sensor: Nr:Datum:Temp:Abs-Feuchte:Windchill:Wind:
Aussen-T/F 951 03-03-2019 14:00:00 11.79167 C 8.42 g/m*3 11.79 C 13.15833 km/h
952 03-03-2019 15:00:00 11.7 C 8.5 g/m*3 11.7 C 14.625 km/h
953 03-03-2019 16:00:00 11.7 C 8.52 g/m*3 11.7 C 14.36667 km/h
954 03-03-2019 17:00:00 11.9 C 8.41 g/m*3 11.9 C 13.43333 km/h
955 03-03-2019 18:00:00 12.18333 C 8.35 g/m*3 12.18 C 14.5 km/h
956 03-03-2019 19:00:00 12.28333 C 8.23 g/m*3 12.28 C 13.83333 km/h
957 03-03-2019 20:00:00 12.33333 C 8.27 g/m*3 12.33 C 14.36667 km/h
958 03-03-2019 21:00:00 12.33333 C 8.39 g/m*3 12.33 C 21.05 km/h
959 03-03-2019 22:00:00 12.525 C 8.43 g/m*3 12.53 C 18.36667 km/h
960 03-03-2019 23:00:00 12.75833 C 8.24 g/m*3 12.76 C 6.43333 km/h
961 04-03-2019 00:00:00 13.10833 C 8.13 g/m*3 13.11 C 8.33333 km/h
962 04-03-2019 01:00:00 13.50833 C 8.02 g/m*3 13.51 C 13.54167 km/h
963 04-03-2019 02:00:00 12.66667 C 8.38 g/m*3 12.67 C 27.74167 km/h
964 04-03-2019 03:00:00 11.79167 C 8.46 g/m*3 11.79 C 18.10833 km/h
965 04-03-2019 04:00:00 11.675 C 8.51 g/m*3 11.68 C 10.75 km/h
966 04-03-2019 05:00:00 11.63333 C 8.34 g/m*3 11.63 C 9.26667 km/h
967 04-03-2019 06:00:00 11.45 C 8.13 g/m*3 11.45 C 12.20833 km/h
968 04-03-2019 07:00:00 12 C 7.87 g/m*3 12 C 16.9 km/h
969 04-03-2019 08:00:00 11.49167 C 7.55 g/m*3 11.49 C 31.91667 km/h
970 04-03-2019 09:00:00 9.39167 C 6.9 g/m*3 6.12 C 25.475 km/h
971 04-03-2019 10:00:00 9.90833 C 7.15 g/m*3 6.92 C 23.85833 km/h
972 04-03-2019 11:00:00 11.23333 C 7.03 g/m*3 11.23 C 27.36667 km/h
973 04-03-2019 12:00:00 10.98333 C 7.29 g/m*3 8.02 C 27.63333 km/h
974 04-03-2019 13:00:00 9.73333 C 7.77 g/m*3 6.6 C 24.925 km/h
975 04-03-2019 14:00:00 9.44167 C 7.56 g/m*3 6.35 C 23.44167 km/h
Sensor: Nr:Datum:Temp:Abs-Feuchte:Windchill:Wind:
Aussen-T/F 976 04-03-2019 15:00:00 7.1 C 6.58 g/m*3 4.35 C 14.9 km/h
977 04-03-2019 16:00:00 7.54167 C 6.39 g/m*3 4.79 C 15.7 km/h
978 04-03-2019 17:00:00 7.4 C 6.26 g/m*3 5.15 C 12.1 km/h
979 04-03-2019 18:00:00 6.96667 C 6.22 g/m*3 4.79 C 11.15 km/h
980 04-03-2019 19:00:00 6.86667 C 6.25 g/m*3 4.1 C 14.63333 km/h
981 04-03-2019 20:00:00 6.95 C 6.29 g/m*3 4.51 C 12.625 km/h
982 04-03-2019 21:00:00 6.61667 C 6.29 g/m*3 4.54 C 10.225 km/h
983 04-03-2019 22:00:00 7.09167 C 6.45 g/m*3 4.2 C 15.96667 km/h
984 04-03-2019 23:00:00 6.7 C 6.36 g/m*3 4.47 C 11.13333 km/h
985 05-03-2019 00:00:00 6.875 C 6.26 g/m*3 4.45 C 12.475 km/h
986 05-03-2019 01:00:00 6.875 C 6.19 g/m*3 4.38 C 12.9 km/h
987 05-03-2019 02:00:00 6.79167 C 6.11 g/m*3 3.57 C 17.96667 km/h
988 05-03-2019 03:00:00 6.74167 C 6.13 g/m*3 3.6 C 17.16667 km/h
989 05-03-2019 04:00:00 6.425 C 6.04 g/m*3 3.58 C 14.49167 km/h
990 05-03-2019 05:00:00 6.35 C 6.01 g/m*3 3.45 C 14.76667 km/h
991 05-03-2019 06:00:00 6.24167 C 5.88 g/m*3 3.46 C 13.83333 km/h
992 05-03-2019 07:00:00 6.475 C 5.93 g/m*3 3.06 C 18.90833 km/h
993 05-03-2019 08:00:00 6.64167 C 6.07 g/m*3 3.23 C 19.16667 km/h
994 05-03-2019 09:00:00 6.50833 C 6.25 g/m*3 3.51 C 15.7 km/h
995 05-03-2019 10:00:00 6.625 C 6.44 g/m*3 4.3 C 11.56667 km/h
996 05-03-2019 11:00:00 6.99167 C 6.53 g/m*3 4.61 C 12.36667 km/h
997 05-03-2019 12:00:00 7.3 C 6.45 g/m*3 4.77 C 13.7 km/h
998 05-03-2019 13:00:00 7.96667 C 6.58 g/m*3 5.81 C 12.23333 km/h
999 05-03-2019 14:00:00 8.65 C 6.68 g/m*3 6.48 C 13.3 km/h
1000 05-03-2019 15:00:00 8.95833 C 6.59 g/m*3 7.12 C 11.55833 km/h
Sensor: Nr:Datum:Temp:Abs-Feuchte:Windchill:Wind:
Aussen-T/F 1001 05-03-2019 16:00:00 9.81667 C 6.76 g/m*3 8.31 C 10.625 km/h
1002 05-03-2019 17:00:00 9.34167 C 6.68 g/m*3 7.93 C 9.54167 km/h
1003 05-03-2019 18:00:00 7.13333 C 6.3 g/m*3 6.21 C 5.89167 km/h
1004 05-03-2019 19:00:00 6.55 C 6.21 g/m*3 5.54 C 5.88333 km/h
1005 05-03-2019 20:00:00 5.46667 C 5.97 g/m*3 5.47 C 1.46667 km/h
1006 05-03-2019 21:00:00 4.275 C 5.8 g/m*3 4.28 C 0.66667 km/h
1007 05-03-2019 22:00:00 4.70833 C 6.13 g/m*3 4.71 C 0.26667 km/h
1008 05-03-2019 23:00:00 5.26667 C 6.36 g/m*3 5.27 C 0 km/h
1009 06-03-2019 00:00:00 5.65 C 6.5 g/m*3 5.65 C 0.66667 km/h
1010 06-03-2019 01:00:00 6.15 C 6.71 g/m*3 6.15 C 0.4 km/h
1011 06-03-2019 02:00:00 7.03333 C 6.98 g/m*3 7.03 C 3.46667 km/h
1012 06-03-2019 03:00:00 7 C 6.93 g/m*3 7 C 0.26667 km/h
1013 06-03-2019 04:00:00 6.81667 C 6.97 g/m*3 6.82 C 2.675 km/h
1014 06-03-2019 05:00:00 7.175 C 6.99 g/m*3 6.1 C 6.43333 km/h
1015 06-03-2019 06:00:00 6.40833 C 6.68 g/m*3 6.41 C 2.675 km/h
1016 06-03-2019 07:00:00 5.44167 C 6.38 g/m*3 5.44 C 1.2 km/h
1017 06-03-2019 08:00:00 6.43333 C 6.8 g/m*3 6.43 C 2.93333 km/h
1018 06-03-2019 09:00:00 8.15833 C 7.04 g/m*3 8.16 C 2.66667 km/h
1019 06-03-2019 10:00:00 10.00833 C 7.18 g/m*3 10.01 C 4.025 km/h
1020 06-03-2019 11:00:00 12.275 C 7.09 g/m*3 12.28 C 7.24167 km/h
1021 06-03-2019 12:00:00 13.31667 C 6.85 g/m*3 13.32 C 6.58333 km/h
1022 06-03-2019 13:00:00 13.375 C 7.08 g/m*3 13.38 C 5.35 km/h
1023 06-03-2019 14:00:00 13.7 C 7.31 g/m*3 13.7 C 2.66667 km/h
1024 06-03-2019 15:00:00 14.56667 C 7.34 g/m*3 14.57 C 3.875 km/h
1025 06-03-2019 16:00:00 15.19167 C 7.45 g/m*3 15.19 C 4.14167 km/h
Sensor: Nr:Datum:Temp:Abs-Feuchte:Windchill:Wind:
Aussen-T/F 1026 06-03-2019 17:00:00 13.93333 C 8.2 g/m*3 13.93 C 3.475 km/h
1027 06-03-2019 18:00:00 13.00833 C 8.24 g/m*3 13.01 C 4.26667 km/h
1028 06-03-2019 19:00:00 11.65833 C 8.48 g/m*3 11.66 C 1.86667 km/h
1029 06-03-2019 20:00:00 10.65 C 8.31 g/m*3 10.65 C 0.4 km/h
1030 06-03-2019 21:00:00 10.675 C 8.25 g/m*3 10.68 C 0.4 km/h
1031 06-03-2019 22:00:00 10.66667 C 8.25 g/m*3 10.67 C 1.33333 km/h
1032 06-03-2019 23:00:00 11.175 C 8.23 g/m*3 11.18 C 3.475 km/h
1033 07-03-2019 00:00:00 11.05833 C 8.41 g/m*3 11.06 C 3.33333 km/h
1034 07-03-2019 01:00:00 10.93333 C 8.72 g/m*3 10.93 C 2.26667 km/h
1035 07-03-2019 02:00:00 10.025 C 8.63 g/m*3 10.03 C 0.53333 km/h
1036 07-03-2019 03:00:00 9.58333 C 8.47 g/m*3 9.58 C 1.33333 km/h
1037 07-03-2019 04:00:00 10.08333 C 8.37 g/m*3 10.08 C 3.46667 km/h
1038 07-03-2019 05:00:00 11.45 C 8.2 g/m*3 11.45 C 9.40833 km/h
1039 07-03-2019 06:00:00 12.05833 C 7.91 g/m*3 12.06 C 17.16667 km/h
1040 07-03-2019 07:00:00 11.325 C 7.59 g/m*3 11.33 C 24.53333 km/h
1041 07-03-2019 08:00:00 10.69167 C 7.45 g/m*3 7.94 C 23.58333 km/h
1042 07-03-2019 09:00:00 10.06667 C 7.8 g/m*3 7.2 C 22.90833 km/h
1043 07-03-2019 10:00:00 10.225 C 7.83 g/m*3 7.22 C 25.19167 km/h
1044 07-03-2019 11:00:00 9.8 C 7.79 g/m*3 6.61 C 25.88333 km/h
1045 07-03-2019 12:00:00 10.78333 C 7.37 g/m*3 8.11 C 22.94167 km/h
1046 07-03-2019 13:00:00 12 C 7.32 g/m*3 12 C 19.70833 km/h
1047 07-03-2019 14:00:00 10.40833 C 7.53 g/m*3 8.26 C 16.36667 km/h
1048 07-03-2019 15:00:00 10.825 C 7.33 g/m*3 8.72 C 16.9 km/h
1049 07-03-2019 16:00:00 9.88333 C 7.38 g/m*3 7.88 C 14.09167 km/h
1050 07-03-2019 17:00:00 10.14167 C 7.11 g/m*3 8.18 C 14.23333 km/h
Sensor: Nr:Datum:Temp:Abs-Feuchte:Windchill:Wind:
Aussen-T/F 1051 07-03-2019 18:00:00 9.45 C 6.57 g/m*3 7.2 C 15.3 km/h
1052 07-03-2019 19:00:00 8.46667 C 6.77 g/m*3 6.09 C 14.5 km/h
1053 07-03-2019 20:00:00 8.64167 C 6.6 g/m*3 5.82 C 18.5 km/h
1054 07-03-2019 21:00:00 9.23333 C 6.67 g/m*3 6.58 C 18.36667 km/h
1055 07-03-2019 22:00:00 9.2 C 6.67 g/m*3 6.59 C 17.83333 km/h
1056 07-03-2019 23:00:00 8.64167 C 6.63 g/m*3 6.51 C 13.03333 km/h
1057 08-03-2019 00:00:00 7.65833 C 6.81 g/m*3 5.87 C 9.80833 km/h
1058 08-03-2019 01:00:00 7.05833 C 6.68 g/m*3 4.88 C 11.275 km/h
1059 08-03-2019 02:00:00 8.15833 C 6.46 g/m*3 5.35 C 17.3 km/h
1060 08-03-2019 03:00:00 8.15 C 6.27 g/m*3 5.34 C 17.3 km/h
1061 08-03-2019 04:00:00 8.05 C 6.32 g/m*3 5.45 C 15.43333 km/h
1062 08-03-2019 05:00:00 7.8 C 6.38 g/m*3 4.91 C 17.3 km/h
1063 08-03-2019 06:00:00 7.60833 C 6.44 g/m*3 4.49 C 18.775 km/h
1064 08-03-2019 07:00:00 7.7 C 6.52 g/m*3 4.39 C 20.775 km/h
1065 08-03-2019 08:00:00 7.85 C 6.69 g/m*3 5.2 C 15.43333 km/h
1066 08-03-2019 09:00:00 7.68333 C 6.91 g/m*3 5.2 C 13.96667 km/h
1067 08-03-2019 10:00:00 7.75 C 6.92 g/m*3 5.57 C 12.1 km/h
1068 08-03-2019 11:00:00 8.65833 C 6.84 g/m*3 6.53 C 13.03333 km/h
1069 08-03-2019 12:00:00 9.21667 C 6.44 g/m*3 7.03 C 14.36667 km/h
1070 08-03-2019 13:00:00 9.8 C 6.39 g/m*3 7.63 C 15.3 km/h
1071 08-03-2019 14:00:00 10.34167 C 6.17 g/m*3 8.32 C 15.16667 km/h
1072 08-03-2019 15:00:00 11.25 C 6.3 g/m*3 11.25 C 14.5 km/h
1073 08-03-2019 16:00:00 10.26667 C 6.7 g/m*3 8.71 C 11.53333 km/h
1074 08-03-2019 17:00:00 9.15833 C 6.91 g/m*3 7.81 C 9.00833 km/h
1075 08-03-2019 18:00:00 7.425 C 6.79 g/m*3 6.63 C 5.625 km/h
Sensor: Nr:Datum:Temp:Abs-Feuchte:Windchill:Wind:
Aussen-T/F 1076 08-03-2019 19:00:00 6.83333 C 6.73 g/m*3 6.83 C 1.06667 km/h
1077 08-03-2019 20:00:00 6.3 C 6.63 g/m*3 6.3 C 0 km/h
1078 08-03-2019 21:00:00 6.525 C 6.71 g/m*3 6.53 C 2.54167 km/h
1079 08-03-2019 22:00:00 7.025 C 6.63 g/m*3 7.03 C 4.41667 km/h
1080 08-03-2019 23:00:00 8.25833 C 6.55 g/m*3 7.31 C 6.56667 km/h
1081 09-03-2019 00:00:00 8.56667 C 6.47 g/m*3 6.58 C 11.96667 km/h
1082 09-03-2019 01:00:00 9.15833 C 6.47 g/m*3 6.65 C 16.9 km/h
1083 09-03-2019 02:00:00 9.375 C 6.54 g/m*3 6.32 C 22.91667 km/h
1084 09-03-2019 03:00:00 9.03333 C 6.75 g/m*3 5.29 C 30.29167 km/h
1085 09-03-2019 04:00:00 7.95833 C 7 g/m*3 4.14 C 27.08333 km/h
1086 09-03-2019 05:00:00 7.775 C 7.12 g/m*3 4.54 C 20.24167 km/h
1087 09-03-2019 06:00:00 8.08333 C 7.31 g/m*3 5.71 C 13.83333 km/h
1088 09-03-2019 07:00:00 8.63333 C 7.51 g/m*3 6.69 C 11.83333 km/h
1089 09-03-2019 08:00:00 9.45 C 7.73 g/m*3 7.42 C 13.55833 km/h
1090 09-03-2019 09:00:00 10.15833 C 7.94 g/m*3 7.91 C 16.76667 km/h
1091 09-03-2019 10:00:00 10.50833 C 7.9 g/m*3 8.79 C 13.03333 km/h
1092 09-03-2019 11:00:00 10.925 C 7.95 g/m*3 9.07 C 14.9 km/h
1093 09-03-2019 12:00:00 11.71667 C 8.03 g/m*3 11.72 C 19.98333 km/h
1094 09-03-2019 13:00:00 12.525 C 8.21 g/m*3 12.53 C 17.7 km/h
1095 09-03-2019 14:00:00 13.48333 C 8.15 g/m*3 13.48 C 25.86667 km/h
1096 09-03-2019 15:00:00 13.30833 C 7.96 g/m*3 13.31 C 26.675 km/h
1097 09-03-2019 16:00:00 13.39167 C 7.37 g/m*3 13.39 C 29.625 km/h
1098 09-03-2019 17:00:00 13.05833 C 6.9 g/m*3 13.06 C 23.46667 km/h
1099 09-03-2019 18:00:00 12.01667 C 6.68 g/m*3 12.02 C 23.46667 km/h
1100 09-03-2019 19:00:00 10.65833 C 7.27 g/m*3 8.99 C 12.89167 km/h
Sensor: Nr:Datum:Temp:Abs-Feuchte:Windchill:Wind:
Aussen-T/F 1101 09-03-2019 20:00:00 9.45 C 7.46 g/m*3 9.45 C 3.89167 km/h
1102 09-03-2019 21:00:00 9.66667 C 7.56 g/m*3 8.81 C 7.11667 km/h
1103 09-03-2019 22:00:00 9.60833 C 7.33 g/m*3 8.74 C 7.125 km/h
1104 09-03-2019 23:00:00 10.34167 C 6.85 g/m*3 8.48 C 13.83333 km/h
1105 10-03-2019 00:00:00 10.11667 C 6.59 g/m*3 8.44 C 12.08333 km/h
1106 10-03-2019 01:00:00 9.66667 C 6.48 g/m*3 8.91 C 6.70833 km/h
1107 10-03-2019 02:00:00 9.40833 C 6.66 g/m*3 8.71 C 6.29167 km/h
1108 10-03-2019 03:00:00 9.1 C 6.86 g/m*3 9.1 C 1.06667 km/h
1109 10-03-2019 04:00:00 8.325 C 7.18 g/m*3 8.32 C 0 km/h
1110 10-03-2019 05:00:00 7.8 C 7.42 g/m*3 7.8 C 0 km/h
1111 10-03-2019 06:00:00 7.475 C 7.47 g/m*3 7.48 C 0 km/h
1112 10-03-2019 07:00:00 7.675 C 7.68 g/m*3 7.68 C 0 km/h
1113 10-03-2019 08:00:00 8.86667 C 8.38 g/m*3 7.69 C 7.925 km/h
1114 10-03-2019 09:00:00 10.58333 C 9.28 g/m*3 9.25 C 10.475 km/h
1115 10-03-2019 10:00:00 11.95833 C 9.92 g/m*3 11.96 C 9.825 km/h
1116 10-03-2019 11:00:00 13.14167 C 9.01 g/m*3 13.14 C 21.175 km/h
1117 10-03-2019 12:00:00 14.125 C 8.78 g/m*3 14.13 C 24.65833 km/h
1118 10-03-2019 13:00:00 14.4 C 7.98 g/m*3 14.4 C 30.575 km/h
1119 10-03-2019 14:00:00 14.40833 C 6.43 g/m*3 14.41 C 39.13333 km/h
1120 10-03-2019 15:00:00 13.55833 C 5.9 g/m*3 13.56 C 37 km/h
1121 10-03-2019 16:00:00 12.53333 C 5.53 g/m*3 12.53 C 36.475 km/h
1122 10-03-2019 17:00:00 10.38333 C 6.06 g/m*3 7.75 C 21.19167 km/h
1123 10-03-2019 18:00:00 7.69167 C 6.5 g/m*3 4.44 C 20.25 km/h
1124 10-03-2019 19:00:00 6.94167 C 6.07 g/m*3 3.5 C 20.10833 km/h
1125 10-03-2019 20:00:00 6.075 C 5.5 g/m*3 1.97 C 24.26667 km/h
Sensor: Nr:Datum:Temp:Abs-Feuchte:Windchill:Wind:
Aussen-T/F 1126 10-03-2019 21:00:00 5.21667 C 5.46 g/m*3 2.27 C 13.43333 km/h
1127 10-03-2019 22:00:00 5.05833 C 5.45 g/m*3 2.79 C 9.7 km/h
1128 10-03-2019 23:00:00 4.85833 C 5.41 g/m*3 2.72 C 8.99167 km/h
1129 11-03-2019 00:00:00 4.34167 C 5.27 g/m*3 3.1 C 5.61667 km/h
1130 11-03-2019 01:00:00 4.50833 C 5.24 g/m*3 2.11 C 9.80833 km/h
1131 11-03-2019 02:00:00 5.10833 C 5.4 g/m*3 1.94 C 14.63333 km/h
1132 11-03-2019 03:00:00 3.65833 C 5.3 g/m*3 0.78 C 11.26667 km/h
1133 11-03-2019 04:00:00 2.36667 C 5.27 g/m*3 2.37 C 1.86667 km/h
1134 11-03-2019 05:00:00 2.20833 C 5.23 g/m*3 -1.96 C 16.63333 km/h
1135 11-03-2019 06:00:00 1.74167 C 5.05 g/m*3 -0.9 C 8.71667 km/h
1136 11-03-2019 07:00:00 1.525 C 5.07 g/m*3 1.53 C 3.33333 km/h
1137 11-03-2019 08:00:00 2.31667 C 5.39 g/m*3 2.32 C 4.28333 km/h
1138 11-03-2019 09:00:00 3.34167 C 5.44 g/m*3 -0.07 C 13.7 km/h
1139 11-03-2019 10:00:00 3.925 C 5.59 g/m*3 0.76 C 13.03333 km/h
1140 11-03-2019 11:00:00 4.875 C 5.55 g/m*3 1.72 C 14.23333 km/h
1141 11-03-2019 12:00:00 5.60833 C 5.4 g/m*3 2.36 C 15.96667 km/h
1142 11-03-2019 13:00:00 6.575 C 5.41 g/m*3 3.23 C 18.5 km/h
1143 11-03-2019 14:00:00 7.04167 C 5.45 g/m*3 3.75 C 19.04167 km/h
1144 11-03-2019 15:00:00 7.63333 C 5.39 g/m*3 4.12 C 22.64167 km/h
1145 11-03-2019 16:00:00 7.26667 C 5.38 g/m*3 4.04 C 19.03333 km/h
1146 11-03-2019 17:00:00 7.175 C 5.5 g/m*3 4.88 C 12.08333 km/h
1147 11-03-2019 18:00:00 6.93333 C 5.3 g/m*3 4.6 C 11.96667 km/h
1148 11-03-2019 19:00:00 5.83333 C 5.22 g/m*3 2.89 C 14.23333 km/h
1149 11-03-2019 20:00:00 5.68333 C 5.22 g/m*3 2.75 C 13.96667 km/h
1150 11-03-2019 21:00:00 5.28333 C 5.19 g/m*3 3.06 C 9.69167 km/h
Sensor: Nr:Datum:Temp:Abs-Feuchte:Windchill:Wind:
Aussen-T/F 1151 11-03-2019 22:00:00 5.34167 C 5.17 g/m*3 3.32 C 8.86667 km/h
1152 11-03-2019 23:00:00 4.75 C 5.08 g/m*3 3.52 C 5.75833 km/h
1153 12-03-2019 00:00:00 4.19167 C 5.16 g/m*3 2.61 C 6.55833 km/h
1154 12-03-2019 01:00:00 3.225 C 5.08 g/m*3 3.23 C 4.41667 km/h
1155 12-03-2019 02:00:00 2.15833 C 4.89 g/m*3 2.16 C 3.875 km/h
1156 12-03-2019 03:00:00 1.65833 C 4.82 g/m*3 1.66 C 4.41667 km/h
1157 12-03-2019 04:00:00 1.33333 C 4.75 g/m*3 1.33 C 4.40833 km/h
1158 12-03-2019 05:00:00 1.625 C 4.88 g/m*3 1.63 C 3.6 km/h
1159 12-03-2019 06:00:00 1.76667 C 4.9 g/m*3 1.77 C 2.93333 km/h
1160 12-03-2019 07:00:00 1.93333 C 5.02 g/m*3 1.93 C 0 km/h
1161 12-03-2019 08:00:00 3.25 C 5.38 g/m*3 3.25 C 1.33333 km/h
1162 12-03-2019 09:00:00 5.20833 C 5.68 g/m*3 5.21 C 2.28333 km/h
1163 12-03-2019 10:00:00 7.4 C 5.75 g/m*3 5.31 C 11.16667 km/h
1164 12-03-2019 11:00:00 8.78333 C 5.53 g/m*3 6.67 C 13.16667 km/h
1165 12-03-2019 12:00:00 9.40833 C 5.54 g/m*3 7.58 C 12.09167 km/h
1166 12-03-2019 13:00:00 9.74167 C 5.49 g/m*3 8.26 C 10.35 km/h
1167 12-03-2019 14:00:00 10.18333 C 5.48 g/m*3 9.15 C 8.34167 km/h
1168 12-03-2019 15:00:00 10.56667 C 5.26 g/m*3 9.15 C 11.025 km/h
1169 12-03-2019 16:00:00 10.33333 C 4.82 g/m*3 9.47 C 7.65833 km/h
1170 12-03-2019 17:00:00 9.34167 C 5 g/m*3 9.34 C 1.6 km/h
1171 12-03-2019 18:00:00 8.1 C 5.1 g/m*3 8.1 C 2.275 km/h
1172 12-03-2019 19:00:00 8.725 C 4.69 g/m*3 8.73 C 4.01667 km/h
1173 12-03-2019 20:00:00 9.425 C 4.21 g/m*3 8.69 C 6.45 km/h
1174 12-03-2019 21:00:00 10.74167 C 4.5 g/m*3 9.26 C 11.68333 km/h
1175 12-03-2019 22:00:00 11.14167 C 5.45 g/m*3 11.14 C 22.93333 km/h
Sensor: Nr:Datum:Temp:Abs-Feuchte:Windchill:Wind:
Aussen-T/F 1176 12-03-2019 23:00:00 8.53333 C 6.56 g/m*3 5.7 C 18.36667 km/h
1177 13-03-2019 00:00:00 6.53333 C 6.06 g/m*3 3.69 C 14.63333 km/h
1178 13-03-2019 01:00:00 5.74167 C 5.67 g/m*3 2.62 C 15.3 km/h
1179 13-03-2019 02:00:00 5.425 C 5.6 g/m*3 3.01 C 10.75833 km/h
1180 13-03-2019 03:00:00 5.74167 C 5.51 g/m*3 3.16 C 11.95 km/h
1181 13-03-2019 04:00:00 5.53333 C 5.61 g/m*3 3.01 C 11.40833 km/h
1182 13-03-2019 05:00:00 5.34167 C 5.77 g/m*3 2.33 C 13.95833 km/h
1183 13-03-2019 06:00:00 5.16667 C 5.69 g/m*3 1.53 C 17.96667 km/h
1184 13-03-2019 07:00:00 5.46667 C 5.65 g/m*3 1.69 C 19.71667 km/h
1185 13-03-2019 08:00:00 6.08333 C 5.85 g/m*3 2.68 C 17.96667 km/h
1186 13-03-2019 09:00:00 6.5 C 5.84 g/m*3 2.96 C 19.975 km/h
1187 13-03-2019 10:00:00 6.94167 C 5.96 g/m*3 3.09 C 24.125 km/h
1188 13-03-2019 11:00:00 7.81667 C 6.14 g/m*3 4.23 C 23.98333 km/h
1189 13-03-2019 12:00:00 8.15833 C 6.22 g/m*3 4.85 C 21.975 km/h
1190 13-03-2019 13:00:00 7.95833 C 6.31 g/m*3 4.31 C 25.075 km/h
1191 13-03-2019 14:00:00 8.05 C 6.48 g/m*3 4.83 C 20.775 km/h
1192 13-03-2019 15:00:00 7.79167 C 6.54 g/m*3 4.68 C 19.175 km/h
1193 13-03-2019 16:00:00 6.825 C 6.69 g/m*3 4.15 C 13.96667 km/h
1194 13-03-2019 17:00:00 6.65833 C 6.66 g/m*3 3.48 C 17.3 km/h
1195 13-03-2019 18:00:00 6.55 C 6.6 g/m*3 3.45 C 16.5 km/h
1196 13-03-2019 19:00:00 4.95833 C 6.23 g/m*3 2.34 C 11.29167 km/h
1197 13-03-2019 20:00:00 4.94167 C 6.24 g/m*3 1.91 C 13.56667 km/h
1198 13-03-2019 21:00:00 4.94167 C 6.27 g/m*3 2.24 C 11.7 km/h
1199 13-03-2019 22:00:00 5.04167 C 6.34 g/m*3 2.97 C 8.86667 km/h
1200 13-03-2019 23:00:00 4.725 C 6.18 g/m*3 2.91 C 7.65 km/h
Sensor: Nr:Datum:Temp:Abs-Feuchte:Windchill:Wind:
Aussen-T/F 1201 14-03-2019 00:00:00 4.65 C 6.14 g/m*3 1.57 C 13.43333 km/h
1202 14-03-2019 01:00:00 5.13333 C 6.21 g/m*3 2.95 C 9.39167 km/h
1203 14-03-2019 02:00:00 4.81667 C 6.17 g/m*3 3.01 C 7.66667 km/h
1204 14-03-2019 03:00:00 4.46667 C 6.1 g/m*3 2.97 C 6.43333 km/h
1205 14-03-2019 04:00:00 5.05 C 6.36 g/m*3 3.25 C 7.78333 km/h
1206 14-03-2019 05:00:00 5.73333 C 6.54 g/m*3 3.75 C 9 km/h
1207 14-03-2019 06:00:00 6.13333 C 6.53 g/m*3 4.26 C 8.85833 km/h
1208 14-03-2019 07:00:00 6.35 C 6.48 g/m*3 3.55 C 14.1 km/h
1209 14-03-2019 08:00:00 6.70833 C 6.51 g/m*3 4.22 C 12.625 km/h
1210 14-03-2019 09:00:00 6.41667 C 6.63 g/m*3 3.93 C 12.23333 km/h
1211 14-03-2019 10:00:00 6.55 C 6.64 g/m*3 3.62 C 15.3 km/h
1212 14-03-2019 11:00:00 6.55833 C 6.71 g/m*3 3.74 C 14.5 km/h
1213 14-03-2019 12:00:00 7.15 C 6.94 g/m*3 3.89 C 19.03333 km/h
1214 14-03-2019 13:00:00 7.30833 C 7 g/m*3 3.32 C 26.825 km/h
1215 14-03-2019 14:00:00 7.33333 C 6.96 g/m*3 3.57 C 24.39167 km/h
1216 14-03-2019 15:00:00 7.69167 C 7.31 g/m*3 4.45 C 20.1 km/h
1217 14-03-2019 16:00:00 8.875 C 7.54 g/m*3 6.19 C 17.84167 km/h
1218 14-03-2019 17:00:00 9.85833 C 7.88 g/m*3 7.53 C 16.76667 km/h
1219 14-03-2019 18:00:00 9.875 C 7.7 g/m*3 8.54 C 9.68333 km/h
1220 14-03-2019 19:00:00 9.54167 C 7.07 g/m*3 7.4 C 14.61667 km/h
1221 14-03-2019 20:00:00 7.96667 C 7.02 g/m*3 6.37 C 9.13333 km/h
1222 14-03-2019 21:00:00 8.2 C 6.95 g/m*3 7.35 C 6.16667 km/h
1223 14-03-2019 22:00:00 8.38333 C 6.76 g/m*3 6.4 C 11.7 km/h
1224 14-03-2019 23:00:00 8.11667 C 6.6 g/m*3 6.08 C 11.69167 km/h
1225 15-03-2019 00:00:00 7.11667 C 6.48 g/m*3 5.42 C 8.88333 km/h
Sensor: Nr:Datum:Temp:Abs-Feuchte:Windchill:Wind:
Aussen-T/F 1226 15-03-2019 01:00:00 6.38333 C 6.39 g/m*3 4.55 C 8.86667 km/h
1227 15-03-2019 02:00:00 6.86667 C 6.57 g/m*3 5.62 C 6.84167 km/h
1228 15-03-2019 03:00:00 6.40833 C 6.49 g/m*3 6.41 C 4.81667 km/h
1229 15-03-2019 04:00:00 6.04167 C 6.5 g/m*3 6.04 C 4 km/h
1230 15-03-2019 05:00:00 7.00833 C 6.79 g/m*3 5.24 C 9.13333 km/h
1231 15-03-2019 06:00:00 7.225 C 7.08 g/m*3 7.23 C 4.16667 km/h
1232 15-03-2019 07:00:00 7.125 C 7.25 g/m*3 5.43 C 8.85833 km/h
1233 15-03-2019 08:00:00 7.49167 C 7.52 g/m*3 6.02 C 8.19167 km/h
1234 15-03-2019 09:00:00 8.2 C 7.87 g/m*3 5.67 C 15.16667 km/h
1235 15-03-2019 10:00:00 9.375 C 8.49 g/m*3 6.96 C 16.5 km/h
1236 15-03-2019 11:00:00 11.05 C 9.2 g/m*3 11.05 C 18.63333 km/h
1237 15-03-2019 12:00:00 12.38333 C 9.66 g/m*3 12.38 C 17.03333 km/h
1238 15-03-2019 13:00:00 13.11667 C 9.66 g/m*3 13.12 C 18.9 km/h
1239 15-03-2019 14:00:00 13.66667 C 9.56 g/m*3 13.67 C 21.43333 km/h
1240 15-03-2019 15:00:00 13.51667 C 9.69 g/m*3 13.52 C 17.70833 km/h
1241 15-03-2019 16:00:00 13.38333 C 9.52 g/m*3 13.38 C 19.03333 km/h
1242 15-03-2019 17:00:00 13.03333 C 9.4 g/m*3 13.03 C 16.23333 km/h
1243 15-03-2019 18:00:00 12.70833 C 9.38 g/m*3 12.71 C 20.10833 km/h
1244 15-03-2019 19:00:00 12.64167 C 9.38 g/m*3 12.64 C 14.63333 km/h
1245 15-03-2019 20:00:00 12.10833 C 9.45 g/m*3 12.11 C 14.23333 km/h
1246 15-03-2019 21:00:00 12.25 C 9.38 g/m*3 12.25 C 14.23333 km/h
1247 15-03-2019 22:00:00 12.4 C 9.31 g/m*3 12.4 C 12.61667 km/h
1248 15-03-2019 23:00:00 11.85833 C 9.28 g/m*3 11.86 C 7.78333 km/h
1249 16-03-2019 00:00:00 11.575 C 9.18 g/m*3 11.58 C 13.29167 km/h
1250 16-03-2019 01:00:00 9.79167 C 8.51 g/m*3 7.84 C 13.56667 km/h
Sensor: Nr:Datum:Temp:Abs-Feuchte:Windchill:Wind:
Aussen-T/F 1251 16-03-2019 02:00:00 8.93333 C 8.09 g/m*3 7.29 C 10.35 km/h
1252 16-03-2019 03:00:00 8.41667 C 7.96 g/m*3 8.42 C 1.86667 km/h
1253 16-03-2019 04:00:00 8.3 C 8.01 g/m*3 8.3 C 0 km/h
1254 16-03-2019 05:00:00 8.3 C 8.01 g/m*3 8.3 C 0 km/h
1255 16-03-2019 06:00:00 8.73333 C 8.35 g/m*3 8.73 C 4.7 km/h
1256 16-03-2019 07:00:00 9.88333 C 8.87 g/m*3 7.65 C 15.96667 km/h
1257 16-03-2019 08:00:00 10.375 C 8.96 g/m*3 8.85 C 11.41667 km/h
1258 16-03-2019 09:00:00 10.71667 C 9.02 g/m*3 8.87 C 14.35833 km/h
1259 16-03-2019 10:00:00 10.84167 C 8.92 g/m*3 9.04 C 14.23333 km/h
1260 16-03-2019 11:00:00 10.825 C 8.84 g/m*3 8.69 C 17.16667 km/h
1261 16-03-2019 12:00:00 11.46667 C 8.66 g/m*3 11.47 C 19.18333 km/h
1262 16-03-2019 13:00:00 11.75833 C 8.4 g/m*3 11.76 C 17.7 km/h
1263 16-03-2019 14:00:00 11.125 C 8.15 g/m*3 11.13 C 19.30833 km/h
1264 16-03-2019 15:00:00 10.94167 C 7.84 g/m*3 9.32 C 13.025 km/h
1265 16-03-2019 16:00:00 10.99167 C 7.75 g/m*3 9.43 C 12.625 km/h
1266 16-03-2019 17:00:00 10.9 C 7.58 g/m*3 9.28 C 12.9 km/h
1267 16-03-2019 18:00:00 10.69167 C 7.5 g/m*3 9.12 C 12.225 km/h
1268 16-03-2019 19:00:00 10.43333 C 7.34 g/m*3 8.53 C 14.36667 km/h
1269 16-03-2019 20:00:00 10.31667 C 7.24 g/m*3 8.57 C 12.88333 km/h
1270 16-03-2019 21:00:00 10.10833 C 7.39 g/m*3 8 C 15.43333 km/h
1271 16-03-2019 22:00:00 10.09167 C 7.47 g/m*3 7.57 C 19.16667 km/h
1272 16-03-2019 23:00:00 10.11667 C 7.48 g/m*3 7.68 C 18.36667 km/h
1273 17-03-2019 00:00:00 10.29167 C 7.45 g/m*3 7.92 C 18.23333 km/h
1274 17-03-2019 01:00:00 10.425 C 7.43 g/m*3 7.84 C 20.775 km/h
1275 17-03-2019 02:00:00 10.20833 C 7.39 g/m*3 8.06 C 15.96667 km/h
Sensor: Nr:Datum:Temp:Abs-Feuchte:Windchill:Wind:
Aussen-T/F 1276 17-03-2019 03:00:00 10.19167 C 7.32 g/m*3 8.37 C 13.3 km/h
1277 17-03-2019 04:00:00 10.11667 C 7.2 g/m*3 7.99 C 15.56667 km/h
1278 17-03-2019 05:00:00 10.28333 C 7.15 g/m*3 7.99 C 17.43333 km/h
1279 17-03-2019 06:00:00 10.23333 C 7.08 g/m*3 8.12 C 15.69167 km/h
1280 17-03-2019 07:00:00 10.24167 C 7.25 g/m*3 7.88 C 17.975 km/h
1281 17-03-2019 08:00:00 10.2 C 7.5 g/m*3 8.11 C 15.43333 km/h
1282 17-03-2019 09:00:00 10.26667 C 7.61 g/m*3 7.97 C 17.43333 km/h
1283 17-03-2019 10:00:00 9.89167 C 7.71 g/m*3 7.65 C 16.1 km/h
1284 17-03-2019 11:00:00 8.075 C 6.98 g/m*3 5.88 C 12.63333 km/h
1285 17-03-2019 12:00:00 8.78333 C 6.87 g/m*3 6.59 C 13.7 km/h
1286 17-03-2019 13:00:00 9.80833 C 7.03 g/m*3 8.07 C 12.1 km/h
1287 17-03-2019 14:00:00 10.71667 C 6.35 g/m*3 8.59 C 16.9 km/h
1288 17-03-2019 15:00:00 11.01667 C 6.55 g/m*3 11.02 C 15.03333 km/h
1289 17-03-2019 16:00:00 10.05 C 6.09 g/m*3 7.78 C 16.64167 km/h
1290 17-03-2019 17:00:00 7.89167 C 5.7 g/m*3 5.48 C 13.81667 km/h
1291 17-03-2019 18:00:00 7.01667 C 5.86 g/m*3 4.53 C 13.03333 km/h
1292 17-03-2019 19:00:00 5.95833 C 5.83 g/m*3 3.9 C 9.53333 km/h
1293 17-03-2019 20:00:00 4.51667 C 5.85 g/m*3 2.52 C 8.19167 km/h
1294 17-03-2019 21:00:00 4.025 C 5.76 g/m*3 2.33 C 6.825 km/h
1295 17-03-2019 22:00:00 3.875 C 5.66 g/m*3 1.39 C 9.68333 km/h
1296 17-03-2019 23:00:00 3.83333 C 5.53 g/m*3 1.71 C 8.20833 km/h
1297 18-03-2019 00:00:00 2.95 C 5.33 g/m*3 1.35 C 6.04167 km/h
1298 18-03-2019 01:00:00 2.55 C 5.29 g/m*3 0.4 C 7.50833 km/h
1299 18-03-2019 02:00:00 3.225 C 5.49 g/m*3 -0.07 C 12.89167 km/h
1300 18-03-2019 03:00:00 3.61667 C 5.47 g/m*3 1.77 C 7.1 km/h
Sensor: Nr:Datum:Temp:Abs-Feuchte:Windchill:Wind:
Aussen-T/F 1301 18-03-2019 04:00:00 3.25 C 5.41 g/m*3 2.02 C 5.2 km/h
1302 18-03-2019 05:00:00 3.10833 C 5.37 g/m*3 0.82 C 8.33333 km/h
1303 18-03-2019 06:00:00 3.95833 C 5.48 g/m*3 0.95 C 12.23333 km/h
1304 18-03-2019 07:00:00 4.225 C 5.58 g/m*3 1.35 C 11.825 km/h
1305 18-03-2019 08:00:00 5.04167 C 5.84 g/m*3 2.19 C 12.63333 km/h
1306 18-03-2019 09:00:00 5.06667 C 6.11 g/m*3 2.84 C 9.54167 km/h
1307 18-03-2019 10:00:00 6.36667 C 6.37 g/m*3 3.99 C 11.55 km/h
1308 18-03-2019 11:00:00 7.74167 C 6.29 g/m*3 5.14 C 14.9 km/h
1309 18-03-2019 12:00:00 8.06667 C 5.97 g/m*3 5.44 C 15.7 km/h
1310 18-03-2019 13:00:00 6.66667 C 6.43 g/m*3 5.21 C 7.51667 km/h
1311 18-03-2019 14:00:00 8.43333 C 6.18 g/m*3 6.72 C 10.21667 km/h
1312 18-03-2019 15:00:00 6.71667 C 6.54 g/m*3 6.72 C 4.55 km/h
1313 18-03-2019 16:00:00 6.875 C 6.62 g/m*3 6.88 C 3.75 km/h
1314 18-03-2019 17:00:00 7.95833 C 6.13 g/m*3 6.97 C 6.56667 km/h
1315 18-03-2019 18:00:00 7.49167 C 6.03 g/m*3 7.49 C 2.66667 km/h
1316 18-03-2019 19:00:00 5.20833 C 5.88 g/m*3 5.21 C 4.53333 km/h
1317 18-03-2019 20:00:00 4.01667 C 5.47 g/m*3 4.02 C 3.86667 km/h
1318 18-03-2019 21:00:00 3.09167 C 5.26 g/m*3 3.09 C 1.6 km/h
1319 18-03-2019 22:00:00 2.04167 C 5 g/m*3 2.04 C 0.66667 km/h
1320 18-03-2019 23:00:00 1.48333 C 4.93 g/m*3 1.48 C 0 km/h
1321 19-03-2019 00:00:00 0.93333 C 4.77 g/m*3 0.93 C 0 km/h
1322 19-03-2019 01:00:00 0.35833 C 4.62 g/m*3 0.36 C 0 km/h
1323 19-03-2019 02:00:00 -0.04167 C 4.53 g/m*3 -0.04 C 0 km/h
1324 19-03-2019 03:00:00 -0.3 C 4.46 g/m*3 -0.3 C 0 km/h
1325 19-03-2019 04:00:00 -0.70833 C 4.34 g/m*3 -0.71 C 0 km/h
Sensor: Nr:Datum:Temp:Abs-Feuchte:Windchill:Wind:
Aussen-T/F 1326 19-03-2019 05:00:00 -1.03333 C 4.25 g/m*3 -1.03 C 0 km/h
1327 19-03-2019 06:00:00 -1.2 C 4.22 g/m*3 -1.2 C 0 km/h
1328 19-03-2019 07:00:00 -0.375 C 4.49 g/m*3 -0.38 C 0.8 km/h
1329 19-03-2019 08:00:00 -0.04167 C 4.59 g/m*3 -0.04 C 0 km/h
1330 19-03-2019 09:00:00 0.675 C 4.83 g/m*3 0.68 C 0.13333 km/h
1331 19-03-2019 10:00:00 2.36667 C 5.39 g/m*3 2.37 C 0 km/h
1332 19-03-2019 11:00:00 5.125 C 5.92 g/m*3 5.13 C 1.60833 km/h
1333 19-03-2019 12:00:00 7.29167 C 5.42 g/m*3 7.29 C 3.75 km/h
1334 19-03-2019 13:00:00 8.93333 C 5.14 g/m*3 7.8 C 7.78333 km/h
1335 19-03-2019 14:00:00 9.975 C 5.3 g/m*3 9.7 C 5.09167 km/h
1336 19-03-2019 15:00:00 10.15 C 5.05 g/m*3 9.12 C 8.33333 km/h
1337 19-03-2019 16:00:00 11.51667 C 5.01 g/m*3 11.52 C 4.96667 km/h
1338 19-03-2019 17:00:00 12.00833 C 4.83 g/m*3 12.01 C 6.85 km/h
1339 19-03-2019 18:00:00 9.65 C 5.58 g/m*3 9.65 C 0 km/h
1340 19-03-2019 19:00:00 5.6 C 5.46 g/m*3 5.6 C 0 km/h
1341 19-03-2019 20:00:00 4.4 C 5.32 g/m*3 4.4 C 0 km/h
1342 19-03-2019 21:00:00 3.1 C 5.09 g/m*3 3.1 C 0 km/h
1343 19-03-2019 22:00:00 2.025 C 4.84 g/m*3 2.03 C 0 km/h
1344 19-03-2019 23:00:00 1.68333 C 4.77 g/m*3 1.68 C 0.13333 km/h
1345 20-03-2019 00:00:00 0.8 C 4.56 g/m*3 0.8 C 0 km/h
1346 20-03-2019 01:00:00 0.35833 C 4.51 g/m*3 0.36 C 0 km/h
1347 20-03-2019 02:00:00 -0.16667 C 4.38 g/m*3 -0.17 C 0 km/h
1348 20-03-2019 03:00:00 -0.55 C 4.29 g/m*3 -0.55 C 0 km/h
1349 20-03-2019 04:00:00 -0.90833 C 4.22 g/m*3 -0.91 C 0 km/h
1350 20-03-2019 05:00:00 -1.10833 C 4.18 g/m*3 -1.11 C 0 km/h
Sensor: Nr:Datum:Temp:Abs-Feuchte:Windchill:Wind:
Aussen-T/F 1351 20-03-2019 06:00:00 -1.225 C 4.17 g/m*3 -1.23 C 0 km/h
1352 20-03-2019 07:00:00 -1.08333 C 4.22 g/m*3 -1.08 C 0 km/h
1353 20-03-2019 08:00:00 -0.675 C 4.37 g/m*3 -0.68 C 0 km/h
1354 20-03-2019 09:00:00 0.575 C 4.79 g/m*3 0.57 C 0 km/h
1355 20-03-2019 10:00:00 4.26667 C 5.82 g/m*3 4.27 C 0 km/h
1356 20-03-2019 11:00:00 8.875 C 6.06 g/m*3 8.88 C 1.73333 km/h
1357 20-03-2019 12:00:00 11.63333 C 5.89 g/m*3 11.63 C 5.9 km/h
1358 20-03-2019 13:00:00 13.15833 C 5.54 g/m*3 13.16 C 6.70833 km/h
1359 20-03-2019 14:00:00 13.75833 C 5.52 g/m*3 13.76 C 6.55833 km/h
1360 20-03-2019 15:00:00 13.64167 C 5.61 g/m*3 13.64 C 6.85833 km/h
1361 20-03-2019 16:00:00 14.11667 C 5.86 g/m*3 14.12 C 8.075 km/h
1362 20-03-2019 17:00:00 14.83333 C 6.28 g/m*3 14.83 C 1.6 km/h
1363 20-03-2019 18:00:00 11.88333 C 6.7 g/m*3 11.88 C 0 km/h
1364 20-03-2019 19:00:00 8.5 C 6.26 g/m*3 8.5 C 0 km/h
1365 20-03-2019 20:00:00 6.85 C 6.08 g/m*3 6.85 C 0 km/h
1366 20-03-2019 21:00:00 5.43333 C 5.85 g/m*3 5.43 C 0 km/h
1367 20-03-2019 22:00:00 4.725 C 5.7 g/m*3 4.72 C 0 km/h
1368 20-03-2019 23:00:00 3.81667 C 5.49 g/m*3 3.82 C 0 km/h
1369 21-03-2019 00:00:00 3.31667 C 5.39 g/m*3 3.32 C 0.13333 km/h
1370 21-03-2019 01:00:00 2.55 C 5.14 g/m*3 2.55 C 0 km/h
1371 21-03-2019 02:00:00 1.81667 C 4.99 g/m*3 1.82 C 0 km/h
1372 21-03-2019 03:00:00 1.30833 C 4.87 g/m*3 1.31 C 0 km/h
1373 21-03-2019 04:00:00 0.99167 C 4.82 g/m*3 0.99 C 0 km/h
1374 21-03-2019 05:00:00 0.61667 C 4.72 g/m*3 0.62 C 0 km/h
1375 21-03-2019 06:00:00 0.33333 C 4.66 g/m*3 0.33 C 0 km/h
Sensor: Nr:Datum:Temp:Abs-Feuchte:Windchill:Wind:
Aussen-T/F 1376 21-03-2019 07:00:00 0.6 C 4.76 g/m*3 0.6 C 0 km/h
1377 21-03-2019 08:00:00 1.24167 C 5.01 g/m*3 1.24 C 0 km/h
1378 21-03-2019 09:00:00 2.50833 C 5.46 g/m*3 2.51 C 0 km/h
1379 21-03-2019 10:00:00 5.54167 C 6.37 g/m*3 5.54 C 0.13333 km/h
1380 21-03-2019 11:00:00 9.275 C 6.78 g/m*3 9.28 C 0.26667 km/h
1381 21-03-2019 12:00:00 12.99167 C 6.11 g/m*3 12.99 C 7.525 km/h
1382 21-03-2019 13:00:00 15.43333 C 5.73 g/m*3 15.43 C 4.95833 km/h
1383 21-03-2019 14:00:00 16.23333 C 5.45 g/m*3 16.23 C 5.89167 km/h
1384 21-03-2019 15:00:00 16.43333 C 5.45 g/m*3 16.43 C 5.625 km/h
1385 21-03-2019 16:00:00 17.625 C 5.67 g/m*3 17.63 C 7.775 km/h
1386 21-03-2019 17:00:00 18.01667 C 5.84 g/m*3 18.02 C 6.575 km/h
1387 21-03-2019 18:00:00 14.68333 C 6.62 g/m*3 14.68 C 5.2 km/h
1388 21-03-2019 19:00:00 10.96667 C 6.42 g/m*3 10.97 C 3.33333 km/h
1389 21-03-2019 20:00:00 9.20833 C 6.41 g/m*3 9.21 C 0.66667 km/h
1390 21-03-2019 21:00:00 7.65 C 6.05 g/m*3 7.65 C 0 km/h
1391 21-03-2019 22:00:00 6.15833 C 5.77 g/m*3 6.16 C 0 km/h
1392 21-03-2019 23:00:00 5.26667 C 5.67 g/m*3 5.27 C 0 km/h
1393 22-03-2019 00:00:00 4.425 C 5.54 g/m*3 4.43 C 0 km/h
1394 22-03-2019 01:00:00 3.69167 C 5.43 g/m*3 3.69 C 0 km/h
1395 22-03-2019 02:00:00 3.03333 C 5.27 g/m*3 3.03 C 0 km/h
1396 22-03-2019 03:00:00 2.20833 C 5.08 g/m*3 2.21 C 0 km/h
1397 22-03-2019 04:00:00 1.74167 C 5.02 g/m*3 1.74 C 0 km/h
1398 22-03-2019 05:00:00 1.53333 C 5 g/m*3 1.53 C 0 km/h
1399 22-03-2019 06:00:00 1.06667 C 4.86 g/m*3 1.07 C 0 km/h
1400 22-03-2019 07:00:00 1.24167 C 4.96 g/m*3 1.24 C 0 km/h
Sensor: Nr:Datum:Temp:Abs-Feuchte:Windchill:Wind:
Aussen-T/F 1401 22-03-2019 08:00:00 1.95833 C 5.26 g/m*3 1.96 C 0 km/h
1402 22-03-2019 09:00:00 3.70833 C 5.94 g/m*3 3.71 C 0 km/h
1403 22-03-2019 10:00:00 7.06667 C 7.02 g/m*3 7.07 C 0 km/h
1404 22-03-2019 11:00:00 11.70833 C 7.63 g/m*3 11.71 C 0 km/h
1405 22-03-2019 12:00:00 15.65 C 7.08 g/m*3 15.65 C 3.225 km/h
1406 22-03-2019 13:00:00 18.11667 C 6.47 g/m*3 18.12 C 10.20833 km/h
1407 22-03-2019 14:00:00 19.29167 C 5.97 g/m*3 19.29 C 7.38333 km/h
1408 22-03-2019 15:00:00 19.26667 C 6.4 g/m*3 19.27 C 9.55 km/h
1409 22-03-2019 16:00:00 19.83333 C 6.46 g/m*3 19.83 C 5.75833 km/h
1410 22-03-2019 17:00:00 20.95833 C 6.47 g/m*3 20.96 C 6.16667 km/h
1411 22-03-2019 18:00:00 16.7 C 7.19 g/m*3 16.7 C 4.53333 km/h
1412 22-03-2019 19:00:00 12.225 C 6.86 g/m*3 12.23 C 5.46667 km/h
1413 22-03-2019 20:00:00 10.825 C 6.74 g/m*3 10.83 C 4.66667 km/h
1414 22-03-2019 21:00:00 9.1 C 6.45 g/m*3 9.1 C 0.4 km/h
1415 22-03-2019 22:00:00 7.775 C 6.35 g/m*3 7.78 C 1.06667 km/h
1416 22-03-2019 23:00:00 6.66667 C 6.08 g/m*3 6.67 C 0 km/h
1417 23-03-2019 00:00:00 5.5 C 5.83 g/m*3 5.5 C 0 km/h
1418 23-03-2019 01:00:00 4.74167 C 5.71 g/m*3 4.74 C 0 km/h
1419 23-03-2019 02:00:00 4.05 C 5.62 g/m*3 4.05 C 0 km/h
1420 23-03-2019 03:00:00 3.69167 C 5.54 g/m*3 3.69 C 0 km/h
1421 23-03-2019 04:00:00 3.425 C 5.51 g/m*3 3.43 C 0 km/h
1422 23-03-2019 05:00:00 3.28333 C 5.44 g/m*3 3.28 C 0 km/h
1423 23-03-2019 06:00:00 2.525 C 5.25 g/m*3 2.53 C 0 km/h
1424 23-03-2019 07:00:00 4.06667 C 6.02 g/m*3 4.07 C 3.08333 km/h
1425 23-03-2019 08:00:00 6.20833 C 6.99 g/m*3 6.21 C 3.075 km/h
Sensor: Nr:Datum:Temp:Abs-Feuchte:Windchill:Wind:
Aussen-T/F 1426 23-03-2019 09:00:00 6.63333 C 7.14 g/m*3 6.63 C 0 km/h
1427 23-03-2019 10:00:00 7.18333 C 7.35 g/m*3 6.31 C 5.75 km/h
1428 23-03-2019 11:00:00 7.53333 C 7.43 g/m*3 6.67 C 5.89167 km/h
1429 23-03-2019 12:00:00 8.125 C 7.5 g/m*3 7.23 C 6.3 km/h
1430 23-03-2019 13:00:00 8.775 C 7.5 g/m*3 7.74 C 7.25833 km/h
1431 23-03-2019 14:00:00 9.45 C 7.39 g/m*3 8.03 C 9.7 km/h
1432 23-03-2019 15:00:00 10.08333 C 7.32 g/m*3 8.9 C 9.025 km/h
1433 23-03-2019 16:00:00 10.425 C 7.21 g/m*3 9.29 C 9.15833 km/h
1434 23-03-2019 17:00:00 10.425 C 7.16 g/m*3 9.64 C 7.375 km/h
1435 23-03-2019 18:00:00 9.175 C 6.9 g/m*3 9.18 C 2.4 km/h
1436 23-03-2019 19:00:00 6.80833 C 6.51 g/m*3 6.81 C 3.2 km/h
1437 23-03-2019 20:00:00 5.38333 C 6.19 g/m*3 5.38 C 0.13333 km/h
1438 23-03-2019 21:00:00 4.33333 C 5.93 g/m*3 4.33 C 0 km/h
1439 23-03-2019 22:00:00 3.55833 C 5.74 g/m*3 3.56 C 0 km/h
1440 23-03-2019 23:00:00 3.075 C 5.62 g/m*3 3.08 C 0 km/h
1441 24-03-2019 00:00:00 2.4 C 5.39 g/m*3 2.4 C 0 km/h
1442 24-03-2019 01:00:00 1.9 C 5.23 g/m*3 1.9 C 0 km/h
1443 24-03-2019 02:00:00 1.425 C 5.08 g/m*3 1.43 C 0 km/h
1444 24-03-2019 03:00:00 0.96667 C 4.92 g/m*3 0.97 C 0 km/h
1445 24-03-2019 04:00:00 0.89167 C 4.94 g/m*3 0.89 C 0 km/h
1446 24-03-2019 05:00:00 1.725 C 5.24 g/m*3 1.73 C 0.4 km/h
1447 24-03-2019 07:00:00 2.78182 C 5.62 g/m*3 2.78 C 0.29091 km/h
1448 24-03-2019 08:00:00 3.66667 C 6.02 g/m*3 3.67 C 0.13333 km/h
1449 24-03-2019 09:00:00 4.85 C 6.44 g/m*3 4.85 C 2.53333 km/h
1450 24-03-2019 10:00:00 6.875 C 7.1 g/m*3 6.88 C 3.46667 km/h
Sensor: Nr:Datum:Temp:Abs-Feuchte:Windchill:Wind:
Aussen-T/F 1451 24-03-2019 11:00:00 9.54167 C 7.8 g/m*3 9.54 C 4.81667 km/h
1452 24-03-2019 12:00:00 11.74167 C 8.07 g/m*3 11.74 C 9.53333 km/h
1453 24-03-2019 13:00:00 10.88333 C 8.07 g/m*3 9.16 C 13.7 km/h
1454 24-03-2019 14:00:00 10.64167 C 8.08 g/m*3 9.95 C 7.10833 km/h
1455 24-03-2019 15:00:00 11.09167 C 7.88 g/m*3 11.09 C 8.74167 km/h
1456 24-03-2019 16:00:00 12.03333 C 7.65 g/m*3 12.03 C 9.80833 km/h
1457 24-03-2019 17:00:00 12.28333 C 7.05 g/m*3 12.28 C 10.625 km/h
1458 24-03-2019 18:00:00 11.30833 C 6.37 g/m*3 11.31 C 8.6 km/h
1459 24-03-2019 19:00:00 9.075 C 5.77 g/m*3 8.47 C 5.775 km/h
1460 24-03-2019 20:00:00 7.18333 C 5.55 g/m*3 7.18 C 4.4 km/h
1461 24-03-2019 21:00:00 5.59167 C 5.39 g/m*3 5.59 C 0.93333 km/h
1462 24-03-2019 22:00:00 4.23333 C 5.21 g/m*3 4.23 C 0.8 km/h
1463 24-03-2019 23:00:00 3.56667 C 5.11 g/m*3 3.57 C 2.53333 km/h
1464 25-03-2019 00:00:00 3.35 C 5.02 g/m*3 3.35 C 2.93333 km/h
1465 25-03-2019 01:00:00 1.875 C 4.76 g/m*3 1.88 C 0.53333 km/h
1466 25-03-2019 02:00:00 1.89167 C 4.9 g/m*3 0.46 C 5.225 km/h
1467 25-03-2019 03:00:00 2.29167 C 4.99 g/m*3 0.45 C 6.43333 km/h
1468 25-03-2019 04:00:00 2.85833 C 5.07 g/m*3 0.76 C 7.50833 km/h
1469 25-03-2019 05:00:00 3.675 C 5.13 g/m*3 0.61 C 12.23333 km/h
1470 25-03-2019 06:00:00 3.74167 C 5.19 g/m*3 1.46 C 8.75 km/h
1471 25-03-2019 07:00:00 4.38333 C 5.53 g/m*3 2.15 C 9.01667 km/h
1472 25-03-2019 08:00:00 4.56667 C 6.01 g/m*3 2.83 C 7.25 km/h
1473 25-03-2019 09:00:00 6.15 C 6.25 g/m*3 3.41 C 13.43333 km/h
1474 25-03-2019 10:00:00 7.41667 C 5.92 g/m*3 4.58 C 16.1 km/h
1475 25-03-2019 11:00:00 7.375 C 6.01 g/m*3 4.62 C 15.43333 km/h
Sensor: Nr:Datum:Temp:Abs-Feuchte:Windchill:Wind:
Aussen-T/F 1476 25-03-2019 12:00:00 7.725 C 6.31 g/m*3 4.41 C 20.90833 km/h
1477 25-03-2019 13:00:00 7.55 C 6.48 g/m*3 4.34 C 19.45 km/h
1478 25-03-2019 14:00:00 7.65833 C 6.21 g/m*3 4.6 C 18.38333 km/h
1479 25-03-2019 15:00:00 7.18333 C 6.57 g/m*3 4.89 C 12.08333 km/h
1480 25-03-2019 16:00:00 7.29167 C 6.64 g/m*3 5.02 C 12.08333 km/h
1481 25-03-2019 17:00:00 5.71667 C 6.41 g/m*3 3.83 C 8.58333 km/h
1482 25-03-2019 18:00:00 5.3 C 6.46 g/m*3 5.3 C 3.20833 km/h
1483 25-03-2019 19:00:00 5.04167 C 6.39 g/m*3 5.04 C 2.53333 km/h
1484 25-03-2019 20:00:00 5.1 C 6.48 g/m*3 5.1 C 2.26667 km/h
1485 25-03-2019 21:00:00 5.24167 C 6.56 g/m*3 5.24 C 4.29167 km/h
1486 25-03-2019 22:00:00 5.15833 C 6.39 g/m*3 5.16 C 4.675 km/h
1487 25-03-2019 23:00:00 4.65 C 6.2 g/m*3 4.65 C 1.06667 km/h
1488 26-03-2019 00:00:00 4.49167 C 6.21 g/m*3 4.49 C 2 km/h
1489 26-03-2019 01:00:00 4.525 C 6.19 g/m*3 4.53 C 0.53333 km/h
1490 26-03-2019 02:00:00 4.375 C 6.19 g/m*3 4.38 C 0.13333 km/h
1491 26-03-2019 03:00:00 4.64167 C 6.3 g/m*3 4.64 C 0.66667 km/h
1492 26-03-2019 04:00:00 4.91667 C 6.42 g/m*3 4.92 C 1.33333 km/h
1493 26-03-2019 05:00:00 5.00833 C 6.37 g/m*3 5.01 C 2.93333 km/h
1494 26-03-2019 06:00:00 4.99167 C 6.23 g/m*3 4.99 C 2.94167 km/h
1495 26-03-2019 07:00:00 5.06667 C 6.15 g/m*3 5.07 C 2.13333 km/h
1496 26-03-2019 08:00:00 5.55 C 6 g/m*3 5.55 C 4.95 km/h
1497 26-03-2019 09:00:00 6.225 C 5.91 g/m*3 4.69 C 7.53333 km/h
1498 26-03-2019 10:00:00 6.98333 C 5.91 g/m*3 4.78 C 11.29167 km/h
1499 26-03-2019 11:00:00 7.26667 C 5.66 g/m*3 5.69 C 8.46667 km/h
1500 26-03-2019 12:00:00 8.46667 C 5.93 g/m*3 6.59 C 11.16667 km/h
Sensor: Nr:Datum:Temp:Abs-Feuchte:Windchill:Wind:
Aussen-T/F 1501 26-03-2019 13:00:00 8.85 C 5.76 g/m*3 7.15 C 10.625 km/h
1502 26-03-2019 14:00:00 8.875 C 5.68 g/m*3 6.88 C 12.49167 km/h
1503 26-03-2019 15:00:00 9.03333 C 5.88 g/m*3 7.8 C 8.34167 km/h
1504 26-03-2019 16:00:00 9.49167 C 5.89 g/m*3 7.62 C 12.5 km/h
1505 26-03-2019 17:00:00 8.43333 C 6.05 g/m*3 7.16 C 8.05 km/h
1506 26-03-2019 18:00:00 8.11667 C 6.16 g/m*3 7.38 C 5.75833 km/h
1507 26-03-2019 19:00:00 7.59167 C 6.33 g/m*3 7.59 C 0.8 km/h
1508 26-03-2019 20:00:00 7.075 C 6.4 g/m*3 7.08 C 0.4 km/h
1509 26-03-2019 21:00:00 6.81667 C 6.44 g/m*3 6.82 C 0.13333 km/h
1510 26-03-2019 22:00:00 6.51667 C 6.48 g/m*3 6.52 C 0 km/h
1511 26-03-2019 23:00:00 6.24167 C 6.42 g/m*3 6.24 C 0.26667 km/h
1512 27-03-2019 00:00:00 6.10833 C 6.4 g/m*3 6.11 C 0.8 km/h
1513 27-03-2019 01:00:00 5.575 C 6.29 g/m*3 5.58 C 0 km/h
1514 27-03-2019 02:00:00 5.25 C 6.25 g/m*3 5.25 C 0 km/h
1515 27-03-2019 03:00:00 4.9 C 6.12 g/m*3 4.9 C 0 km/h
1516 27-03-2019 04:00:00 4.05833 C 5.81 g/m*3 4.06 C 0.13333 km/h
1517 27-03-2019 05:00:00 2.91667 C 5.43 g/m*3 2.92 C 0.53333 km/h
1518 27-03-2019 06:00:00 2.1 C 5.23 g/m*3 2.1 C 0 km/h
1519 27-03-2019 07:00:00 2.6 C 5.47 g/m*3 2.6 C 0.26667 km/h
1520 27-03-2019 08:00:00 3.88333 C 5.97 g/m*3 3.88 C 0.53333 km/h
1521 27-03-2019 09:00:00 5.8 C 6.58 g/m*3 5.8 C 1.6 km/h
1522 27-03-2019 10:00:00 8.16667 C 7 g/m*3 8.17 C 2.93333 km/h
1523 27-03-2019 11:00:00 9.13333 C 6.8 g/m*3 8.58 C 5.625 km/h
1524 27-03-2019 12:00:00 10.05 C 6.55 g/m*3 9.49 C 6.16667 km/h
1525 27-03-2019 13:00:00 10.8 C 6.28 g/m*3 9.64 C 9.68333 km/h
Sensor: Nr:Datum:Temp:Abs-Feuchte:Windchill:Wind:
Aussen-T/F 1526 27-03-2019 14:00:00 11.05 C 6.13 g/m*3 11.05 C 6.44167 km/h
1527 27-03-2019 15:00:00 11.10833 C 6.07 g/m*3 11.11 C 7.51667 km/h
1528 27-03-2019 16:00:00 11.23333 C 6.02 g/m*3 11.23 C 6.3 km/h
1529 27-03-2019 17:00:00 10.975 C 5.99 g/m*3 10.77 C 5.33333 km/h
1530 27-03-2019 18:00:00 9.83333 C 6.38 g/m*3 9.83 C 0.8 km/h
1531 27-03-2019 19:00:00 7.64167 C 6.24 g/m*3 7.64 C 3.46667 km/h
1532 27-03-2019 20:00:00 6.49167 C 6.12 g/m*3 6.49 C 3.86667 km/h
1533 27-03-2019 21:00:00 5.69167 C 6.04 g/m*3 5.69 C 1.33333 km/h
1534 27-03-2019 22:00:00 4.725 C 5.79 g/m*3 4.72 C 0.4 km/h
1535 27-03-2019 23:00:00 3.475 C 5.52 g/m*3 3.48 C 0 km/h
1536 28-03-2019 00:00:00 2.925 C 5.43 g/m*3 2.93 C 0.53333 km/h
1537 28-03-2019 01:00:00 2.475 C 5.3 g/m*3 2.48 C 0 km/h
1538 28-03-2019 02:00:00 1.975 C 5.16 g/m*3 1.98 C 0 km/h
1539 28-03-2019 03:00:00 1.60833 C 5.07 g/m*3 1.61 C 0 km/h
1540 28-03-2019 04:00:00 1.375 C 5.01 g/m*3 1.38 C 0.13333 km/h
1541 28-03-2019 05:00:00 1.13333 C 4.95 g/m*3 1.13 C 0 km/h
1542 28-03-2019 06:00:00 1.59167 C 5.13 g/m*3 1.59 C 0 km/h
1543 28-03-2019 07:00:00 2.11667 C 5.32 g/m*3 2.12 C 0.26667 km/h
1544 28-03-2019 08:00:00 2.79167 C 5.55 g/m*3 2.79 C 1.33333 km/h
1545 28-03-2019 09:00:00 4.425 C 6.07 g/m*3 4.43 C 2.66667 km/h
1546 28-03-2019 10:00:00 7.30833 C 6.69 g/m*3 7.31 C 0.4 km/h
1547 28-03-2019 11:00:00 10.325 C 7.27 g/m*3 10.33 C 3.475 km/h
1548 28-03-2019 12:00:00 12.53333 C 7.36 g/m*3 12.53 C 8.33333 km/h
1549 28-03-2019 13:00:00 13.21667 C 7.57 g/m*3 13.22 C 8.33333 km/h
1550 28-03-2019 14:00:00 13.5 C 7.52 g/m*3 13.5 C 10.75833 km/h
Sensor: Nr:Datum:Temp:Abs-Feuchte:Windchill:Wind:
Aussen-T/F 1551 28-03-2019 15:00:00 13.4 C 7.4 g/m*3 13.4 C 8.60833 km/h
1552 28-03-2019 16:00:00 13.45833 C 7.32 g/m*3 13.46 C 9.01667 km/h
1553 28-03-2019 17:00:00 13.19167 C 7.32 g/m*3 13.19 C 6.70833 km/h
1554 28-03-2019 18:00:00 12.16667 C 7.58 g/m*3 12.17 C 2.53333 km/h
1555 28-03-2019 19:00:00 10.36667 C 7.52 g/m*3 10.37 C 0.93333 km/h
1556 28-03-2019 20:00:00 10.23333 C 7.49 g/m*3 10.23 C 0.53333 km/h
1557 28-03-2019 21:00:00 9.50833 C 7.27 g/m*3 9.51 C 0 km/h
1558 28-03-2019 22:00:00 7.88333 C 6.88 g/m*3 7.88 C 0.53333 km/h
1559 28-03-2019 23:00:00 6.3 C 6.5 g/m*3 6.3 C 0 km/h
1560 29-03-2019 00:00:00 5.28333 C 6.27 g/m*3 5.28 C 0 km/h
1561 29-03-2019 01:00:00 4.35 C 6 g/m*3 4.35 C 0 km/h
1562 29-03-2019 02:00:00 3.85833 C 5.89 g/m*3 3.86 C 0 km/h
1563 29-03-2019 03:00:00 3.05833 C 5.61 g/m*3 3.06 C 0 km/h
1564 29-03-2019 04:00:00 2.89167 C 5.61 g/m*3 2.89 C 0 km/h
1565 29-03-2019 05:00:00 2.18333 C 5.34 g/m*3 2.18 C 0 km/h
1566 29-03-2019 06:00:00 2.075 C 5.31 g/m*3 2.08 C 0 km/h
1567 29-03-2019 07:00:00 2.175 C 5.39 g/m*3 2.17 C 0 km/h
1568 29-03-2019 08:00:00 2.93333 C 5.69 g/m*3 2.93 C 0 km/h
1569 29-03-2019 09:00:00 4.94167 C 6.56 g/m*3 4.94 C 0 km/h
1570 29-03-2019 10:00:00 8.09167 C 7.98 g/m*3 8.09 C 0.53333 km/h
1571 29-03-2019 11:00:00 12.48333 C 8.54 g/m*3 12.48 C 9.79167 km/h
1572 29-03-2019 12:00:00 14.475 C 8.29 g/m*3 14.48 C 8.46667 km/h
1573 29-03-2019 13:00:00 15.93333 C 8.14 g/m*3 15.93 C 10.225 km/h
1574 29-03-2019 14:00:00 16.83333 C 7.91 g/m*3 16.83 C 10.89167 km/h
1575 29-03-2019 15:00:00 17.475 C 7.8 g/m*3 17.48 C 9.68333 km/h
Sensor: Nr:Datum:Temp:Abs-Feuchte:Windchill:Wind:
Aussen-T/F 1576 29-03-2019 16:00:00 18.41667 C 7.82 g/m*3 18.42 C 8.71667 km/h
1577 29-03-2019 17:00:00 18.94167 C 7.7 g/m*3 18.94 C 4.53333 km/h
1578 29-03-2019 18:00:00 16.95833 C 7.77 g/m*3 16.96 C 2.675 km/h
1579 29-03-2019 19:00:00 11.55 C 7.26 g/m*3 11.55 C 5.46667 km/h
1580 29-03-2019 20:00:00 9.86667 C 7.1 g/m*3 9.87 C 1.6 km/h
1581 29-03-2019 21:00:00 8.10833 C 6.77 g/m*3 8.11 C 0 km/h
1582 29-03-2019 22:00:00 6.7 C 6.42 g/m*3 6.7 C 0 km/h
1583 29-03-2019 23:00:00 5.575 C 6.15 g/m*3 5.58 C 0 km/h
1584 30-03-2019 00:00:00 4.59167 C 5.94 g/m*3 4.59 C 0 km/h
1585 30-03-2019 01:00:00 4 C 5.82 g/m*3 4 C 0 km/h
1586 30-03-2019 02:00:00 3.45 C 5.66 g/m*3 3.45 C 0 km/h
1587 30-03-2019 03:00:00 2.8 C 5.49 g/m*3 2.8 C 0 km/h
1588 30-03-2019 04:00:00 2.48333 C 5.4 g/m*3 2.48 C 0 km/h
1589 30-03-2019 05:00:00 1.875 C 5.19 g/m*3 1.88 C 0 km/h
1590 30-03-2019 06:00:00 1.73333 C 5.18 g/m*3 1.73 C 0 km/h
1591 30-03-2019 07:00:00 2.11667 C 5.36 g/m*3 2.12 C 0.13333 km/h
1592 30-03-2019 08:00:00 3.35833 C 5.85 g/m*3 3.36 C 0.26667 km/h
1593 30-03-2019 09:00:00 5.45 C 6.77 g/m*3 5.45 C 0 km/h
1594 30-03-2019 10:00:00 8.84167 C 7.93 g/m*3 8.84 C 0 km/h
1595 30-03-2019 11:00:00 13.74167 C 8.36 g/m*3 13.74 C 5.225 km/h
1596 30-03-2019 12:00:00 17.6 C 7.5 g/m*3 17.6 C 14.76667 km/h
1597 30-03-2019 13:00:00 19.30833 C 6.85 g/m*3 19.31 C 14.76667 km/h
1598 30-03-2019 14:00:00 19.93333 C 6.57 g/m*3 19.93 C 16.63333 km/h
1599 30-03-2019 15:00:00 20.41667 C 6.55 g/m*3 20.42 C 13.96667 km/h
1600 30-03-2019 16:00:00 20.54167 C 6.94 g/m*3 20.54 C 8.85 km/h
Sensor: Nr:Datum:Temp:Abs-Feuchte:Windchill:Wind:
Aussen-T/F 1601 30-03-2019 17:00:00 19.46667 C 7.22 g/m*3 19.47 C 4.29167 km/h
1602 30-03-2019 18:00:00 17.30833 C 7.89 g/m*3 17.31 C 1.86667 km/h
1603 30-03-2019 19:00:00 14.88333 C 7.55 g/m*3 14.88 C 0.8 km/h
1604 30-03-2019 20:00:00 13.79167 C 7.66 g/m*3 13.79 C 2.66667 km/h
1605 30-03-2019 21:00:00 12.4 C 7.6 g/m*3 12.4 C 0.93333 km/h
1606 30-03-2019 22:00:00 11.125 C 7.57 g/m*3 11.13 C 0 km/h
1607 30-03-2019 23:00:00 10.80833 C 7.47 g/m*3 10.81 C 0 km/h
1608 31-03-2019 00:00:00 9.55833 C 7.04 g/m*3 9.56 C 0.4 km/h
1609 31-03-2019 01:00:00 8.38333 C 6.93 g/m*3 8.38 C 0 km/h
1610 31-03-2019 02:00:00 7.30833 C 6.64 g/m*3 7.31 C 0.4 km/h
1611 31-03-2019 04:00:00 6.45 C 6.42 g/m*3 6.45 C 0.13333 km/h
1612 31-03-2019 05:00:00 5.15 C 6.1 g/m*3 5.15 C 0.13333 km/h
1613 31-03-2019 06:00:00 4.95 C 6.13 g/m*3 4.95 C 0.4 km/h
1614 31-03-2019 07:00:00 4.78333 C 6.08 g/m*3 4.78 C 0.4 km/h
1615 31-03-2019 08:00:00 4.70833 C 6.13 g/m*3 4.71 C 0 km/h
1616 31-03-2019 09:00:00 5.50833 C 6.53 g/m*3 5.51 C 0 km/h
1617 31-03-2019 10:00:00 8 C 7.54 g/m*3 8 C 0 km/h
1618 31-03-2019 11:00:00 11.51667 C 8.13 g/m*3 11.52 C 0.26667 km/h
1619 31-03-2019 12:00:00 14.56667 C 8.23 g/m*3 14.57 C 3.2 km/h
1620 31-03-2019 13:00:00 16.74167 C 7.93 g/m*3 16.74 C 5.76667 km/h
1621 31-03-2019 14:00:00 18.34167 C 7.9 g/m*3 18.34 C 7.91667 km/h
1622 31-03-2019 15:00:00 18.825 C 7.77 g/m*3 18.83 C 9.81667 km/h
1623 31-03-2019 16:00:00 15.925 C 9.88 g/m*3 15.93 C 6.96667 km/h
1624 31-03-2019 17:00:00 14.2 C 10.95 g/m*3 14.2 C 1.86667 km/h
1625 31-03-2019 18:00:00 15.28333 C 9.93 g/m*3 15.28 C 4.95 km/h
Sensor: Nr:Datum:Temp:Abs-Feuchte:Windchill:Wind:
Aussen-T/F 1626 31-03-2019 19:00:00 12.74167 C 9 g/m*3 12.74 C 2.93333 km/h
1627 31-03-2019 20:00:00 10.11667 C 8.24 g/m*3 10.12 C 4.4 km/h
1628 31-03-2019 21:00:00 8.95 C 7.72 g/m*3 8.95 C 2.13333 km/h
1629 31-03-2019 22:00:00 8.04167 C 7.27 g/m*3 8.04 C 2 km/h
1630 31-03-2019 23:00:00 7.21667 C 6.92 g/m*3 7.22 C 0.8 km/h
1631 01-04-2019 00:00:00 6.36667 C 6.62 g/m*3 6.37 C 0 km/h
1632 01-04-2019 01:00:00 5.74167 C 6.37 g/m*3 5.74 C 0.26667 km/h
1633 01-04-2019 02:00:00 5.25 C 6.22 g/m*3 5.25 C 1.86667 km/h
1634 01-04-2019 03:00:00 4.69167 C 6.04 g/m*3 4.69 C 2.8 km/h
1635 01-04-2019 04:00:00 4.31667 C 5.9 g/m*3 4.32 C 1.73333 km/h
1636 01-04-2019 05:00:00 3.975 C 5.78 g/m*3 3.98 C 0.8 km/h
1637 01-04-2019 06:00:00 3.56667 C 5.67 g/m*3 3.57 C 0.4 km/h
1638 01-04-2019 07:00:00 3.15 C 5.54 g/m*3 3.15 C 0.8 km/h
1639 01-04-2019 08:00:00 3.16667 C 5.61 g/m*3 3.17 C 0 km/h
1640 01-04-2019 09:00:00 4.29167 C 6.01 g/m*3 4.29 C 0.66667 km/h
1641 01-04-2019 10:00:00 6.65 C 6.32 g/m*3 5.52 C 6.31667 km/h
1642 01-04-2019 11:00:00 9.53333 C 6.5 g/m*3 8.18 C 9.40833 km/h
1643 01-04-2019 12:00:00 11.28333 C 6.7 g/m*3 11.28 C 10.08333 km/h
1644 01-04-2019 13:00:00 13.00833 C 6.96 g/m*3 13.01 C 9.15833 km/h
1645 01-04-2019 14:00:00 14.91667 C 7.26 g/m*3 14.92 C 10.63333 km/h
1646 01-04-2019 15:00:00 16.39167 C 7.5 g/m*3 16.39 C 8.73333 km/h
1647 01-04-2019 16:00:00 17.5 C 7.53 g/m*3 17.5 C 6.15833 km/h
1648 01-04-2019 17:00:00 18.275 C 7.44 g/m*3 18.27 C 8.46667 km/h
1649 01-04-2019 18:00:00 17.875 C 7.22 g/m*3 17.88 C 7.65833 km/h
1650 01-04-2019 19:00:00 16 C 7.62 g/m*3 16 C 4.01667 km/h
Sensor: Nr:Datum:Temp:Abs-Feuchte:Windchill:Wind:
Aussen-T/F 1651 01-04-2019 20:00:00 11.775 C 7.41 g/m*3 11.78 C 5.2 km/h
1652 01-04-2019 21:00:00 10.15833 C 7.18 g/m*3 10.16 C 4.66667 km/h
1653 01-04-2019 22:00:00 9.35 C 6.95 g/m*3 9.35 C 2.26667 km/h
1654 01-04-2019 23:00:00 8.79167 C 6.73 g/m*3 8.79 C 1.86667 km/h
1655 02-04-2019 00:00:00 7.93333 C 6.63 g/m*3 7.93 C 0 km/h
1656 02-04-2019 01:00:00 7.04167 C 6.46 g/m*3 7.04 C 0 km/h
1657 02-04-2019 02:00:00 6.3 C 6.27 g/m*3 6.3 C 0 km/h
1658 02-04-2019 03:00:00 5.09167 C 5.98 g/m*3 5.09 C 0 km/h
1659 02-04-2019 04:00:00 4.39167 C 5.88 g/m*3 4.39 C 0 km/h
1660 02-04-2019 05:00:00 3.96667 C 5.78 g/m*3 3.97 C 0 km/h
1661 02-04-2019 06:00:00 3.88333 C 5.81 g/m*3 3.88 C 0 km/h
1662 02-04-2019 07:00:00 4.00833 C 5.91 g/m*3 4.01 C 0 km/h
1663 02-04-2019 08:00:00 4.98333 C 6.31 g/m*3 4.98 C 0 km/h
1664 02-04-2019 09:00:00 6.53333 C 6.71 g/m*3 6.53 C 0 km/h
1665 02-04-2019 10:00:00 8.71667 C 7.1 g/m*3 8.72 C 0 km/h
1666 02-04-2019 11:00:00 11.95 C 7.96 g/m*3 11.95 C 2.8 km/h
1667 02-04-2019 12:00:00 15.01667 C 8.57 g/m*3 15.02 C 4.01667 km/h
1668 02-04-2019 13:00:00 16.80833 C 8.7 g/m*3 16.81 C 6.175 km/h
1669 02-04-2019 14:00:00 17.975 C 8.91 g/m*3 17.98 C 9.55833 km/h
1670 02-04-2019 15:00:00 16.725 C 9.1 g/m*3 16.73 C 12.625 km/h
1671 02-04-2019 16:00:00 17.46667 C 8.58 g/m*3 17.47 C 16.36667 km/h
1672 02-04-2019 17:00:00 16.00833 C 8.99 g/m*3 16.01 C 9.15 km/h
1673 02-04-2019 18:00:00 16.08333 C 8.71 g/m*3 16.08 C 6.71667 km/h
1674 02-04-2019 19:00:00 15.35833 C 8.65 g/m*3 15.36 C 4.00833 km/h
1675 02-04-2019 20:00:00 14.03333 C 8.59 g/m*3 14.03 C 7.11667 km/h
Sensor: Nr:Datum:Temp:Abs-Feuchte:Windchill:Wind:
Aussen-T/F 1676 02-04-2019 21:00:00 13.50833 C 8.12 g/m*3 13.51 C 8.325 km/h
1677 02-04-2019 22:00:00 12.66667 C 7.79 g/m*3 12.67 C 6.84167 km/h
1678 02-04-2019 23:00:00 11.4 C 7.6 g/m*3 11.4 C 0.66667 km/h
1679 03-04-2019 00:00:00 10.50833 C 7.64 g/m*3 10.51 C 0.66667 km/h
1680 03-04-2019 01:00:00 10.275 C 7.62 g/m*3 10.28 C 0 km/h
1681 03-04-2019 02:00:00 9.90833 C 7.61 g/m*3 9.91 C 0 km/h
1682 03-04-2019 03:00:00 8.91667 C 7.43 g/m*3 8.92 C 0 km/h
1683 03-04-2019 04:00:00 8.875 C 7.54 g/m*3 8.88 C 0 km/h
1684 03-04-2019 05:00:00 8.6 C 7.44 g/m*3 8.6 C 0 km/h
1685 03-04-2019 06:00:00 8.075 C 7.3 g/m*3 8.07 C 0.53333 km/h
1686 03-04-2019 07:00:00 8.64167 C 7.32 g/m*3 8.64 C 0.53333 km/h
1687 03-04-2019 08:00:00 8.86667 C 7.52 g/m*3 8.87 C 3.35833 km/h
1688 03-04-2019 09:00:00 7.66667 C 7.32 g/m*3 5.96 C 9.4 km/h
1689 03-04-2019 10:00:00 7.025 C 7.11 g/m*3 7.03 C 2.80833 km/h
1690 03-04-2019 11:00:00 7.44167 C 7.33 g/m*3 7.44 C 1.2 km/h
1691 03-04-2019 12:00:00 8.33333 C 7.51 g/m*3 8.33 C 3.60833 km/h
1692 03-04-2019 13:00:00 9.475 C 7.56 g/m*3 9.48 C 3.6 km/h
1693 03-04-2019 14:00:00 9.43333 C 7.37 g/m*3 9.43 C 4.54167 km/h
1694 03-04-2019 15:00:00 10.05 C 7.52 g/m*3 9.35 C 6.7 km/h
1695 03-04-2019 16:00:00 10.2 C 7.47 g/m*3 10.2 C 4.675 km/h
1696 03-04-2019 17:00:00 9.45833 C 7.47 g/m*3 9.46 C 2.93333 km/h
1697 03-04-2019 18:00:00 7.93333 C 7.42 g/m*3 7.93 C 1.6 km/h
1698 03-04-2019 19:00:00 7.025 C 7.2 g/m*3 7.03 C 0.26667 km/h
1699 03-04-2019 20:00:00 6.45 C 7 g/m*3 6.45 C 0 km/h
1700 03-04-2019 21:00:00 6.23333 C 6.98 g/m*3 6.23 C 0 km/h
Sensor: Nr:Datum:Temp:Abs-Feuchte:Windchill:Wind:
Aussen-T/F 1701 03-04-2019 22:00:00 5.875 C 6.84 g/m*3 5.88 C 0.13333 km/h
1702 03-04-2019 23:00:00 5.63333 C 6.73 g/m*3 5.63 C 0.13333 km/h
1703 04-04-2019 00:00:00 5.65 C 6.77 g/m*3 5.65 C 0.4 km/h
1704 04-04-2019 01:00:00 5.325 C 6.64 g/m*3 5.33 C 1.06667 km/h
1705 04-04-2019 02:00:00 5.41667 C 6.71 g/m*3 5.42 C 2.13333 km/h
1706 04-04-2019 03:00:00 5.6 C 6.79 g/m*3 5.6 C 0 km/h
1707 04-04-2019 04:00:00 5.54167 C 6.76 g/m*3 5.54 C 0 km/h
1708 04-04-2019 05:00:00 5.60833 C 6.79 g/m*3 5.61 C 0 km/h
1709 04-04-2019 06:00:00 5.475 C 6.73 g/m*3 5.48 C 0 km/h
1710 04-04-2019 07:00:00 5.34167 C 6.67 g/m*3 5.34 C 0 km/h
1711 04-04-2019 08:00:00 5.61667 C 6.79 g/m*3 5.62 C 0 km/h
1712 04-04-2019 09:00:00 5.93333 C 6.97 g/m*3 5.93 C 0.66667 km/h
1713 04-04-2019 10:00:00 6.075 C 7 g/m*3 6.08 C 1.46667 km/h
1714 04-04-2019 11:00:00 6.65833 C 7.07 g/m*3 6.66 C 2.26667 km/h
1715 04-04-2019 12:00:00 6.95 C 6.91 g/m*3 6.17 C 5.375 km/h
1716 04-04-2019 13:00:00 6.69167 C 6.96 g/m*3 6.69 C 2.80833 km/h
1717 04-04-2019 14:00:00 6.4 C 6.84 g/m*3 6.4 C 4.14167 km/h
1718 04-04-2019 15:00:00 6.85833 C 6.99 g/m*3 6.86 C 0.4 km/h
1719 04-04-2019 16:00:00 7.08333 C 7.09 g/m*3 7.08 C 1.73333 km/h
1720 04-04-2019 17:00:00 7.43333 C 7.03 g/m*3 7.43 C 4.55 km/h
1721 04-04-2019 18:00:00 7.56667 C 6.85 g/m*3 7.57 C 3.475 km/h
1722 04-04-2019 19:00:00 7.25833 C 6.86 g/m*3 7.26 C 1.33333 km/h
1723 04-04-2019 20:00:00 5.95833 C 6.64 g/m*3 5.96 C 1.46667 km/h
1724 04-04-2019 21:00:00 5.29167 C 6.48 g/m*3 5.29 C 1.33333 km/h
1725 04-04-2019 22:00:00 5.08333 C 6.45 g/m*3 5.08 C 0.53333 km/h
Sensor: Nr:Datum:Temp:Abs-Feuchte:Windchill:Wind:
Aussen-T/F 1726 04-04-2019 23:00:00 4.575 C 6.24 g/m*3 4.58 C 0 km/h
1727 05-04-2019 00:00:00 4.10833 C 6.08 g/m*3 4.11 C 0 km/h
1728 05-04-2019 01:00:00 3.525 C 5.87 g/m*3 3.53 C 0 km/h
1729 05-04-2019 02:00:00 3.775 C 6.01 g/m*3 3.78 C 0 km/h
1730 05-04-2019 03:00:00 3.85833 C 6.05 g/m*3 3.86 C 0 km/h
1731 05-04-2019 04:00:00 4.06667 C 6.13 g/m*3 4.07 C 0 km/h
1732 05-04-2019 05:00:00 3.93333 C 6.08 g/m*3 3.93 C 0 km/h
1733 05-04-2019 06:00:00 3.9 C 6.06 g/m*3 3.9 C 0 km/h
1734 05-04-2019 07:00:00 4.13333 C 6.2 g/m*3 4.13 C 0 km/h
1735 05-04-2019 08:00:00 4.64167 C 6.44 g/m*3 4.64 C 0 km/h
1736 05-04-2019 09:00:00 5.3 C 6.72 g/m*3 5.3 C 3.06667 km/h
1737 05-04-2019 10:00:00 5.89167 C 6.89 g/m*3 5.89 C 1.2 km/h
1738 05-04-2019 11:00:00 7.16667 C 7.06 g/m*3 6.34 C 5.60833 km/h
1739 05-04-2019 12:00:00 8.025 C 7.1 g/m*3 6.87 C 7.23333 km/h
1740 05-04-2019 13:00:00 8.19167 C 7.07 g/m*3 8.19 C 4.54167 km/h
1741 05-04-2019 14:00:00 8.41667 C 7.1 g/m*3 8.42 C 3.46667 km/h
1742 05-04-2019 15:00:00 8.55 C 7.21 g/m*3 8.55 C 4.40833 km/h
1743 05-04-2019 16:00:00 8.58333 C 7.32 g/m*3 8.08 C 5.20833 km/h
1744 05-04-2019 17:00:00 8.41667 C 7.4 g/m*3 8.42 C 4.14167 km/h
1745 05-04-2019 18:00:00 8.3 C 7.49 g/m*3 8.3 C 2.94167 km/h
1746 05-04-2019 19:00:00 8.19167 C 7.55 g/m*3 8.19 C 0 km/h
1747 05-04-2019 20:00:00 7.925 C 7.55 g/m*3 7.93 C 0 km/h
1748 05-04-2019 21:00:00 7.69167 C 7.54 g/m*3 7.69 C 0 km/h
1749 05-04-2019 22:00:00 7.61667 C 7.58 g/m*3 7.62 C 0 km/h
1750 05-04-2019 23:00:00 7.6 C 7.61 g/m*3 7.6 C 0 km/h
Sensor: Nr:Datum:Temp:Abs-Feuchte:Windchill:Wind:
Aussen-T/F 1751 06-04-2019 00:00:00 7.45833 C 7.58 g/m*3 7.46 C 0 km/h
1752 06-04-2019 01:00:00 7.40833 C 7.63 g/m*3 7.41 C 0 km/h
1753 06-04-2019 02:00:00 7.225 C 7.54 g/m*3 7.23 C 0 km/h
1754 06-04-2019 03:00:00 6.14167 C 6.97 g/m*3 6.14 C 2.93333 km/h
1755 06-04-2019 04:00:00 5.15833 C 6.57 g/m*3 5.16 C 0.13333 km/h
1756 06-04-2019 05:00:00 5.01667 C 6.53 g/m*3 5.02 C 0 km/h
1757 06-04-2019 06:00:00 4.675 C 6.4 g/m*3 4.68 C 0 km/h
1758 06-04-2019 07:00:00 5.13333 C 6.63 g/m*3 5.13 C 0 km/h
1759 06-04-2019 08:00:00 5.71667 C 6.91 g/m*3 5.72 C 0.4 km/h
1760 06-04-2019 09:00:00 6.025 C 7.05 g/m*3 6.03 C 0.53333 km/h
1761 06-04-2019 10:00:00 7.325 C 7.69 g/m*3 7.33 C 0 km/h
1762 06-04-2019 11:00:00 9.825 C 8.4 g/m*3 9.09 C 6.70833 km/h
1763 06-04-2019 12:00:00 12.51667 C 8.42 g/m*3 12.52 C 5.89167 km/h
1764 06-04-2019 13:00:00 14.375 C 8.5 g/m*3 14.38 C 8.325 km/h
1765 06-04-2019 14:00:00 16.04167 C 8.47 g/m*3 16.04 C 8.85 km/h
1766 06-04-2019 15:00:00 15.96667 C 8.24 g/m*3 15.97 C 9.40833 km/h
1767 06-04-2019 16:00:00 15.81667 C 8.31 g/m*3 15.82 C 7.925 km/h
1768 06-04-2019 17:00:00 16.30833 C 8.41 g/m*3 16.31 C 8.05833 km/h
1769 06-04-2019 18:00:00 17.31667 C 8.61 g/m*3 17.32 C 6.175 km/h
1770 06-04-2019 19:00:00 16.46667 C 9.06 g/m*3 16.47 C 0.53333 km/h
1771 06-04-2019 20:00:00 12.50833 C 8.76 g/m*3 12.51 C 0 km/h
1772 06-04-2019 21:00:00 11.1 C 8.53 g/m*3 11.1 C 0 km/h
1773 06-04-2019 22:00:00 10.05 C 8.28 g/m*3 10.05 C 0 km/h
1774 06-04-2019 23:00:00 9.3 C 8.04 g/m*3 9.3 C 0 km/h
1775 07-04-2019 00:00:00 8.40833 C 7.77 g/m*3 8.41 C 0 km/h
Sensor: Nr:Datum:Temp:Abs-Feuchte:Windchill:Wind:
Aussen-T/F 1776 07-04-2019 01:00:00 7.75833 C 7.54 g/m*3 7.76 C 0 km/h
1777 07-04-2019 02:00:00 7.175 C 7.34 g/m*3 7.18 C 0 km/h
1778 07-04-2019 03:00:00 6.775 C 7.23 g/m*3 6.78 C 0 km/h
1779 07-04-2019 04:00:00 6.09167 C 6.91 g/m*3 6.09 C 0 km/h
1780 07-04-2019 05:00:00 5.68333 C 6.75 g/m*3 5.68 C 0 km/h
1781 07-04-2019 06:00:00 5.43333 C 6.71 g/m*3 5.43 C 0 km/h
1782 07-04-2019 07:00:00 4.68333 C 6.37 g/m*3 4.68 C 0 km/h
1783 07-04-2019 08:00:00 5.23333 C 6.64 g/m*3 5.23 C 0 km/h
1784 07-04-2019 09:00:00 6.14167 C 7.11 g/m*3 6.14 C 0.4 km/h
1785 07-04-2019 10:00:00 8.25 C 8.16 g/m*3 8.25 C 0.4 km/h
1786 07-04-2019 11:00:00 12.725 C 8.8 g/m*3 12.73 C 10.08333 km/h
1787 07-04-2019 12:00:00 15.79167 C 7.95 g/m*3 15.79 C 12.75833 km/h
1788 07-04-2019 13:00:00 17.00833 C 7.47 g/m*3 17.01 C 11.15833 km/h
1789 07-04-2019 14:00:00 18.25833 C 7.16 g/m*3 18.26 C 16.9 km/h
1790 07-04-2019 15:00:00 19.13333 C 6.83 g/m*3 19.13 C 12.225 km/h
1791 07-04-2019 16:00:00 20 C 6.81 g/m*3 20 C 11.68333 km/h
1792 07-04-2019 17:00:00 20.88333 C 7.02 g/m*3 20.88 C 8.31667 km/h
1793 07-04-2019 18:00:00 19.09167 C 7.91 g/m*3 19.09 C 5.775 km/h
1794 07-04-2019 19:00:00 16.95 C 8.97 g/m*3 16.95 C 0.13333 km/h
1795 07-04-2019 20:00:00 15.14167 C 8.86 g/m*3 15.14 C 2.8 km/h
1796 07-04-2019 21:00:00 14.49167 C 8.9 g/m*3 14.49 C 0.8 km/h
1797 07-04-2019 22:00:00 13.95 C 8.9 g/m*3 13.95 C 0 km/h
1798 07-04-2019 23:00:00 13.44167 C 9.12 g/m*3 13.44 C 0 km/h
1799 08-04-2019 00:00:00 12.95 C 9.18 g/m*3 12.95 C 0.13333 km/h
1800 08-04-2019 01:00:00 12.53333 C 9.12 g/m*3 12.53 C 0.13333 km/h
Sensor: Nr:Datum:Temp:Abs-Feuchte:Windchill:Wind:
Aussen-T/F 1801 08-04-2019 02:00:00 11.975 C 8.98 g/m*3 11.98 C 0.26667 km/h
1802 08-04-2019 03:00:00 11.60833 C 8.9 g/m*3 11.61 C 0.8 km/h
1803 08-04-2019 04:00:00 11.23333 C 8.83 g/m*3 11.23 C 0.13333 km/h
1804 08-04-2019 05:00:00 11.06667 C 8.85 g/m*3 11.07 C 0.13333 km/h
1805 08-04-2019 06:00:00 10.66667 C 8.69 g/m*3 10.67 C 0.13333 km/h
1806 08-04-2019 07:00:00 10.025 C 8.5 g/m*3 10.03 C 0 km/h
1807 08-04-2019 08:00:00 10.425 C 8.87 g/m*3 10.43 C 0 km/h
1808 08-04-2019 09:00:00 11.5 C 9.16 g/m*3 11.5 C 1.46667 km/h
1809 08-04-2019 10:00:00 12.45833 C 9.29 g/m*3 12.46 C 1.6 km/h
1810 08-04-2019 11:00:00 13.16667 C 9.47 g/m*3 13.17 C 1.46667 km/h
1811 08-04-2019 12:00:00 13.15 C 9.54 g/m*3 13.15 C 1.2 km/h
1812 08-04-2019 13:00:00 13.48333 C 9.73 g/m*3 13.48 C 1.06667 km/h
1813 08-04-2019 14:00:00 15.05 C 9.93 g/m*3 15.05 C 3.73333 km/h
1814 08-04-2019 15:00:00 16.80833 C 9.88 g/m*3 16.81 C 6.55833 km/h
1815 08-04-2019 16:00:00 17.05833 C 9.84 g/m*3 17.06 C 2.93333 km/h
1816 08-04-2019 17:00:00 15.05 C 10.8 g/m*3 15.05 C 0.53333 km/h
1817 08-04-2019 18:00:00 14.35833 C 10.75 g/m*3 14.36 C 0.93333 km/h
1818 08-04-2019 19:00:00 13.84167 C 10.29 g/m*3 13.84 C 1.6 km/h
1819 08-04-2019 20:00:00 12.875 C 10.06 g/m*3 12.88 C 0.4 km/h
1820 08-04-2019 21:00:00 11.425 C 9.52 g/m*3 11.43 C 3.86667 km/h
1821 08-04-2019 22:00:00 11.1 C 9.53 g/m*3 11.1 C 1.06667 km/h
1822 08-04-2019 23:00:00 10.93333 C 9.45 g/m*3 10.93 C 0.53333 km/h
1823 09-04-2019 00:00:00 10.20833 C 9.04 g/m*3 10.21 C 0.93333 km/h
1824 09-04-2019 01:00:00 10.16667 C 9.08 g/m*3 10.17 C 0.26667 km/h
1825 09-04-2019 02:00:00 10.44167 C 9.28 g/m*3 10.44 C 0 km/h
Sensor: Nr:Datum:Temp:Abs-Feuchte:Windchill:Wind:
Aussen-T/F 1826 09-04-2019 03:00:00 10.15833 C 9.11 g/m*3 10.16 C 0 km/h
1827 09-04-2019 04:00:00 9.73333 C 8.87 g/m*3 9.73 C 0 km/h
1828 09-04-2019 05:00:00 9.025 C 8.48 g/m*3 9.03 C 0 km/h
1829 09-04-2019 06:00:00 8.94167 C 8.47 g/m*3 8.94 C 0 km/h
1830 09-04-2019 07:00:00 9.30833 C 8.72 g/m*3 9.31 C 0 km/h
1831 09-04-2019 08:00:00 9.875 C 9.04 g/m*3 9.88 C 0 km/h
1832 09-04-2019 09:00:00 10.50833 C 9.41 g/m*3 10.51 C 0.53333 km/h
1833 09-04-2019 10:00:00 11.09167 C 9.65 g/m*3 11.09 C 1.2 km/h
1834 09-04-2019 11:00:00 11.90833 C 10.03 g/m*3 11.91 C 2.13333 km/h
1835 09-04-2019 12:00:00 12.83333 C 10.38 g/m*3 12.83 C 1.2 km/h
1836 09-04-2019 13:00:00 14.475 C 10.69 g/m*3 14.48 C 3.2 km/h
1837 09-04-2019 14:00:00 16.075 C 10.8 g/m*3 16.08 C 6.83333 km/h
1838 09-04-2019 15:00:00 16.325 C 10.83 g/m*3 16.33 C 5.49167 km/h
1839 09-04-2019 16:00:00 16.08333 C 10.79 g/m*3 16.08 C 5.475 km/h
1840 09-04-2019 17:00:00 15.85 C 10.69 g/m*3 15.85 C 0.66667 km/h
1841 09-04-2019 18:00:00 15.4 C 10.9 g/m*3 15.4 C 0.13333 km/h
1842 09-04-2019 19:00:00 14.58333 C 10.17 g/m*3 14.58 C 2.80833 km/h
1843 09-04-2019 20:00:00 13.625 C 9.69 g/m*3 13.63 C 0.93333 km/h
1844 09-04-2019 21:00:00 12.48333 C 9.24 g/m*3 12.48 C 0.4 km/h
1845 09-04-2019 22:00:00 12.36667 C 8.16 g/m*3 12.37 C 4.53333 km/h
1846 09-04-2019 23:00:00 12.16667 C 7.6 g/m*3 12.17 C 7.38333 km/h
1847 10-04-2019 00:00:00 10.925 C 7.85 g/m*3 10.93 C 2.94167 km/h
1848 10-04-2019 01:00:00 10.36667 C 7.52 g/m*3 10.37 C 4.28333 km/h
1849 10-04-2019 02:00:00 9.91667 C 7.56 g/m*3 9.92 C 1.6 km/h
1850 10-04-2019 03:00:00 9.775 C 7.29 g/m*3 9.78 C 3.35 km/h
Sensor: Nr:Datum:Temp:Abs-Feuchte:Windchill:Wind:
Aussen-T/F 1851 10-04-2019 04:00:00 8.79167 C 7.06 g/m*3 8.79 C 0.53333 km/h
1852 10-04-2019 05:00:00 7.34167 C 6.71 g/m*3 7.34 C 0.53333 km/h
1853 10-04-2019 06:00:00 6.50833 C 6.47 g/m*3 6.51 C 0.66667 km/h
1854 10-04-2019 07:00:00 6.6 C 6.37 g/m*3 6.6 C 0.26667 km/h
1855 10-04-2019 08:00:00 7.675 C 6.24 g/m*3 6.99 C 5.36667 km/h
1856 10-04-2019 09:00:00 8.50833 C 6.14 g/m*3 6.74 C 10.625 km/h
1857 10-04-2019 10:00:00 9.575 C 6.31 g/m*3 7.82 C 11.83333 km/h
1858 10-04-2019 11:00:00 11.18333 C 6.41 g/m*3 11.18 C 12.9 km/h
1859 10-04-2019 12:00:00 12.16667 C 6.12 g/m*3 12.17 C 11.01667 km/h
1860 10-04-2019 13:00:00 13.425 C 6.32 g/m*3 13.43 C 9.94167 km/h
1861 10-04-2019 14:00:00 14.24167 C 6.08 g/m*3 14.24 C 12.76667 km/h
1862 10-04-2019 15:00:00 15.1 C 6.04 g/m*3 15.1 C 13.43333 km/h
1863 10-04-2019 16:00:00 16.075 C 6.01 g/m*3 16.08 C 13.825 km/h
1864 10-04-2019 17:00:00 16.6 C 5.79 g/m*3 16.6 C 12.35833 km/h
1865 10-04-2019 18:00:00 15.94167 C 5.17 g/m*3 15.94 C 14.5 km/h
1866 10-04-2019 19:00:00 14.4 C 5.28 g/m*3 14.4 C 14.9 km/h
1867 10-04-2019 20:00:00 11.34167 C 5.8 g/m*3 11.34 C 3.20833 km/h
1868 10-04-2019 21:00:00 8.9 C 5.88 g/m*3 8.9 C 2.13333 km/h
1869 10-04-2019 22:00:00 7.38333 C 5.81 g/m*3 7.38 C 0.4 km/h
1870 10-04-2019 23:00:00 6.46667 C 5.71 g/m*3 6.47 C 0.66667 km/h
1871 11-04-2019 00:00:00 5.75 C 5.52 g/m*3 5.75 C 1.34167 km/h
1872 11-04-2019 01:00:00 5.03333 C 5.31 g/m*3 5.03 C 0.53333 km/h
1873 11-04-2019 02:00:00 4.4 C 5.15 g/m*3 4.4 C 1.2 km/h
1874 11-04-2019 03:00:00 3.85833 C 4.98 g/m*3 3.86 C 0 km/h
1875 11-04-2019 04:00:00 2.9 C 4.76 g/m*3 2.9 C 0 km/h
Sensor: Nr:Datum:Temp:Abs-Feuchte:Windchill:Wind:
Aussen-T/F 1876 11-04-2019 05:00:00 2.30833 C 4.64 g/m*3 2.31 C 0.26667 km/h
1877 11-04-2019 06:00:00 1.71667 C 4.54 g/m*3 1.72 C 0 km/h
1878 11-04-2019 07:00:00 1.21667 C 4.49 g/m*3 1.22 C 0 km/h
1879 11-04-2019 08:00:00 1.8 C 4.69 g/m*3 1.8 C 0 km/h
1880 11-04-2019 09:00:00 3.9 C 4.89 g/m*3 3.9 C 4.69167 km/h
1881 11-04-2019 10:00:00 6.76667 C 4.43 g/m*3 3.92 C 15.03333 km/h
1882 11-04-2019 11:00:00 8.1 C 4.14 g/m*3 5.23 C 17.70833 km/h
1883 11-04-2019 12:00:00 8.91667 C 4.03 g/m*3 6.41 C 16.36667 km/h
1884 11-04-2019 13:00:00 9.875 C 4.05 g/m*3 7.86 C 14.23333 km/h
1885 11-04-2019 14:00:00 11.01667 C 4.09 g/m*3 11.02 C 16.5 km/h
1886 11-04-2019 15:00:00 12 C 4.13 g/m*3 12 C 17.175 km/h
1887 11-04-2019 16:00:00 12.76667 C 4.04 g/m*3 12.77 C 16.36667 km/h
1888 11-04-2019 17:00:00 13.31667 C 4.02 g/m*3 13.32 C 14.76667 km/h
1889 11-04-2019 18:00:00 13.025 C 3.99 g/m*3 13.03 C 11.41667 km/h
1890 11-04-2019 19:00:00 11.95833 C 4.06 g/m*3 11.96 C 7.65833 km/h
1891 11-04-2019 20:00:00 8.95 C 4.36 g/m*3 8.95 C 2.4 km/h
1892 11-04-2019 21:00:00 6.225 C 4.52 g/m*3 6.23 C 2.26667 km/h
1893 11-04-2019 22:00:00 5.35 C 4.45 g/m*3 5.35 C 2.80833 km/h
1894 11-04-2019 23:00:00 5.48333 C 4.26 g/m*3 5.48 C 3.75 km/h
1895 12-04-2019 00:00:00 4.46667 C 4.12 g/m*3 3.34 C 5.35 km/h
1896 12-04-2019 01:00:00 3.54167 C 4.03 g/m*3 3.54 C 3.34167 km/h
1897 12-04-2019 02:00:00 2.15833 C 4.03 g/m*3 2.16 C 2.53333 km/h
1898 12-04-2019 03:00:00 1.60833 C 3.98 g/m*3 1.61 C 3.06667 km/h
1899 12-04-2019 04:00:00 2.15833 C 4.23 g/m*3 2.16 C 0.66667 km/h
1900 12-04-2019 05:00:00 2.70833 C 4.27 g/m*3 2.71 C 0 km/h
Sensor: Nr:Datum:Temp:Abs-Feuchte:Windchill:Wind:
Aussen-T/F 1901 12-04-2019 06:00:00 2.98333 C 4.21 g/m*3 2.98 C 0 km/h
1902 12-04-2019 07:00:00 3.475 C 4.1 g/m*3 3.48 C 3.075 km/h
1903 12-04-2019 08:00:00 4.63333 C 3.85 g/m*3 1.97 C 11.16667 km/h
1904 12-04-2019 09:00:00 5.03333 C 3.82 g/m*3 2.3 C 11.95833 km/h
1905 12-04-2019 10:00:00 5.49167 C 3.74 g/m*3 1.91 C 18.23333 km/h
1906 12-04-2019 11:00:00 5.98333 C 3.76 g/m*3 2.37 C 19.43333 km/h
1907 12-04-2019 12:00:00 6.78333 C 3.82 g/m*3 4.08 C 14.09167 km/h
1908 12-04-2019 13:00:00 7.15833 C 3.74 g/m*3 4.9 C 11.825 km/h
1909 12-04-2019 14:00:00 7.26667 C 3.69 g/m*3 4.83 C 13.03333 km/h
1910 12-04-2019 15:00:00 7.56667 C 3.73 g/m*3 5.26 C 12.63333 km/h
1911 12-04-2019 16:00:00 7.3 C 3.74 g/m*3 5.16 C 11.3 km/h
1912 12-04-2019 17:00:00 7.1 C 3.64 g/m*3 5.46 C 8.61667 km/h
1913 12-04-2019 18:00:00 6.83333 C 3.76 g/m*3 4.53 C 11.7 km/h
1914 12-04-2019 19:00:00 6.525 C 3.91 g/m*3 4.41 C 10.35833 km/h
1915 12-04-2019 20:00:00 6.06667 C 4 g/m*3 4.3 C 8.34167 km/h
1916 12-04-2019 21:00:00 5.55 C 4.25 g/m*3 4.34 C 6.04167 km/h
1917 12-04-2019 22:00:00 4.39167 C 4.34 g/m*3 4.39 C 0.26667 km/h
1918 12-04-2019 23:00:00 3.58333 C 4.25 g/m*3 3.58 C 0.13333 km/h
1919 13-04-2019 00:00:00 2.95 C 4.3 g/m*3 2.95 C 0.66667 km/h
1920 13-04-2019 01:00:00 2.875 C 4.31 g/m*3 2.88 C 2.13333 km/h
1921 13-04-2019 02:00:00 2.61667 C 4.39 g/m*3 2.62 C 1.6 km/h
1922 13-04-2019 03:00:00 2.30833 C 4.42 g/m*3 2.31 C 0.26667 km/h
1923 13-04-2019 04:00:00 2.6 C 4.48 g/m*3 2.6 C 2.275 km/h
1924 13-04-2019 05:00:00 2.54167 C 4.5 g/m*3 2.54 C 0.4 km/h
1925 13-04-2019 06:00:00 2.28333 C 4.56 g/m*3 2.28 C 0.93333 km/h
Sensor: Nr:Datum:Temp:Abs-Feuchte:Windchill:Wind:
Aussen-T/F 1926 13-04-2019 07:00:00 2.5 C 4.6 g/m*3 2.5 C 2 km/h
1927 13-04-2019 08:00:00 3.125 C 4.63 g/m*3 1.24 C 6.975 km/h
1928 13-04-2019 09:00:00 3.60833 C 4.54 g/m*3 1.68 C 7.375 km/h
1929 13-04-2019 10:00:00 4.75833 C 4.42 g/m*3 2.83 C 8.075 km/h
1930 13-04-2019 11:00:00 5.36667 C 4.25 g/m*3 3.66 C 7.65 km/h
1931 13-04-2019 12:00:00 5.96667 C 4.15 g/m*3 3.58 C 11.15 km/h
1932 13-04-2019 13:00:00 5.75833 C 4.51 g/m*3 3.55 C 10.075 km/h
1933 13-04-2019 14:00:00 4.69167 C 5.15 g/m*3 2.3 C 9.93333 km/h
1934 13-04-2019 15:00:00 5.61667 C 5.3 g/m*3 3.85 C 8.05 km/h
1935 13-04-2019 16:00:00 6.21667 C 5.06 g/m*3 3.51 C 13.29167 km/h
1936 13-04-2019 17:00:00 4.55 C 5.59 g/m*3 3.33 C 5.63333 km/h
1937 13-04-2019 18:00:00 6.29167 C 5.7 g/m*3 6.29 C 4.28333 km/h
1938 13-04-2019 19:00:00 5.59167 C 5.48 g/m*3 5.59 C 1.73333 km/h
1939 13-04-2019 20:00:00 4.63333 C 5.35 g/m*3 4.63 C 2.54167 km/h
1940 13-04-2019 21:00:00 3.075 C 5 g/m*3 3.08 C 0 km/h
1941 13-04-2019 22:00:00 1.56667 C 4.72 g/m*3 1.57 C 0 km/h
1942 13-04-2019 23:00:00 1.04167 C 4.68 g/m*3 1.04 C 0 km/h
1943 14-04-2019 00:00:00 0.475 C 4.56 g/m*3 0.48 C 0 km/h
1944 14-04-2019 01:00:00 0.45 C 4.63 g/m*3 0.45 C 0 km/h
1945 14-04-2019 02:00:00 1.23333 C 4.92 g/m*3 1.23 C 0.13333 km/h
1946 14-04-2019 03:00:00 1.575 C 5.02 g/m*3 1.58 C 0.53333 km/h
1947 14-04-2019 04:00:00 1.63333 C 5.04 g/m*3 1.63 C 0.26667 km/h
1948 14-04-2019 05:00:00 1.56667 C 5.05 g/m*3 1.57 C 0.66667 km/h
1949 14-04-2019 06:00:00 1.25833 C 4.97 g/m*3 1.26 C 0 km/h
1950 14-04-2019 07:00:00 1.225 C 5.01 g/m*3 1.23 C 0 km/h
Sensor: Nr:Datum:Temp:Abs-Feuchte:Windchill:Wind:
Aussen-T/F 1951 14-04-2019 08:00:00 1.5 C 5.11 g/m*3 1.5 C 0 km/h
1952 14-04-2019 09:00:00 2.66667 C 5.57 g/m*3 2.67 C 0.13333 km/h
1953 14-04-2019 10:00:00 4.15 C 6.06 g/m*3 4.15 C 4.69167 km/h
1954 14-04-2019 11:00:00 6.00833 C 6.14 g/m*3 4.71 C 6.575 km/h
1955 14-04-2019 12:00:00 7.71667 C 5.62 g/m*3 5.62 C 11.55833 km/h
1956 14-04-2019 13:00:00 8.99167 C 5.14 g/m*3 7.21 C 11.275 km/h
1957 14-04-2019 14:00:00 10.43333 C 5.05 g/m*3 8.63 C 13.56667 km/h
1958 14-04-2019 15:00:00 11.46667 C 4.99 g/m*3 11.47 C 12.89167 km/h
1959 14-04-2019 16:00:00 12.08333 C 4.9 g/m*3 12.08 C 12.63333 km/h
1960 14-04-2019 17:00:00 12.50833 C 4.81 g/m*3 12.51 C 13.69167 km/h
1961 14-04-2019 18:00:00 12.06667 C 4.87 g/m*3 12.07 C 12.625 km/h
1962 14-04-2019 19:00:00 10.99167 C 5.18 g/m*3 9.87 C 9.66667 km/h
1963 14-04-2019 20:00:00 8.25 C 5.41 g/m*3 8.25 C 2.40833 km/h
1964 14-04-2019 21:00:00 5.925 C 5.5 g/m*3 5.93 C 2.14167 km/h
1965 14-04-2019 22:00:00 4.61667 C 5.42 g/m*3 4.62 C 1.86667 km/h
1966 14-04-2019 23:00:00 4.06667 C 5.39 g/m*3 4.07 C 1.6 km/h
1967 15-04-2019 00:00:00 4.11667 C 5.51 g/m*3 4.12 C 0.93333 km/h
1968 15-04-2019 01:00:00 5.075 C 5.83 g/m*3 5.08 C 0.53333 km/h
1969 15-04-2019 02:00:00 5.64167 C 5.91 g/m*3 5.64 C 0.26667 km/h
1970 15-04-2019 03:00:00 4.81667 C 5.71 g/m*3 4.82 C 0.66667 km/h
1971 15-04-2019 04:00:00 4.78333 C 5.81 g/m*3 4.78 C 0 km/h
1972 15-04-2019 05:00:00 4.26667 C 5.68 g/m*3 4.27 C 0.4 km/h
1973 15-04-2019 06:00:00 4.48333 C 5.87 g/m*3 4.48 C 0 km/h
1974 15-04-2019 07:00:00 5.1 C 6.13 g/m*3 5.1 C 0 km/h
1975 15-04-2019 08:00:00 5.98333 C 6.38 g/m*3 5.98 C 2.14167 km/h
Sensor: Nr:Datum:Temp:Abs-Feuchte:Windchill:Wind:
Aussen-T/F 1976 15-04-2019 09:00:00 7.175 C 6.61 g/m*3 5.98 C 6.84167 km/h
1977 15-04-2019 10:00:00 8.34167 C 6.78 g/m*3 6.68 C 9.83333 km/h
1978 15-04-2019 11:00:00 10.15833 C 7.1 g/m*3 9.48 C 6.70833 km/h
1979 15-04-2019 12:00:00 12.475 C 7.23 g/m*3 12.48 C 13.025 km/h
1980 15-04-2019 13:00:00 14.29167 C 7.15 g/m*3 14.29 C 15.16667 km/h
1981 15-04-2019 14:00:00 16.025 C 7.25 g/m*3 16.02 C 14.23333 km/h
1982 15-04-2019 15:00:00 17.53333 C 6.95 g/m*3 17.53 C 16.63333 km/h
1983 15-04-2019 16:00:00 18.31667 C 7 g/m*3 18.32 C 14.75833 km/h
1984 15-04-2019 17:00:00 18.95833 C 6.68 g/m*3 18.96 C 11.7 km/h
1985 15-04-2019 18:00:00 19.13333 C 6.32 g/m*3 19.13 C 11.95833 km/h
1986 15-04-2019 19:00:00 18.19167 C 6.42 g/m*3 18.19 C 5.89167 km/h
1987 15-04-2019 20:00:00 14.2 C 6.99 g/m*3 14.2 C 3.6 km/h
1988 15-04-2019 21:00:00 11.575 C 6.81 g/m*3 11.58 C 3.6 km/h
1989 15-04-2019 22:00:00 10.24167 C 6.5 g/m*3 10.24 C 0.53333 km/h
1990 15-04-2019 23:00:00 9.24167 C 6.19 g/m*3 9.24 C 3.6 km/h
1991 16-04-2019 00:00:00 8.16667 C 5.98 g/m*3 8.17 C 4.66667 km/h
1992 16-04-2019 01:00:00 7.25833 C 5.82 g/m*3 7.26 C 2.93333 km/h
1993 16-04-2019 02:00:00 6.48333 C 5.69 g/m*3 6.48 C 2.53333 km/h
1994 16-04-2019 03:00:00 6.06667 C 5.55 g/m*3 6.07 C 2 km/h
1995 16-04-2019 04:00:00 5.83333 C 5.4 g/m*3 5.83 C 2.66667 km/h
1996 16-04-2019 05:00:00 5.50833 C 5.35 g/m*3 5.51 C 2.93333 km/h
1997 16-04-2019 06:00:00 4.99167 C 5.27 g/m*3 4.99 C 1.46667 km/h
1998 16-04-2019 07:00:00 3.91667 C 5.23 g/m*3 3.92 C 0 km/h
1999 16-04-2019 08:00:00 4.51667 C 5.48 g/m*3 4.52 C 0.4 km/h
2000 16-04-2019 09:00:00 6.2 C 5.94 g/m*3 6.2 C 0.66667 km/h
Sensor: Nr:Datum:Temp:Abs-Feuchte:Windchill:Wind:
Aussen-T/F 2001 16-04-2019 10:00:00 10.39167 C 6.13 g/m*3 10.39 C 3.875 km/h
2002 16-04-2019 11:00:00 13.69167 C 6.06 g/m*3 13.69 C 6.85833 km/h
2003 16-04-2019 12:00:00 15.59167 C 6.26 g/m*3 15.59 C 9.28333 km/h
2004 16-04-2019 13:00:00 17.025 C 6.68 g/m*3 17.02 C 9.41667 km/h
2005 16-04-2019 14:00:00 18.3 C 7.24 g/m*3 18.3 C 9.14167 km/h
2006 16-04-2019 15:00:00 19.025 C 7.4 g/m*3 19.02 C 8.45833 km/h
2007 16-04-2019 16:00:00 18.85833 C 7.5 g/m*3 18.86 C 7.24167 km/h
2008 16-04-2019 17:00:00 18.09167 C 8.11 g/m*3 18.09 C 16.36667 km/h
2009 16-04-2019 18:00:00 15.5 C 8.21 g/m*3 15.5 C 12.1 km/h
2010 16-04-2019 19:00:00 14.63333 C 8.39 g/m*3 14.63 C 2.55 km/h
2011 16-04-2019 20:00:00 13.25833 C 8.37 g/m*3 13.26 C 0.13333 km/h
2012 16-04-2019 21:00:00 12.29167 C 8.25 g/m*3 12.29 C 0.8 km/h
2013 16-04-2019 22:00:00 11.825 C 8.35 g/m*3 11.83 C 0.66667 km/h
2014 16-04-2019 23:00:00 11.475 C 8.29 g/m*3 11.48 C 0 km/h
2015 17-04-2019 00:00:00 11.01667 C 8.31 g/m*3 11.02 C 0 km/h
2016 17-04-2019 01:00:00 10.725 C 8.68 g/m*3 10.73 C 1.86667 km/h
2017 17-04-2019 02:00:00 10.25833 C 8.74 g/m*3 10.26 C 0.26667 km/h
2018 17-04-2019 03:00:00 9.91667 C 8.72 g/m*3 9.92 C 0 km/h
2019 17-04-2019 04:00:00 9.73333 C 8.71 g/m*3 9.73 C 0 km/h
2020 17-04-2019 05:00:00 9.60833 C 8.71 g/m*3 9.61 C 0 km/h
2021 17-04-2019 06:00:00 9.66667 C 8.77 g/m*3 9.67 C 0 km/h
2022 17-04-2019 07:00:00 10 C 9.02 g/m*3 10 C 0.4 km/h
2023 17-04-2019 08:00:00 10.64167 C 9.39 g/m*3 10.64 C 2.275 km/h
2024 17-04-2019 09:00:00 11.36667 C 9.81 g/m*3 11.37 C 3.2 km/h
2025 17-04-2019 10:00:00 12.30833 C 10.16 g/m*3 12.31 C 2.675 km/h
Sensor: Nr:Datum:Temp:Abs-Feuchte:Windchill:Wind:
Aussen-T/F 2026 17-04-2019 11:00:00 13.04167 C 10.32 g/m*3 13.04 C 4.80833 km/h
2027 17-04-2019 12:00:00 13.675 C 10.3 g/m*3 13.68 C 5.23333 km/h
2028 17-04-2019 13:00:00 14.88333 C 10.47 g/m*3 14.88 C 6.98333 km/h
2029 17-04-2019 14:00:00 16.18333 C 10.25 g/m*3 16.18 C 7.24167 km/h
2030 17-04-2019 15:00:00 17.19167 C 10.21 g/m*3 17.19 C 7.9 km/h
2031 17-04-2019 16:00:00 18.00833 C 9.67 g/m*3 18.01 C 13.01667 km/h
2032 17-04-2019 17:00:00 18.225 C 9.74 g/m*3 18.23 C 7.91667 km/h
2033 17-04-2019 18:00:00 18.16667 C 9.51 g/m*3 18.17 C 5.24167 km/h
2034 17-04-2019 19:00:00 16.38333 C 10.26 g/m*3 16.38 C 0 km/h
2035 17-04-2019 20:00:00 13.575 C 9.15 g/m*3 13.58 C 2.13333 km/h
2036 17-04-2019 21:00:00 11.65 C 8.36 g/m*3 11.65 C 3.2 km/h
2037 17-04-2019 22:00:00 10.36667 C 8 g/m*3 10.37 C 0 km/h
2038 17-04-2019 23:00:00 9.375 C 7.68 g/m*3 9.38 C 0 km/h
2039 18-04-2019 00:00:00 8.70833 C 7.58 g/m*3 8.71 C 0 km/h
2040 18-04-2019 01:00:00 8.75833 C 7.65 g/m*3 8.76 C 0 km/h
2041 18-04-2019 02:00:00 8.55 C 7.51 g/m*3 8.55 C 0 km/h
2042 18-04-2019 03:00:00 8.01667 C 7.15 g/m*3 8.02 C 0 km/h
2043 18-04-2019 04:00:00 7.16667 C 6.89 g/m*3 7.17 C 0 km/h
2044 18-04-2019 05:00:00 6.875 C 6.9 g/m*3 6.88 C 0 km/h
2045 18-04-2019 06:00:00 6.76667 C 6.9 g/m*3 6.77 C 0 km/h
2046 18-04-2019 07:00:00 7.44167 C 7.08 g/m*3 7.44 C 0 km/h
2047 18-04-2019 08:00:00 8.475 C 7.49 g/m*3 8.48 C 0 km/h
2048 18-04-2019 09:00:00 9.88333 C 7.78 g/m*3 9.88 C 2 km/h
2049 18-04-2019 10:00:00 12.95 C 8.06 g/m*3 12.95 C 7.38333 km/h
2050 18-04-2019 11:00:00 16.38333 C 7.92 g/m*3 16.38 C 10.60833 km/h
Sensor: Nr:Datum:Temp:Abs-Feuchte:Windchill:Wind:
Aussen-T/F 2051 18-04-2019 12:00:00 17.65833 C 7.83 g/m*3 17.66 C 12.20833 km/h
2052 18-04-2019 13:00:00 18.76667 C 7.61 g/m*3 18.77 C 12.76667 km/h
2053 18-04-2019 14:00:00 19.91667 C 7.29 g/m*3 19.92 C 15.03333 km/h
2054 18-04-2019 15:00:00 21.35 C 7.23 g/m*3 21.35 C 14.63333 km/h
2055 18-04-2019 16:00:00 22.525 C 6.83 g/m*3 22.53 C 13.7 km/h
2056 18-04-2019 17:00:00 23.375 C 6.88 g/m*3 23.38 C 12.35833 km/h
2057 18-04-2019 18:00:00 23.40833 C 6.89 g/m*3 23.41 C 10.48333 km/h
2058 18-04-2019 19:00:00 22.28333 C 7.18 g/m*3 22.28 C 6.04167 km/h
2059 18-04-2019 20:00:00 18.05833 C 8.09 g/m*3 18.06 C 4 km/h
2060 18-04-2019 21:00:00 15.33333 C 7.77 g/m*3 15.33 C 4.8 km/h
2061 18-04-2019 22:00:00 14.23333 C 7.54 g/m*3 14.23 C 4.8 km/h
2062 18-04-2019 23:00:00 13.08333 C 7.44 g/m*3 13.08 C 2.4 km/h
2063 19-04-2019 00:00:00 11.55833 C 7.45 g/m*3 11.56 C 0 km/h
2064 19-04-2019 01:00:00 10.70833 C 7.37 g/m*3 10.71 C 0.26667 km/h
2065 19-04-2019 02:00:00 11.01667 C 7.17 g/m*3 11.02 C 3.33333 km/h
2066 19-04-2019 03:00:00 10.29167 C 7.05 g/m*3 10.29 C 1.86667 km/h
2067 19-04-2019 04:00:00 9.61667 C 6.99 g/m*3 9.62 C 0.13333 km/h
2068 19-04-2019 05:00:00 8.24167 C 6.84 g/m*3 8.24 C 0 km/h
2069 19-04-2019 06:00:00 7.04167 C 6.51 g/m*3 7.04 C 0 km/h
2070 19-04-2019 07:00:00 6.65 C 6.58 g/m*3 6.65 C 0 km/h
2071 19-04-2019 08:00:00 6.85 C 6.8 g/m*3 6.85 C 0 km/h
2072 19-04-2019 09:00:00 8.975 C 7.61 g/m*3 8.98 C 0.66667 km/h
2073 19-04-2019 10:00:00 13.525 C 7.82 g/m*3 13.53 C 7.66667 km/h
2074 19-04-2019 11:00:00 17.95833 C 7.47 g/m*3 17.96 C 14.1 km/h
2075 19-04-2019 12:00:00 19.9 C 7.13 g/m*3 19.9 C 13.7 km/h
Sensor: Nr:Datum:Temp:Abs-Feuchte:Windchill:Wind:
Aussen-T/F 2076 19-04-2019 13:00:00 21.36667 C 6.41 g/m*3 21.37 C 12.35 km/h
2077 19-04-2019 14:00:00 22.44167 C 6.24 g/m*3 22.44 C 15.43333 km/h
2078 19-04-2019 15:00:00 23.675 C 5.75 g/m*3 23.68 C 14.63333 km/h
2079 19-04-2019 16:00:00 24.89167 C 5.51 g/m*3 24.89 C 13.825 km/h
2080 19-04-2019 17:00:00 25.28333 C 5.26 g/m*3 25.28 C 12.76667 km/h
2081 19-04-2019 18:00:00 25.50833 C 5.29 g/m*3 25.51 C 9.83333 km/h
2082 19-04-2019 19:00:00 24.25 C 5.77 g/m*3 24.25 C 4.95833 km/h
2083 19-04-2019 20:00:00 19.21667 C 6.74 g/m*3 19.22 C 4.66667 km/h
2084 19-04-2019 21:00:00 15.875 C 6.68 g/m*3 15.88 C 2.93333 km/h
2085 19-04-2019 22:00:00 13.33333 C 6.74 g/m*3 13.33 C 0.8 km/h
2086 19-04-2019 23:00:00 11.73333 C 6.73 g/m*3 11.73 C 1.2 km/h
2087 20-04-2019 00:00:00 10.40833 C 6.81 g/m*3 10.41 C 0.4 km/h
2088 20-04-2019 01:00:00 9.45833 C 6.91 g/m*3 9.46 C 0 km/h
2089 20-04-2019 02:00:00 8.55833 C 6.93 g/m*3 8.56 C 0 km/h
2090 20-04-2019 03:00:00 7.64167 C 6.79 g/m*3 7.64 C 0 km/h
2091 20-04-2019 04:00:00 6.85 C 6.68 g/m*3 6.85 C 0 km/h
2092 20-04-2019 05:00:00 6.23333 C 6.58 g/m*3 6.23 C 0 km/h
2093 20-04-2019 06:00:00 5.775 C 6.48 g/m*3 5.78 C 0 km/h
2094 20-04-2019 07:00:00 5.85833 C 6.61 g/m*3 5.86 C 0.13333 km/h
2095 20-04-2019 08:00:00 6.48333 C 6.92 g/m*3 6.48 C 0 km/h
2096 20-04-2019 09:00:00 8.16667 C 7.71 g/m*3 8.17 C 0 km/h
2097 20-04-2019 10:00:00 11.68333 C 8.74 g/m*3 11.68 C 1.33333 km/h
2098 20-04-2019 11:00:00 16.725 C 9.1 g/m*3 16.73 C 3.46667 km/h
2099 20-04-2019 12:00:00 20.225 C 8.22 g/m*3 20.23 C 6.7 km/h
2100 20-04-2019 13:00:00 22.05 C 7.07 g/m*3 22.05 C 10.61667 km/h
Sensor: Nr:Datum:Temp:Abs-Feuchte:Windchill:Wind:
Aussen-T/F 2101 20-04-2019 14:00:00 23.275 C 6.04 g/m*3 23.28 C 11.95 km/h
2102 20-04-2019 15:00:00 24.25833 C 6.13 g/m*3 24.26 C 11.96667 km/h
2103 20-04-2019 16:00:00 25.21667 C 6.21 g/m*3 25.22 C 12.36667 km/h
2104 20-04-2019 17:00:00 25.30833 C 5.89 g/m*3 25.31 C 14.1 km/h
2105 20-04-2019 18:00:00 25.39167 C 5.55 g/m*3 25.39 C 10.89167 km/h
2106 20-04-2019 19:00:00 24.575 C 6.03 g/m*3 24.58 C 5.5 km/h
2107 20-04-2019 20:00:00 19.875 C 7.41 g/m*3 19.88 C 3.6 km/h
2108 20-04-2019 21:00:00 16.175 C 7.52 g/m*3 16.18 C 0.66667 km/h
2109 20-04-2019 22:00:00 13.81667 C 7.54 g/m*3 13.82 C 0 km/h
2110 20-04-2019 23:00:00 12.90833 C 7.4 g/m*3 12.91 C 0 km/h
2111 21-04-2019 00:00:00 12.84167 C 7.27 g/m*3 12.84 C 0 km/h
2112 21-04-2019 01:00:00 12.48333 C 7.18 g/m*3 12.48 C 0 km/h
2113 21-04-2019 02:00:00 11.36667 C 7.19 g/m*3 11.37 C 0 km/h
2114 21-04-2019 03:00:00 10.81667 C 7.23 g/m*3 10.82 C 0 km/h
2115 21-04-2019 04:00:00 9.23333 C 7.01 g/m*3 9.23 C 0 km/h
2116 21-04-2019 05:00:00 7.375 C 6.74 g/m*3 7.38 C 0 km/h
2117 21-04-2019 06:00:00 6.45 C 6.56 g/m*3 6.45 C 0 km/h
2118 21-04-2019 07:00:00 6.68333 C 6.77 g/m*3 6.68 C 0 km/h
2119 21-04-2019 08:00:00 7.16667 C 7.04 g/m*3 7.17 C 0 km/h
2120 21-04-2019 09:00:00 8.675 C 7.73 g/m*3 8.68 C 0 km/h
2121 21-04-2019 10:00:00 11.98333 C 8.67 g/m*3 11.98 C 0 km/h
2122 21-04-2019 11:00:00 16.48333 C 8.88 g/m*3 16.48 C 1.2 km/h
2123 21-04-2019 12:00:00 19.65833 C 7.65 g/m*3 19.66 C 5.08333 km/h
2124 21-04-2019 13:00:00 21.525 C 6.63 g/m*3 21.53 C 7.65833 km/h
2125 21-04-2019 14:00:00 22.98333 C 6.16 g/m*3 22.98 C 8.2 km/h
Sensor: Nr:Datum:Temp:Abs-Feuchte:Windchill:Wind:
Aussen-T/F 2126 21-04-2019 15:00:00 24.46667 C 6.78 g/m*3 24.47 C 9.81667 km/h
2127 21-04-2019 16:00:00 25.73333 C 6.32 g/m*3 25.73 C 11.41667 km/h
2128 21-04-2019 17:00:00 25.94167 C 5.95 g/m*3 25.94 C 11.825 km/h
2129 21-04-2019 18:00:00 26.13333 C 5.97 g/m*3 26.13 C 7.50833 km/h
2130 21-04-2019 19:00:00 24.58333 C 6.37 g/m*3 24.58 C 4.95 km/h
2131 21-04-2019 20:00:00 19.69167 C 6.89 g/m*3 19.69 C 3.6 km/h
2132 21-04-2019 21:00:00 16.725 C 7.21 g/m*3 16.73 C 2.26667 km/h
2133 21-04-2019 22:00:00 13.85833 C 7.54 g/m*3 13.86 C 0 km/h
2134 21-04-2019 23:00:00 12.21667 C 7.25 g/m*3 12.22 C 0 km/h
2135 22-04-2019 00:00:00 10.54167 C 7.03 g/m*3 10.54 C 0 km/h
2136 22-04-2019 01:00:00 9.24167 C 6.98 g/m*3 9.24 C 0 km/h
2137 22-04-2019 02:00:00 8.2 C 6.91 g/m*3 8.2 C 0.13333 km/h
2138 22-04-2019 03:00:00 7.56667 C 6.83 g/m*3 7.57 C 0.13333 km/h
2139 22-04-2019 04:00:00 6.64167 C 6.65 g/m*3 6.64 C 0 km/h
2140 22-04-2019 05:00:00 5.89167 C 6.51 g/m*3 5.89 C 0 km/h
2141 22-04-2019 06:00:00 5.475 C 6.43 g/m*3 5.48 C 0 km/h
2142 22-04-2019 07:00:00 5.74167 C 6.63 g/m*3 5.74 C 0 km/h
2143 22-04-2019 08:00:00 6.54167 C 6.99 g/m*3 6.54 C 0 km/h
2144 22-04-2019 09:00:00 8.40833 C 7.81 g/m*3 8.41 C 0.8 km/h
2145 22-04-2019 10:00:00 12.55 C 8.39 g/m*3 12.55 C 3.075 km/h
2146 22-04-2019 11:00:00 17.96667 C 7.52 g/m*3 17.97 C 11.825 km/h
2147 22-04-2019 12:00:00 20.89167 C 6.96 g/m*3 20.89 C 12.76667 km/h
2148 22-04-2019 13:00:00 22.65 C 5.99 g/m*3 22.65 C 14.36667 km/h
2149 22-04-2019 14:00:00 23.45 C 6.13 g/m*3 23.45 C 15.3 km/h
2150 22-04-2019 15:00:00 24.375 C 6.32 g/m*3 24.38 C 15.03333 km/h
Sensor: Nr:Datum:Temp:Abs-Feuchte:Windchill:Wind:
Aussen-T/F 2151 22-04-2019 16:00:00 25.49167 C 6.11 g/m*3 25.49 C 15.83333 km/h
2152 22-04-2019 17:00:00 25.70833 C 5.93 g/m*3 25.71 C 12.9 km/h
2153 22-04-2019 18:00:00 24.4 C 6.25 g/m*3 24.4 C 4.55833 km/h
2154 22-04-2019 19:00:00 21.4 C 7.8 g/m*3 21.4 C 2 km/h
2155 22-04-2019 20:00:00 19.55 C 7.24 g/m*3 19.55 C 5.50833 km/h
2156 22-04-2019 21:00:00 16.975 C 7.06 g/m*3 16.98 C 3.46667 km/h
2157 22-04-2019 22:00:00 15.15 C 6.63 g/m*3 15.15 C 3.74167 km/h
2158 22-04-2019 23:00:00 15.04167 C 6.34 g/m*3 15.04 C 5.36667 km/h

Maximal/Minimal-Werte vom 23.01.2019 - 22.04.2019

Sensor Min Max Avg
Temp
(Aussen-T/F)
-2.7 °C
24-01-2019  20:40:00
26.4 °C
21-04-2019  18:20:00
6.86 °C
Abs-Feuchte
(Aussen-T/F)
3.44 g/m*3
24-01-2019  18:00:00
10.95 g/m*3
31-03-2019  17:00:00
6.24 g/m*3
Windchill
(Aussen-T/F)
-3.62 C
24-01-2019  01:00:00
26.13 C
21-04-2019  18:00:00
6.25 C

Die Daten stammen von einer Davis Vantage Pro 2 Wetter-Station und werden unter Linux mit der Software wview2wettercgi und aufbereitet. Alle Angaben erfolgen ohne Gewähr für ihre Vollständigkeit oder Richtigkeit.
Kontakt: Rainer Krienke krienke@uni-koblenz.de . Meine Webseiten an der Uni Koblenz oder privat.
Version: $Revision: 0.78 $